[[{"header":{"parameterUnit":"m.s-1","parameterCategory":1,"la1":31.0,"la2":29.5877,"lo1":-88.7671,"lo2":-86.6584,"dy":0.0162,"dx":0.0185,"nx":115,"ny":88,"refTime":"2024-05-26T12:00:00:Z","depth":0,"parameterNumber":2,"parameterNumberName":"U-component_of_WINDS"},"data":[0.0,0.0,0.0,0.0,0.0,0.0,0.0,0.0,0.0,0.0,0.0,0.0,0.0,0.0,0.0,0.0,0.0,0.0,0.0,0.0,0.0,0.0,0.0,0.0,0.0,0.0,0.0,0.0,0.0,0.0,0.0,0.0,0.0,0.0,0.0,0.0,0.0,0.0,0.0,0.0,0.0,0.0,0.0,0.0,0.0,0.0,0.0,0.0,0.0,0.0,0.0,0.0,0.0,0.0,0.0,0.0,0.0,0.0,0.0,0.0,0.0,0.0,0.0,0.0,0.0,0.0,0.0,0.0,0.0,0.0,0.0,0.0,0.0,0.0,0.0,0.0,0.0,0.0,0.0,0.0,0.0,0.0,0.0,0.0,0.0,0.0,0.0,0.0,0.0,0.0,0.0,0.0,0.0,0.0,0.0,0.0,0.0,0.0,0.0,0.0,0.0,0.0,0.0,0.0,0.0,0.0,0.0,0.0,0.0,0.0,0.0,0.0,0.0,0.0,0.0,0.0,0.0,0.0,0.0,0.0,0.0,0.0,0.0,0.0,0.0,0.0,0.0,0.0,0.0,0.0,0.0,0.0,0.0,0.0,0.0,0.0,0.0,0.0,0.0,0.0,0.0,0.0,0.0,0.0,0.0,0.0,0.0,0.0,0.0,0.0,0.0,0.0,0.0,0.0,0.0,0.0,0.0,0.0,0.0,0.0,0.0,0.0,0.0,0.0,0.0,0.0,0.0,0.0,0.0,0.0,0.0,0.0,0.0,0.0,0.0,0.0,0.0,0.0,0.0,0.0,0.0,0.0,0.0,0.0,0.0,0.0,0.0,0.0,0.0,0.0,0.0,0.0,0.0,0.0,0.0,0.0,0.0,0.0,0.0,0.0,0.0,0.0,0.0,0.0,0.0,0.0,0.0,0.0,0.0,0.0,0.0,0.0,0.0,0.0,0.0,0.0,0.0,0.0,0.0,0.0,0.0,0.0,0.0,0.0,0.0,0.0,0.0,0.0,0.0,0.0,0.0,0.0,0.0,0.0,0.0,0.0,0.0,0.0,0.0,0.0,0.0,0.0,0.0,0.0,0.0,0.0,0.0,0.0,0.0,0.0,0.0,0.0,0.0,0.0,0.0,0.0,0.0,0.0,0.0,0.0,0.0,0.0,0.0,0.0,0.0,0.0,0.0,0.0,0.0,0.0,0.0,0.0,0.0,0.0,0.0,0.0,0.0,0.0,0.0,0.0,0.0,0.0,0.0,0.0,0.0,0.0,0.0,0.0,0.0,0.0,0.0,0.0,0.0,0.0,0.0,0.0,0.0,0.0,0.0,0.0,0.0,0.0,0.0,0.0,0.0,0.0,0.0,0.0,0.0,0.0,0.0,0.0,0.0,0.0,0.0,0.0,0.0,0.0,0.0,0.0,0.0,0.0,0.0,0.0,0.0,0.0,0.0,0.0,0.0,0.0,0.0,0.0,0.0,0.0,0.0,0.0,0.0,0.0,0.0,0.0,0.0,0.0,0.0,0.0,0.0,0.0,0.0,0.0,0.0,0.0,0.0,0.0,0.0,0.0,0.0,0.0,0.0,0.0,0.0,0.0,0.0,0.0,0.0,0.0,0.0,0.0,0.0,0.0,0.0,0.0,0.0,0.0,0.0,0.0,0.0,0.0,0.0,0.0,0.0,0.0,0.0,0.0,0.0,0.0,0.0,0.0,0.0,0.0,0.0,0.0,0.0,0.0,0.0,0.0,0.0,0.0,0.0,0.0,0.0,0.0,0.0,0.0,0.0,0.0,0.0,0.0,0.0,0.0,0.0,0.0,0.0,0.0,0.0,0.0,0.0,0.0,0.0,0.0,0.0,0.0,0.0,0.0,0.0,0.0,0.0,0.0,0.0,0.0,0.0,0.0,0.0,0.0,0.0,0.0,0.0,0.0,0.0,0.0,0.0,0.0,0.0,0.0,0.0,0.0,0.0,0.0,0.0,0.0,0.0,0.0,0.0,0.0,0.0,0.0,0.0,0.0,0.0,0.0,0.0,0.0,0.0,0.0,0.0,0.0,0.0,0.0,0.0,0.0,0.0,0.0,0.0,0.0,0.0,0.0,0.0,0.0,0.0,0.0,0.0,0.0,0.0,0.0,0.0,0.0,0.0,0.0,0.0,0.0,0.0,0.0,0.0,0.0,0.0,0.0,0.0,0.0,0.0,0.0,0.0,0.0,0.0,0.0,0.0,0.0,0.0,0.0,0.0,0.0,0.0,0.0,0.0,0.0,0.0,0.0,0.0,0.0,0.0,0.0,0.0,0.0,0.0,0.0,0.0,0.0,0.0,0.0,0.0,0.0,0.0,0.0,0.0,0.0,0.0,0.0,0.0,0.0,0.0,0.0,0.0,0.0,0.0,0.0,0.0,0.0,0.0,0.0,0.0,0.0,0.0,0.0,0.0,0.0,0.0,0.0,0.0,0.0,0.0,0.0,0.0,0.0,0.0,0.0,0.0,0.0,0.0,0.0,0.0,0.0,0.0,0.0,0.0,0.0,0.0,0.0,0.0,0.0,0.0,0.0,0.0,0.0,0.0,0.0,0.0,0.0,0.0,0.0,0.0,0.0,0.0,0.0,0.0,0.0,0.0,0.0,0.0,0.0,0.0,0.0,0.0,0.0,0.0,0.0,0.0,0.0,0.0,0.0,0.0,0.0,0.0,0.0,0.0,0.0,0.0,0.0,0.0,0.0,0.0,0.0,0.0,0.0,0.0,0.0,0.0,0.0,0.0,0.0,0.0,0.0,0.0,0.0,0.0,0.0,0.0,0.0,0.0,0.0,0.0,0.0,0.0,0.0,0.0,0.0,0.0,0.0,0.0,0.0,0.0,0.0,0.0,0.0,0.0,0.0,0.0,0.0,0.0,0.0,0.0,0.0,0.0,0.0,0.0,0.0,0.0,0.0,0.0,0.0,0.0,0.0,0.0,0.0,0.0,0.0,0.0,0.0,0.0,0.0,0.0,0.0,0.0,0.0,0.0,0.0,0.0,0.0,0.0,0.0,0.0,0.0,0.0,0.0,0.0,0.0,0.0,0.0,0.0,0.0,0.0,0.0,0.0,0.0,0.0,0.0,0.0,0.0,0.0,0.0,0.0,0.0,0.0,0.0,0.0,0.0,0.0,0.0,0.0,0.0,0.0,0.0,0.0,0.0,0.0,0.0,0.0,0.0,0.0,0.0,0.0,0.0,0.0,0.0,0.0,0.0,0.0,0.0,0.0,0.0,0.0,0.0,0.0,0.0,0.0,0.0,0.0,0.0,0.0,0.0,0.0,0.0,0.0,0.0,0.0,0.0,0.0,0.0,0.0,0.0,0.0,0.0,0.0,0.0,0.0,0.0,0.0,0.0,0.0,0.0,0.0,0.0,0.0,0.0,0.0,0.0,0.0,0.0,0.0,0.0,0.0,0.0,0.0,0.0,0.0,0.0,0.0,0.0,0.0,0.0,0.0,0.0,0.0,0.0,0.0,0.0,0.0,0.0,0.0,0.0,0.0,0.0,0.0,0.0,0.0,0.0,0.0,0.0,0.0,0.0,0.0,0.0,0.0,0.0,0.0,0.0,0.0,0.0,0.0,0.0,0.0,0.0,0.0,0.0,0.0,0.0,0.0,0.0,0.0,0.0,0.0,0.0,0.0,0.0,0.0,0.0,0.0,0.0,0.0,0.0,0.0,0.0,0.0,0.0,0.0,0.0,0.0,0.0,0.0,0.0,0.0,0.0,0.0,0.0,0.0,0.0,0.0,0.0,0.0,0.0,0.0,0.0,0.0,0.0,0.0,0.0,0.0,0.0,0.0,0.0,0.0,0.0,0.0,0.0,0.0,0.0,0.0,0.0,0.0,0.0,0.0,0.0,0.0,0.0,0.0,0.0,0.0,0.0,0.0,0.0,0.0,0.0,0.0,0.0,0.0,0.0,0.0,0.0,0.0,0.0,0.0,0.0,0.0,0.0,0.0,0.0,0.0,0.0,0.0,0.0,0.0,0.0,0.0,0.0,0.0,0.0,0.0,0.0,0.0,0.0,0.0,0.0,0.0,0.0,0.0,0.0,0.0,0.0,0.0,0.0,0.0,0.0,0.0,0.0,0.0,0.0,0.0,0.0,0.0,0.0,0.0,0.0,0.0,0.0,0.0,0.0,0.0,0.0,0.0,0.0,0.0,0.0,0.0,0.0,0.0,0.0,0.0,0.0,0.0,0.0,0.0,0.0,0.0,0.0,0.0,0.0,0.0,0.0,0.0,0.0,-2.2474,0.0,0.0,0.0,0.0,0.0,0.0,0.0,0.0,0.0,0.0,0.0,0.0,0.0,0.0,0.0,0.0,0.0,0.0,0.0,0.0,0.0,0.0,0.0,0.0,0.0,0.0,0.0,0.0,0.0,0.0,0.0,0.0,0.0,0.0,0.0,0.0,0.0,0.0,0.0,0.0,0.0,0.0,0.0,0.0,0.0,0.0,0.0,0.0,0.0,0.0,0.0,0.0,0.0,0.0,0.0,0.0,0.0,0.0,0.0,0.0,0.0,0.0,0.0,0.0,0.0,0.0,0.0,0.0,0.0,0.0,0.0,0.0,0.0,0.0,0.0,0.0,0.0,0.0,0.0,0.0,0.0,0.0,0.0,0.0,0.0,0.0,0.0,0.0,0.0,0.0,0.0,0.0,0.0,0.0,0.0,0.0,0.0,0.0,0.0,0.0,0.0,0.0,0.0,0.0,0.0,0.0,0.0,0.0,0.0,0.0,-2.1346,-2.1783,-2.2588,-2.323,-2.3645,0.0,0.0,0.0,0.0,0.0,0.0,0.0,0.0,0.0,0.0,0.0,0.0,0.0,0.0,0.0,0.0,0.0,0.0,0.0,0.0,0.0,0.0,0.0,0.0,0.0,0.0,0.0,0.0,0.0,0.0,0.0,0.0,0.0,0.0,0.0,0.0,0.0,0.0,0.0,0.0,0.0,0.0,0.0,0.0,0.0,0.0,0.0,0.0,0.0,0.0,0.0,0.0,0.0,0.0,0.0,0.0,0.0,0.0,0.0,0.0,0.0,0.0,0.0,0.0,0.0,0.0,0.0,0.0,0.0,0.0,0.0,0.0,0.0,0.0,0.0,0.0,0.0,0.0,0.0,0.0,0.0,0.0,0.0,0.0,0.0,0.0,0.0,0.0,0.0,0.0,0.0,0.0,0.0,0.0,0.0,0.0,0.0,0.0,0.0,0.0,0.0,0.0,0.0,0.0,0.0,0.0,0.0,0.0,0.0,0.0,0.0,0.0,-2.3851,-2.4414,-2.4617,0.0,0.0,0.0,0.0,0.0,0.0,0.0,0.0,0.0,0.0,0.0,0.0,0.0,0.0,0.0,0.0,0.0,0.0,0.0,0.0,0.0,0.0,0.0,0.0,0.0,0.0,0.0,0.0,0.0,0.0,0.0,0.0,0.0,0.0,0.0,0.0,0.0,0.0,0.0,0.0,0.0,0.0,0.0,0.0,0.0,0.0,0.0,0.0,0.0,0.0,0.0,0.0,0.0,0.0,0.0,0.0,0.0,0.0,0.0,0.0,0.0,0.0,0.0,0.0,0.0,0.0,0.0,0.0,0.0,0.0,0.0,0.0,0.0,0.0,0.0,0.0,0.0,0.0,0.0,0.0,0.0,0.0,0.0,0.0,0.0,0.0,0.0,0.0,0.0,0.0,0.0,0.0,0.0,0.0,0.0,0.0,0.0,0.0,0.0,0.0,0.0,0.0,0.0,0.0,0.0,0.0,0.0,0.0,0.0,0.0,-2.2972,-2.3947,-2.6008,0.0,-2.4854,0.0,0.0,0.0,0.0,0.0,0.0,0.0,0.0,0.0,0.0,0.0,0.0,0.0,0.0,0.0,0.0,0.0,0.0,0.0,0.0,0.0,0.0,0.0,0.0,0.0,0.0,0.0,0.0,0.0,0.0,0.0,0.0,0.0,0.0,0.0,0.0,0.0,0.0,0.0,0.0,0.0,0.0,0.0,0.0,0.0,0.0,0.0,0.0,0.0,0.0,0.0,0.0,0.0,0.0,0.0,0.0,0.0,0.0,0.0,0.0,0.0,0.0,0.0,0.0,0.0,0.0,0.0,0.0,0.0,0.0,0.0,0.0,0.0,0.0,0.0,0.0,0.0,0.0,0.0,0.0,0.0,0.0,0.0,0.0,0.0,0.0,0.0,0.0,0.0,0.0,0.0,0.0,0.0,0.0,0.0,0.0,0.0,0.0,0.0,0.0,0.0,0.0,0.0,0.0,0.0,0.0,0.0,0.0,0.0,0.0,-2.4352,-2.5535,-2.6859,-2.6834,0.0,0.0,0.0,0.0,0.0,0.0,0.0,0.0,0.0,0.0,0.0,0.0,0.0,0.0,0.0,0.0,0.0,0.0,0.0,0.0,0.0,0.0,0.0,0.0,0.0,0.0,0.0,0.0,0.0,0.0,0.0,0.0,0.0,0.0,0.0,0.0,0.0,0.0,0.0,0.0,0.0,0.0,0.0,0.0,0.0,0.0,0.0,0.0,0.0,0.0,0.0,0.0,0.0,0.0,0.0,0.0,0.0,0.0,0.0,0.0,0.0,0.0,0.0,0.0,0.0,0.0,0.0,0.0,0.0,0.0,0.0,0.0,0.0,0.0,0.0,0.0,0.0,0.0,0.0,0.0,0.0,0.0,0.0,0.0,0.0,0.0,0.0,0.0,0.0,0.0,0.0,0.0,0.0,0.0,0.0,0.0,0.0,0.0,0.0,0.0,0.0,0.0,0.0,0.0,0.0,0.0,0.0,0.0,0.0,0.0,-2.4012,-2.5772,-2.7567,-2.798,-2.7314,-2.5472,0.0,0.0,0.0,0.0,0.0,0.0,0.0,0.0,0.0,0.0,0.0,0.0,0.0,0.0,0.0,0.0,0.0,0.0,0.0,0.0,0.0,0.0,0.0,0.0,0.0,0.0,0.0,0.0,0.0,0.0,0.0,0.0,0.0,0.0,0.0,0.0,0.0,0.0,0.0,0.0,0.0,0.0,0.0,0.0,0.0,0.0,0.0,0.0,0.0,0.0,0.0,0.0,0.0,0.0,0.0,0.0,0.0,0.0,0.0,0.0,0.0,0.0,0.0,0.0,0.0,0.0,0.0,0.0,0.0,0.0,0.0,0.0,0.0,0.0,0.0,0.0,0.0,0.0,0.0,0.0,0.0,0.0,0.0,0.0,0.0,0.0,0.0,0.0,0.0,0.0,0.0,0.0,0.0,0.0,0.0,0.0,0.0,0.0,0.0,0.0,0.0,0.0,0.0,0.0,0.0,0.0,0.0,0.0,0.0,-2.5727,-2.7152,-3.0157,-2.9804,-2.803,0.0,0.0,0.0,0.0,0.0,0.0,0.0,0.0,0.0,0.0,0.0,0.0,0.0,0.0,0.0,0.0,0.0,0.0,0.0,0.0,0.0,0.0,0.0,0.0,0.0,0.0,0.0,0.0,0.0,0.0,0.0,0.0,0.0,0.0,0.0,0.0,0.0,0.0,0.0,0.0,0.0,0.0,0.0,0.0,0.0,0.0,0.0,0.0,0.0,0.0,0.0,0.0,0.0,0.0,0.0,0.0,0.0,0.0,0.0,0.0,0.0,0.0,0.0,0.0,0.0,0.0,0.0,0.0,0.0,0.0,0.0,0.0,0.0,0.0,0.0,0.0,0.0,0.0,0.0,0.0,0.0,0.0,0.0,0.0,0.0,0.0,0.0,0.0,0.0,0.0,0.0,0.0,0.0,0.0,0.0,0.0,0.0,0.0,0.0,0.0,0.0,0.0,0.0,0.0,0.0,0.0,0.0,0.0,0.0,-2.3279,-2.524,-2.8036,-3.1511,-2.9131,-2.7513,0.0,0.0,0.0,0.0,0.0,0.0,0.0,0.0,0.0,0.0,0.0,0.0,0.0,0.0,0.0,0.0,0.0,0.0,0.0,0.0,0.0,0.0,0.0,0.0,0.0,0.0,0.0,0.0,0.0,0.0,0.0,0.0,0.0,0.0,0.0,0.0,0.0,0.0,0.0,0.0,0.0,0.0,0.0,0.0,0.0,0.0,0.0,0.0,0.0,0.0,0.0,0.0,0.0,0.0,0.0,0.0,0.0,0.0,0.0,0.0,0.0,0.0,0.0,0.0,0.0,0.0,0.0,0.0,0.0,0.0,0.0,0.0,0.0,0.0,0.0,0.0,0.0,0.0,0.0,0.0,0.0,0.0,0.0,0.0,0.0,0.0,0.0,0.0,0.0,0.0,0.0,0.0,0.0,0.0,0.0,0.0,0.0,0.0,0.0,0.0,0.0,0.0,0.0,0.0,0.0,0.0,0.0,0.0,0.0,-2.3935,0.0,-2.9505,0.0,-2.8981,-2.7188,0.0,0.0,0.0,0.0,0.0,0.0,0.0,0.0,0.0,0.0,0.0,0.0,0.0,0.0,0.0,0.0,0.0,0.0,0.0,0.0,0.0,0.0,0.0,0.0,0.0,0.0,0.0,0.0,0.0,0.0,0.0,0.0,0.0,0.0,0.0,0.0,0.0,0.0,0.0,0.0,0.0,0.0,0.0,0.0,0.0,0.0,0.0,0.0,0.0,0.0,0.0,0.0,0.0,0.0,0.0,0.0,0.0,0.0,0.0,0.0,0.0,0.0,0.0,0.0,0.0,0.0,0.0,0.0,0.0,0.0,0.0,0.0,0.0,0.0,0.0,0.0,0.0,0.0,0.0,0.0,0.0,0.0,0.0,0.0,0.0,0.0,0.0,0.0,0.0,0.0,0.0,0.0,0.0,0.0,0.0,0.0,0.0,0.0,0.0,0.0,0.0,0.0,0.0,0.0,0.0,0.0,0.0,0.0,-2.3354,-2.8279,-3.0851,-3.1246,-2.9702,-2.9453,-2.7059,0.0,0.0,0.0,0.0,0.0,0.0,0.0,0.0,0.0,0.0,0.0,0.0,0.0,0.0,0.0,0.0,0.0,0.0,0.0,0.0,0.0,0.0,0.0,0.0,0.0,0.0,0.0,0.0,0.0,0.0,0.0,0.0,0.0,0.0,0.0,0.0,0.0,0.0,0.0,0.0,0.0,0.0,0.0,0.0,0.0,0.0,0.0,0.0,0.0,0.0,0.0,0.0,0.0,0.0,0.0,0.0,0.0,0.0,0.0,0.0,0.0,0.0,0.0,0.0,0.0,0.0,0.0,0.0,0.0,0.0,0.0,0.0,0.0,0.0,0.0,0.0,0.0,0.0,0.0,0.0,0.0,0.0,0.0,0.0,0.0,0.0,0.0,0.0,0.0,0.0,0.0,0.0,0.0,0.0,0.0,0.0,0.0,0.0,0.0,0.0,0.0,0.0,0.0,0.0,0.0,0.0,0.0,0.0,0.0,-2.6106,-2.7659,-2.9038,-3.0098,-2.7749,-2.6299,0.0,0.0,0.0,0.0,0.0,0.0,0.0,0.0,0.0,0.0,0.0,0.0,0.0,0.0,0.0,0.0,0.0,0.0,0.0,0.0,0.0,0.0,0.0,0.0,0.0,0.0,0.0,0.0,0.0,0.0,0.0,0.0,0.0,0.0,0.0,0.0,0.0,0.0,0.0,0.0,0.0,0.0,0.0,0.0,0.0,0.0,0.0,0.0,0.0,0.0,0.0,0.0,0.0,0.0,0.0,0.0,0.0,0.0,0.0,0.0,0.0,0.0,0.0,0.0,0.0,0.0,0.0,0.0,0.0,0.0,0.0,0.0,0.0,0.0,0.0,0.0,0.0,0.0,0.0,0.0,0.0,0.0,0.0,0.0,0.0,0.0,0.0,0.0,0.0,0.0,0.0,0.0,0.0,0.0,0.0,0.0,0.0,0.0,0.0,0.0,0.0,0.0,0.0,0.0,0.0,0.0,0.0,0.0,0.0,-2.686,-2.8371,-2.9613,-3.048,-2.8042,-2.6664,-2.6413,0.0,0.0,0.0,0.0,0.0,0.0,0.0,0.0,0.0,0.0,0.0,0.0,0.0,0.0,0.0,0.0,0.0,0.0,0.0,0.0,0.0,0.0,0.0,0.0,0.0,0.0,0.0,0.0,0.0,0.0,0.0,0.0,0.0,0.0,0.0,0.0,0.0,0.0,0.0,0.0,0.0,0.0,0.0,0.0,0.0,0.0,0.0,0.0,0.0,0.0,0.0,0.0,0.0,0.0,0.0,0.0,0.0,0.0,0.0,0.0,0.0,0.0,0.0,0.0,0.0,0.0,0.0,0.0,0.0,0.0,0.0,0.0,0.0,0.0,0.0,0.0,0.0,0.0,0.0,0.0,0.0,0.0,0.0,0.0,0.0,0.0,0.0,0.0,0.0,0.0,0.0,0.0,0.0,0.0,0.0,0.0,0.0,0.0,0.0,0.0,0.0,0.0,0.0,0.0,0.0,0.0,0.0,0.0,-2.9854,-3.2182,-3.2454,-3.0677,-2.9909,-2.7926,0.0,0.0,0.0,0.0,0.0,0.0,0.0,0.0,0.0,0.0,0.0,0.0,0.0,0.0,0.0,0.0,0.0,0.0,0.0,0.0,0.0,0.0,0.0,0.0,0.0,0.0,0.0,0.0,0.0,0.0,0.0,0.0,0.0,0.0,0.0,0.0,0.0,0.0,0.0,0.0,0.0,0.0,0.0,0.0,0.0,0.0,0.0,0.0,0.0,0.0,0.0,0.0,0.0,0.0,0.0,0.0,0.0,0.0,0.0,0.0,0.0,0.0,0.0,0.0,0.0,0.0,0.0,0.0,0.0,0.0,0.0,0.0,0.0,0.0,0.0,0.0,0.0,0.0,0.0,0.0,0.0,0.0,0.0,0.0,0.0,0.0,0.0,0.0,0.0,0.0,0.0,0.0,0.0,0.0,0.0,0.0,0.0,0.0,0.0,0.0,0.0,0.0,0.0,0.0,0.0,0.0,0.0,0.0,0.0,-3.0911,-3.2411,-3.2705,-3.1727,-2.9661,-2.7895,0.0,0.0,0.0,0.0,0.0,0.0,0.0,0.0,0.0,0.0,0.0,0.0,0.0,0.0,0.0,0.0,0.0,0.0,0.0,0.0,0.0,0.0,0.0,0.0,0.0,0.0,0.0,0.0,0.0,0.0,0.0,0.0,0.0,0.0,0.0,0.0,0.0,0.0,0.0,0.0,0.0,0.0,0.0,0.0,0.0,0.0,0.0,0.0,0.0,0.0,0.0,0.0,0.0,0.0,0.0,0.0,0.0,0.0,0.0,0.0,0.0,0.0,0.0,0.0,0.0,0.0,0.0,0.0,0.0,0.0,0.0,0.0,0.0,0.0,0.0,0.0,0.0,0.0,0.0,0.0,0.0,0.0,0.0,0.0,0.0,0.0,0.0,0.0,0.0,0.0,0.0,0.0,0.0,0.0,0.0,0.0,0.0,0.0,0.0,0.0,0.0,0.0,0.0,0.0,0.0,0.0,0.0,0.0,-2.9566,-3.2051,-3.3194,-3.3608,-3.3269,-3.1286,-2.9377,0.0,0.0,0.0,0.0,0.0,0.0,0.0,0.0,0.0,0.0,0.0,0.0,0.0,0.0,0.0,0.0,0.0,0.0,0.0,0.0,0.0,0.0,0.0,0.0,0.0,0.0,0.0,0.0,0.0,0.0,0.0,0.0,0.0,0.0,0.0,0.0,0.0,0.0,0.0,0.0,0.0,0.0,0.0,0.0,0.0,0.0,0.0,0.0,0.0,0.0,0.0,0.0,0.0,0.0,0.0,0.0,0.0,0.0,0.0,0.0,0.0,0.0,0.0,0.0,0.0,0.0,0.0,0.0,0.0,0.0,0.0,0.0,0.0,0.0,0.0,0.0,0.0,0.0,0.0,0.0,0.0,0.0,0.0,0.0,0.0,0.0,0.0,0.0,0.0,0.0,0.0,0.0,0.0,0.0,0.0,0.0,0.0,0.0,0.0,0.0,0.0,0.0,0.0,0.0,0.0,0.0,0.0,0.0,-3.0959,-3.3162,-3.4236,-3.4756,-3.4718,-3.3571,-3.1449,0.0,0.0,0.0,0.0,0.0,0.0,0.0,0.0,0.0,0.0,0.0,0.0,0.0,0.0,0.0,0.0,0.0,0.0,0.0,0.0,0.0,0.0,0.0,0.0,0.0,0.0,0.0,0.0,0.0,0.0,0.0,0.0,0.0,0.0,0.0,0.0,0.0,0.0,0.0,0.0,0.0,0.0,0.0,0.0,0.0,0.0,0.0,0.0,0.0,0.0,0.0,0.0,0.0,0.0,0.0,0.0,0.0,0.0,0.0,0.0,0.0,0.0,0.0,0.0,0.0,0.0,0.0,0.0,0.0,0.0,0.0,0.0,0.0,0.0,0.0,0.0,0.0,0.0,0.0,0.0,0.0,0.0,0.0,0.0,0.0,0.0,0.0,0.0,0.0,0.0,0.0,0.0,0.0,0.0,0.0,0.0,0.0,0.0,0.0,0.0,0.0,0.0,0.0,0.0,0.0,0.0,0.0,0.0,-3.1512,-3.3671,-3.4743,-3.532,-3.532,-3.3018,-3.1022,0.0,0.0,0.0,0.0,0.0,0.0,0.0,0.0,0.0,0.0,0.0,0.0,0.0,0.0,0.0,0.0,0.0,0.0,0.0,0.0,0.0,0.0,0.0,0.0,0.0,0.0,0.0,0.0,0.0,0.0,0.0,0.0,0.0,0.0,0.0,0.0,0.0,0.0,0.0,0.0,0.0,0.0,0.0,0.0,0.0,0.0,0.0,0.0,-2.5871,0.0,0.0,0.0,0.0,0.0,0.0,0.0,0.0,0.0,0.0,0.0,0.0,0.0,0.0,0.0,0.0,0.0,0.0,0.0,0.0,0.0,0.0,0.0,0.0,0.0,0.0,0.0,0.0,0.0,0.0,0.0,0.0,0.0,0.0,0.0,0.0,0.0,0.0,0.0,0.0,0.0,0.0,0.0,0.0,0.0,0.0,0.0,0.0,0.0,0.0,0.0,0.0,0.0,0.0,0.0,0.0,0.0,0.0,0.0,-3.2315,-3.4236,-3.5366,-3.5931,-3.5843,-3.3746,-3.1813,0.0,0.0,0.0,0.0,0.0,0.0,0.0,0.0,0.0,0.0,0.0,0.0,0.0,0.0,0.0,0.0,0.0,0.0,0.0,0.0,0.0,0.0,0.0,0.0,0.0,0.0,0.0,0.0,0.0,0.0,0.0,0.0,0.0,0.0,0.0,0.0,0.0,0.0,0.0,0.0,0.0,0.0,0.0,0.0,0.0,0.0,0.0,0.0,0.0,0.0,0.0,0.0,0.0,0.0,0.0,0.0,0.0,0.0,0.0,0.0,0.0,0.0,0.0,0.0,0.0,0.0,0.0,0.0,0.0,0.0,0.0,0.0,0.0,0.0,0.0,0.0,0.0,0.0,0.0,0.0,0.0,0.0,0.0,0.0,0.0,0.0,0.0,0.0,0.0,0.0,0.0,0.0,0.0,0.0,0.0,0.0,0.0,0.0,0.0,0.0,0.0,0.0,0.0,0.0,0.0,0.0,0.0,-3.0708,-3.3106,-3.4914,-3.5927,-3.6443,-3.6505,-3.4889,-3.2993,-3.0821,0.0,0.0,0.0,0.0,0.0,0.0,0.0,0.0,0.0,0.0,0.0,0.0,0.0,0.0,0.0,0.0,0.0,0.0,0.0,0.0,0.0,0.0,0.0,0.0,0.0,0.0,0.0,0.0,0.0,0.0,0.0,0.0,0.0,0.0,0.0,0.0,0.0,0.0,-2.4393,-2.6251,0.0,0.0,0.0,0.0,0.0,0.0,0.0,0.0,-2.8726,0.0,0.0,0.0,0.0,0.0,0.0,0.0,0.0,0.0,0.0,0.0,0.0,0.0,0.0,0.0,0.0,0.0,0.0,0.0,0.0,0.0,0.0,0.0,0.0,0.0,0.0,0.0,0.0,0.0,0.0,0.0,0.0,0.0,0.0,0.0,0.0,0.0,0.0,0.0,0.0,0.0,0.0,0.0,0.0,0.0,0.0,0.0,0.0,0.0,0.0,0.0,0.0,0.0,0.0,0.0,0.0,-3.0005,-3.1486,-3.347,-3.6065,-3.6317,-3.6631,-3.6985,-3.5454,-3.3545,-3.1323,0.0,0.0,0.0,0.0,0.0,0.0,0.0,0.0,0.0,0.0,0.0,0.0,0.0,0.0,0.0,0.0,0.0,0.0,0.0,0.0,0.0,0.0,0.0,0.0,0.0,0.0,0.0,0.0,0.0,0.0,0.0,0.0,0.0,0.0,0.0,0.0,0.0,0.0,0.0,-2.7846,-2.8624,0.0,0.0,0.0,0.0,0.0,0.0,0.0,0.0,-3.1311,0.0,0.0,0.0,0.0,0.0,0.0,0.0,0.0,0.0,0.0,0.0,0.0,0.0,0.0,0.0,0.0,0.0,0.0,0.0,0.0,0.0,0.0,0.0,0.0,0.0,0.0,0.0,0.0,0.0,0.0,0.0,0.0,0.0,0.0,0.0,0.0,0.0,0.0,0.0,0.0,0.0,0.0,0.0,0.0,0.0,0.0,0.0,0.0,0.0,0.0,0.0,0.0,0.0,0.0,0.0,-3.0482,-3.2528,-3.4575,-3.6744,-3.6832,-3.691,-3.7123,-3.5027,-3.3093,0.0,0.0,0.0,0.0,0.0,0.0,0.0,0.0,0.0,0.0,0.0,0.0,0.0,0.0,0.0,0.0,0.0,0.0,0.0,0.0,0.0,0.0,0.0,0.0,0.0,0.0,0.0,0.0,0.0,0.0,0.0,0.0,0.0,0.0,0.0,0.0,0.0,0.0,0.0,0.0,-2.8674,-2.9277,-2.8938,0.0,0.0,0.0,0.0,0.0,0.0,-3.2362,-3.2713,0.0,0.0,0.0,0.0,0.0,0.0,0.0,0.0,0.0,0.0,0.0,0.0,0.0,0.0,0.0,0.0,0.0,0.0,0.0,0.0,0.0,0.0,0.0,0.0,0.0,0.0,0.0,0.0,0.0,0.0,0.0,0.0,0.0,0.0,0.0,0.0,0.0,0.0,0.0,0.0,0.0,0.0,0.0,0.0,0.0,0.0,0.0,0.0,0.0,0.0,0.0,0.0,0.0,0.0,0.0,-3.0557,-3.3219,-3.5466,-3.7249,-3.7249,-3.7249,-3.7299,-3.4788,-3.2767,0.0,0.0,0.0,0.0,0.0,0.0,0.0,0.0,0.0,0.0,0.0,0.0,0.0,0.0,0.0,0.0,0.0,0.0,0.0,0.0,0.0,0.0,0.0,0.0,0.0,0.0,0.0,0.0,0.0,0.0,0.0,0.0,0.0,0.0,0.0,0.0,0.0,0.0,0.0,0.0,0.0,-2.9905,-2.9314,-2.9666,0.0,0.0,0.0,0.0,-3.347,-3.4003,0.0,0.0,0.0,0.0,0.0,0.0,0.0,0.0,0.0,0.0,0.0,0.0,0.0,0.0,0.0,0.0,0.0,0.0,0.0,0.0,0.0,0.0,0.0,0.0,0.0,0.0,0.0,0.0,0.0,0.0,0.0,0.0,0.0,0.0,0.0,0.0,0.0,0.0,0.0,0.0,0.0,0.0,0.0,0.0,0.0,0.0,0.0,0.0,0.0,0.0,0.0,0.0,0.0,0.0,0.0,0.0,-3.0532,-3.2842,-3.5278,-3.7739,-3.7437,-3.7412,-3.7864,-3.5717,-3.3545,0.0,0.0,0.0,0.0,0.0,0.0,0.0,0.0,0.0,0.0,0.0,0.0,0.0,0.0,0.0,0.0,0.0,0.0,0.0,0.0,0.0,0.0,0.0,0.0,0.0,0.0,0.0,0.0,0.0,0.0,0.0,0.0,0.0,0.0,0.0,0.0,0.0,0.0,0.0,0.0,0.0,-3.1009,-3.0495,-3.047,-3.076,0.0,0.0,-3.3918,-3.5382,-3.6828,0.0,0.0,0.0,0.0,0.0,0.0,0.0,0.0,0.0,0.0,0.0,0.0,0.0,0.0,0.0,0.0,0.0,0.0,0.0,0.0,0.0,0.0,0.0,0.0,0.0,0.0,0.0,0.0,0.0,0.0,0.0,0.0,0.0,0.0,0.0,0.0,0.0,0.0,0.0,0.0,0.0,0.0,0.0,0.0,0.0,0.0,0.0,0.0,0.0,0.0,0.0,0.0,0.0,0.0,0.0,-2.7507,-3.1009,-3.3847,-3.6169,-3.7927,-3.7776,-3.7764,-3.799,-3.4951,-3.2566,0.0,0.0,0.0,0.0,0.0,0.0,0.0,0.0,0.0,0.0,0.0,0.0,0.0,0.0,0.0,0.0,0.0,0.0,0.0,0.0,0.0,0.0,0.0,0.0,0.0,0.0,0.0,0.0,0.0,0.0,0.0,0.0,0.0,0.0,0.0,0.0,0.0,0.0,0.0,0.0,0.0,0.0,-3.1549,-3.1813,0.0,0.0,0.0,-3.6115,-3.6799,0.0,0.0,0.0,0.0,0.0,0.0,0.0,0.0,0.0,0.0,0.0,0.0,0.0,0.0,0.0,0.0,0.0,0.0,0.0,0.0,0.0,0.0,0.0,0.0,0.0,0.0,0.0,0.0,0.0,0.0,0.0,0.0,0.0,0.0,0.0,0.0,0.0,0.0,0.0,0.0,0.0,0.0,0.0,0.0,0.0,0.0,0.0,0.0,0.0,0.0,0.0,0.0,0.0,0.0,0.0,0.0,0.0,-3.1574,-3.4876,-3.7098,-3.8178,-3.8078,-3.8002,-3.7939,-3.4512,0.0,0.0,0.0,0.0,0.0,0.0,0.0,0.0,0.0,0.0,0.0,0.0,0.0,0.0,0.0,0.0,0.0,0.0,0.0,0.0,0.0,0.0,0.0,0.0,0.0,0.0,0.0,-1.8129,0.0,0.0,0.0,0.0,0.0,0.0,0.0,0.0,0.0,0.0,0.0,0.0,0.0,0.0,-3.2428,-3.2428,-3.3043,-3.3761,0.0,0.0,-3.7678,-3.7781,-3.9256,-3.9636,0.0,0.0,0.0,0.0,0.0,0.0,0.0,0.0,0.0,0.0,0.0,0.0,0.0,0.0,0.0,0.0,0.0,0.0,0.0,0.0,0.0,0.0,0.0,0.0,0.0,0.0,0.0,0.0,0.0,0.0,0.0,0.0,0.0,0.0,0.0,0.0,0.0,0.0,0.0,0.0,0.0,0.0,0.0,0.0,0.0,0.0,0.0,0.0,0.0,0.0,0.0,0.0,0.0,0.0,0.0,-3.2139,-3.5441,-3.7712,-3.8793,-3.8278,-3.8002,-3.7952,-3.5265,-3.2792,0.0,0.0,0.0,0.0,0.0,0.0,0.0,0.0,0.0,0.0,0.0,0.0,0.0,0.0,0.0,0.0,0.0,0.0,0.0,0.0,0.0,0.0,0.0,0.0,0.0,0.0,0.0,0.0,0.0,0.0,0.0,0.0,0.0,0.0,0.0,0.0,0.0,0.0,0.0,0.0,0.0,-3.3018,-3.3061,-3.3935,-3.4625,0.0,0.0,-3.8145,-3.8103,-4.0862,-4.1504,-3.7033,0.0,0.0,0.0,0.0,0.0,0.0,0.0,0.0,0.0,0.0,0.0,0.0,0.0,0.0,0.0,0.0,0.0,0.0,0.0,0.0,0.0,0.0,0.0,0.0,0.0,0.0,0.0,0.0,0.0,0.0,0.0,0.0,0.0,0.0,0.0,0.0,0.0,0.0,0.0,0.0,0.0,0.0,0.0,0.0,0.0,0.0,0.0,0.0,0.0,0.0,0.0,0.0,0.0,-2.8913,-3.219,-3.5491,-3.7726,-3.8806,-3.8655,-3.8379,-3.8015,-3.5667,-3.337,0.0,0.0,0.0,0.0,0.0,0.0,0.0,0.0,0.0,0.0,0.0,0.0,0.0,0.0,0.0,0.0,0.0,0.0,0.0,0.0,0.0,0.0,0.0,0.0,0.0,0.0,0.0,0.0,-2.1202,-2.1628,-2.2393,0.0,0.0,0.0,0.0,0.0,0.0,0.0,0.0,0.0,0.0,-3.3947,-3.4997,-3.5755,0.0,0.0,-3.8642,-4.014,-3.9334,-4.0839,-4.1211,-3.861,-3.5583,0.0,0.0,0.0,0.0,0.0,0.0,0.0,0.0,0.0,0.0,0.0,0.0,0.0,0.0,0.0,0.0,0.0,0.0,0.0,0.0,0.0,0.0,0.0,0.0,0.0,0.0,0.0,0.0,0.0,0.0,0.0,0.0,0.0,0.0,0.0,0.0,0.0,0.0,0.0,0.0,0.0,0.0,0.0,0.0,0.0,0.0,0.0,0.0,0.0,0.0,0.0,0.0,-2.9402,-3.2679,-3.583,-3.7977,-3.9133,-3.8956,-3.8655,-3.7977,-3.5984,-3.3847,0.0,0.0,0.0,0.0,0.0,0.0,0.0,0.0,0.0,0.0,0.0,0.0,0.0,0.0,0.0,0.0,0.0,0.0,0.0,0.0,0.0,0.0,0.0,0.0,0.0,0.0,0.0,0.0,-2.2418,-2.2681,-2.307,0.0,0.0,0.0,0.0,0.0,0.0,0.0,0.0,0.0,0.0,-3.4813,-3.5956,-3.6722,-3.7186,-3.7186,-3.9488,-4.0927,-3.998,-4.1203,-4.1683,-3.9993,0.0,0.0,0.0,0.0,0.0,0.0,0.0,0.0,0.0,0.0,0.0,0.0,0.0,0.0,0.0,0.0,0.0,0.0,0.0,0.0,0.0,0.0,0.0,0.0,0.0,0.0,0.0,-2.0666,0.0,0.0,-1.9836,0.0,0.0,0.0,0.0,0.0,0.0,0.0,0.0,0.0,0.0,0.0,0.0,0.0,0.0,0.0,0.0,0.0,0.0,0.0,0.0,0.0,0.0,-3.0507,-3.3809,-3.6558,-3.853,-3.9609,-3.9157,-3.8605,-3.799,-3.636,-3.4179,-3.1449,0.0,0.0,0.0,0.0,0.0,0.0,0.0,0.0,0.0,0.0,0.0,0.0,0.0,0.0,0.0,0.0,0.0,0.0,0.0,0.0,0.0,0.0,0.0,0.0,0.0,0.0,-2.2359,-2.2769,-2.3095,0.0,0.0,0.0,0.0,0.0,0.0,0.0,0.0,0.0,0.0,-3.4123,-3.5483,-3.5558,-3.6508,-3.7249,-3.7224,-3.8812,-3.9924,-3.9782,-4.223,-4.3374,0.0,0.0,0.0,0.0,0.0,0.0,0.0,0.0,0.0,0.0,0.0,0.0,0.0,0.0,0.0,0.0,0.0,0.0,0.0,0.0,0.0,0.0,0.0,0.0,0.0,0.0,0.0,-2.354,-2.2887,0.0,0.0,0.0,0.0,0.0,0.0,0.0,0.0,0.0,0.0,0.0,-3.0595,-3.1524,0.0,0.0,0.0,0.0,0.0,0.0,0.0,0.0,0.0,0.0,0.0,0.0,-3.053,-3.3847,-3.6609,-3.8567,-3.9659,-3.9509,-3.8969,-3.8027,-3.7111,-3.465,-3.047,0.0,0.0,0.0,0.0,0.0,0.0,0.0,0.0,0.0,0.0,0.0,0.0,0.0,0.0,0.0,0.0,0.0,0.0,0.0,0.0,0.0,0.0,0.0,0.0,0.0,-2.3427,0.0,0.0,0.0,0.0,0.0,0.0,0.0,0.0,0.0,0.0,0.0,-3.1612,-3.3621,-3.4806,-3.5897,-3.7036,-3.7826,-3.8304,0.0,0.0,0.0,0.0,0.0,0.0,0.0,0.0,0.0,0.0,0.0,0.0,0.0,0.0,-3.5486,-3.1372,-3.0753,-3.1143,-3.1947,0.0,0.0,0.0,0.0,0.0,0.0,0.0,0.0,0.0,0.0,0.0,0.0,0.0,0.0,-2.4657,0.0,-2.3921,0.0,0.0,0.0,0.0,0.0,0.0,0.0,0.0,-3.1574,-3.2893,-3.3364,-3.4324,-3.4274,0.0,-3.2855,-3.0922,0.0,0.0,0.0,0.0,0.0,0.0,0.0,0.0,-3.1295,-3.4412,-3.6797,-3.8555,-3.9634,-3.9697,-3.9157,-3.8027,-3.6923,-3.4625,-3.106,-2.9854,-2.8134,0.0,0.0,0.0,0.0,0.0,0.0,0.0,0.0,0.0,0.0,0.0,0.0,0.0,0.0,0.0,0.0,0.0,0.0,0.0,0.0,0.0,0.0,0.0,-2.4067,0.0,0.0,0.0,0.0,0.0,0.0,0.0,0.0,0.0,-3.0645,-3.1913,-3.352,-3.5328,-3.6219,-3.7036,-3.7877,0.0,0.0,0.0,0.0,0.0,0.0,0.0,-4.3245,-4.3593,-4.1806,-3.9974,-3.8992,-3.8506,-3.8147,-3.7782,0.0,0.0,-3.4663,-3.4467,-3.5204,-3.5792,-3.73,-3.8504,-3.859,-3.9415,-3.9918,0.0,0.0,0.0,0.0,0.0,0.0,0.0,0.0,-2.4681,-2.4421,0.0,-2.4118,0.0,0.0,0.0,0.0,-2.5241,-2.9359,0.0,0.0,-3.4846,-3.6094,-3.5646,-3.6182,-3.6157,-3.5658,-3.6119,-3.5273,-3.3048,-2.8913,0.0,0.0,0.0,0.0,0.0,0.0,-3.2805,-3.5458,-3.7211,-3.858,-3.9647,-3.9672,-3.912,-3.7965,-3.5906,-3.4248,-3.3106,-3.1989,-3.0181,-2.7482,-2.6264,0.0,0.0,0.0,0.0,0.0,0.0,0.0,0.0,0.0,0.0,0.0,0.0,0.0,0.0,0.0,0.0,0.0,0.0,0.0,0.0,-2.3351,0.0,0.0,0.0,0.0,0.0,0.0,0.0,0.0,0.0,0.0,-3.2554,-3.4191,-3.5981,-3.7048,0.0,0.0,0.0,0.0,-3.8932,-3.8957,-3.9465,-4.0273,-4.1338,-4.3102,-4.4342,-4.4355,0.0,0.0,-4.0853,-4.1202,-4.1439,-4.0523,-4.1182,-4.1526,-4.0254,-4.0018,-4.0163,-4.0192,-4.0654,-4.101,-4.1145,-4.2218,-4.306,-2.6253,0.0,0.0,0.0,0.0,-2.7392,-2.8088,-2.9285,-2.9039,-2.8479,-2.7666,-2.7392,0.0,0.0,0.0,0.0,0.0,0.0,-3.2482,-3.4939,-3.5977,-3.6958,-3.7927,-3.8127,-3.8078,-3.7914,-3.7651,-3.701,-3.5943,-3.3947,-3.122,-2.7998,0.0,0.0,0.0,0.0,-3.3759,-3.6069,-3.7776,-3.8981,-3.9685,-3.9308,-3.8617,-3.7437,-3.5997,-3.4743,-3.3696,-3.2968,-3.1499,-2.9189,-2.7996,0.0,0.0,0.0,0.0,0.0,0.0,0.0,0.0,0.0,0.0,0.0,0.0,0.0,0.0,0.0,0.0,0.0,0.0,0.0,-2.3979,-2.4042,-2.4695,0.0,0.0,0.0,0.0,0.0,0.0,0.0,0.0,0.0,-3.5655,-3.6295,-3.6985,0.0,0.0,-3.8354,-3.8592,-3.8755,-3.9057,-3.9396,-4.0369,0.0,-4.1514,-4.2739,-4.3992,-4.4952,-4.5123,-4.4883,-4.4038,-4.3438,-4.2901,-4.262,-4.3515,-4.4226,-4.3881,-4.3142,-4.2667,-4.2682,-4.3378,-4.4012,-4.4068,-4.4437,-4.4676,-2.8387,-2.7318,-2.661,-2.7274,-2.8645,-2.8464,-2.914,-3.0331,-3.0077,-2.9635,-2.9084,-2.8906,-2.7917,-2.6424,-2.6878,0.0,0.0,0.0,-3.4527,-3.7071,-3.7297,-3.8052,-3.9157,-3.9195,-3.9195,-3.917,-3.8617,-3.8178,-3.7876,-3.6948,-3.4919,-3.1938,0.0,0.0,-3.1763,-3.3282,-3.5027,-3.7021,-3.8278,-3.9132,-3.9659,-3.8931,-3.8103,-3.726,-3.632,-3.5341,-3.4274,-3.3897,-3.2805,-3.0834,-2.949,-2.7871,0.0,0.0,0.0,0.0,0.0,0.0,0.0,0.0,0.0,0.0,0.0,-2.2359,-2.0916,0.0,0.0,0.0,-2.3175,-2.4632,-2.6267,-2.6352,0.0,0.0,0.0,0.0,0.0,0.0,0.0,-3.46,-3.5755,-3.6734,-3.7726,-3.8052,-3.8304,-3.863,-3.868,-3.8806,-3.9145,0.0,-3.9308,-3.9647,-4.0364,-4.1032,-4.1492,-4.2222,-4.3294,-4.5123,-4.5403,-4.5644,-4.6062,-4.5115,-4.4456,-4.4932,-4.5207,-4.5539,-4.6062,-4.5566,-4.5054,-4.5097,-4.56,-4.6055,-4.6082,-4.6097,-4.6037,-3.0019,-2.9597,-2.7978,-2.8153,-2.9394,-2.8451,-2.8943,-3.0214,-2.9303,-2.9278,-2.9951,-2.9565,-2.9129,-2.8774,-2.9916,0.0,-3.2211,-3.5101,-3.7014,-3.8165,-3.868,-3.9207,-3.9672,-3.9697,-3.9697,-3.9685,-3.9233,-3.8982,-3.8944,-3.8391,-3.7613,-3.6593,-3.5052,-3.4487,-3.4818,-3.5382,-3.6461,-3.8052,-3.8642,-3.9183,-3.9534,-3.8542,-3.7701,-3.7061,-3.6619,-3.578,-3.4713,-3.465,-3.384,-3.2215,-3.0721,-2.9177,-2.7381,0.0,0.0,0.0,0.0,0.0,0.0,0.0,0.0,0.0,0.0,0.0,0.0,0.0,0.0,0.0,-2.5661,0.0,-2.8913,-2.9503,0.0,0.0,0.0,-3.1298,-3.2541,-3.3972,-3.529,-3.6468,0.0,0.0,-3.8982,-3.9383,-3.9697,-3.9697,-3.9697,-3.9697,-3.9697,-3.9672,-3.9697,-3.9697,-3.9697,-4.0121,-4.1119,-4.1538,-4.2511,-4.472,-4.5252,-4.5598,-4.6491,-4.6107,-4.5913,-4.6682,-4.6255,-4.5913,-4.7062,-4.7148,-4.7309,-4.7191,-4.7206,-4.7264,-4.7204,-4.7189,-4.7025,-3.0664,-3.0547,-3.0137,-2.9806,-2.9669,-3.0792,-3.1514,-3.1957,-3.3127,-3.3541,-3.3399,-3.329,-3.281,-3.2126,-3.2459,-3.3499,-3.5171,-3.6213,-3.7645,-3.9283,-3.9433,-3.9559,-3.9697,-3.9697,-3.9697,-3.9685,-3.9572,-3.9509,-3.9496,-3.9358,-3.8944,-3.8341,-3.7877,-3.7136,-3.6081,-3.6948,-3.7826,-3.8705,-3.922,-3.9145,-3.8417,-3.8153,-3.7349,-3.5922,-3.5805,-3.5215,-3.4148,-3.4098,-3.3319,-3.1687,-3.1223,-3.0055,-2.8009,-2.595,0.0,0.0,0.0,0.0,0.0,0.0,0.0,0.0,0.0,-2.5322,-2.2535,0.0,-2.6465,0.0,-2.7005,-2.8398,-3.0004,-2.9955,0.0,0.0,-3.3006,-3.3583,-3.6307,-3.6245,-3.6606,-3.814,-3.868,-3.9032,-3.9459,-3.9609,-3.9697,-3.9697,-3.9697,-3.9697,-3.9697,-3.9697,-3.9697,-3.9697,-3.9697,-3.9788,-4.0173,-4.0982,-4.2133,-4.3693,-4.3975,-4.4069,-4.4363,-4.5024,-4.5494,-4.5883,-4.6447,-4.6931,-4.7251,-4.7309,-4.7309,-4.7309,-4.7309,-4.7309,-4.7309,-4.7309,-4.7264,-3.0898,-3.0947,-3.1604,-3.158,-3.1192,-3.1548,-3.2092,-3.2822,-3.3849,-3.4527,-3.4874,-3.4885,-3.4625,-3.4268,-3.4888,-3.5782,-3.6841,-3.7712,-3.8677,-3.9685,-3.9697,-3.9697,-3.9697,-3.9697,-3.9697,-3.9697,-3.9697,-3.9697,-3.9697,-3.9697,-3.9534,-3.9245,-3.9284,-3.8781,-3.7927,-3.8216,-3.8668,-3.9233,-3.9534,-3.9157,-3.8052,-3.8002,-3.7098,-3.5232,-3.537,-3.4743,-3.3206,-3.3395,-3.2867,-3.1486,-3.1173,-3.0394,-2.8913,-2.7268,-2.5724,0.0,0.0,0.0,0.0,0.0,0.0,0.0,0.0,0.0,0.0,0.0,-2.8097,-2.8298,-2.9528,-3.0997,-3.2612,-3.298,-3.3922,-3.5956,-3.5642,-3.6107,-3.8178,-3.7852,-3.7989,-3.9094,-3.9233,-3.9346,-3.9659,-3.9697,-3.9942,-4.0453,-4.0541,-4.0313,-3.9788,-3.9697,-3.9697,-3.9697,-3.9697,-3.9697,-3.9697,-4.0262,-4.1369,-4.3074,-4.349,-4.3834,-4.4978,-4.5267,-4.5553,-4.6107,-4.6403,-4.6638,-4.7164,-4.7309,-4.7309,-4.7309,-4.7309,-4.7309,-4.7309,-4.7309,-4.7309,-3.0898,-3.1005,-3.2254,-3.2804,-3.2747,-3.1662,-3.215,-3.3687,-3.3845,-3.467,-3.5847,-3.5847,-3.5836,-3.5945,-3.7198,-3.7796,-3.7849,-3.9129,-3.9697,-3.9697,-3.9697,-3.9697,-3.9697,-3.9697,-3.9697,-3.9697,-3.9697,-3.9697,-3.9697,-3.9697,-3.9697,-3.9697,-3.9697,-3.9697,-3.9672,-3.922,-3.9207,-3.9685,-3.9697,-3.917,-3.814,-3.8052,-3.6985,-3.4919,-3.5119,-3.4304,-3.234,-3.2704,-3.2478,-3.1461,-3.1035,-3.0545,-2.9905,-2.8373,-2.6992,0.0,-2.487,0.0,0.0,0.0,0.0,0.0,0.0,0.0,0.0,-2.9314,-2.9966,-3.106,-3.2516,-3.4035,-3.5571,-3.6621,-3.7437,-3.8027,-3.8115,-3.8341,-3.8906,-3.902,-3.9157,-3.9634,-3.9697,-3.9749,-3.9981,-3.9942,-4.0415,-4.1604,-4.1838,-4.1505,-4.0503,-4.0364,-4.0364,-4.0173,-4.0019,-4.0032,-3.98,-3.9749,-4.0541,-4.2641,-4.317,-4.4116,-4.6166,-4.5928,-4.5734,-4.6638,-4.6314,-4.6166,-4.7121,-4.7309,-4.7309,-4.7309,-4.7309,-4.7309,-4.7309,-4.7309,-4.7309,-3.0898,-3.0937,-3.1218,-3.1334,-3.1392,-3.2311,-3.4236,-3.6757,-3.7914,-3.8582,-3.8868,-3.8868,-3.8868,-3.8856,-3.9141,-3.9297,-3.931,-3.9581,-3.9697,-3.9697,-3.9697,-3.9697,-3.9697,-3.9697,-3.9697,-3.9697,-3.9697,-3.9697,-3.9697,-3.9697,-3.9697,-3.9697,-3.9697,-3.9697,-3.9697,0.0,0.0,0.0,-3.9697,-3.9371,-3.873,-3.8253,-3.7174,-3.5408,-3.4625,0.0,-3.2261,-3.2315,-3.2077,-3.1449,-3.1712,0.0,0.0,0.0,0.0,0.0,0.0,0.0,0.0,0.0,0.0,0.0,-3.1235,-3.0696,-2.9804,-3.1662,-3.3232,-3.3853,-3.4638,-3.5567,-3.6747,-3.7048,-3.7588,-3.8567,-3.8705,-3.8982,-3.9459,-3.9534,-3.9584,-3.9672,-3.9697,-4.0134,-4.1082,-4.1219,-4.1739,-4.293,-4.3122,-4.3074,-4.2834,-4.2689,-4.2738,-4.2751,-4.1789,-4.0844,-3.9826,-3.9749,-4.0211,-4.1604,-4.1936,-4.2641,-4.4116,-4.5115,-4.5389,-4.5869,-4.6388,-4.6975,-4.7266,-4.7309,-4.7309,-4.7309,-4.7309,-4.7309,-4.7309,-4.7309,-4.7309,-3.0898,-3.0947,-3.172,-3.2379,0.0,-3.467,-3.6541,-3.8582,-3.8582,-3.9025,-3.9697,-3.9697,-3.9697,-3.9697,-3.9697,-3.9697,-3.9697,-3.9697,-3.9697,-3.9697,-3.9697,-3.9697,-3.9697,-3.9697,-3.9697,-3.9697,-3.9697,-3.9697,-3.9697,-3.9697,-3.9697,-3.9697,-3.9697,-3.9697,-3.9697,-3.9697,-3.9697,-3.9697,-3.9697,-3.9433,-3.8881,-3.8304,-3.7224,-3.5558,-3.4751,0.0,0.0,0.0,0.0,0.0,0.0,0.0,0.0,0.0,0.0,-2.9352,-2.9302,-2.9428,-2.9716,-3.0507,-3.1562,-3.293,-3.3796,-3.3684,-3.2328,-3.3759,-3.5052,-3.5868,-3.6445,-3.7111,-3.7914,-3.8253,-3.8655,-3.9207,-3.9283,-3.9396,-3.9647,-3.9697,-3.9942,-4.0554,-4.0642,-4.1132,-4.2363,-4.2544,-4.3061,-4.4195,-4.4456,-4.4642,-4.5115,-4.4256,-4.349,-4.3442,-4.2412,-4.1406,-4.073,-4.0032,-4.0402,-4.1985,-4.2558,-4.3313,-4.507,-4.5928,-4.6358,-4.6403,-4.6873,-4.7309,-4.7309,-4.7309,-4.7309,-4.7309,-4.7309,-4.7309,-4.7309,-4.7309,-4.7309,-3.1441,-3.1777,-3.2975,-3.4191,-3.5398,-3.6865,-3.8348,-3.9581,0.0,0.0,0.0,-3.9697,-3.9697,-3.9697,-3.9697,-3.9697,-3.9697,-3.9697,-3.9697,-3.9697,-3.9697,-3.9697,-3.9697,-3.9697,-3.9697,-3.9697,-3.9697,-3.9697,-3.9697,-3.9697,-3.9697,-3.9697,-3.9697,-3.9697,-3.9697,-3.9697,-3.9697,-3.9697,-3.9697,-3.9471,-3.907,-3.8454,-3.7412,-3.5821,-3.5169,-3.4079,-3.2591,-3.2503,-3.2303,-3.1863,-3.1926,-3.1926,-3.1838,-3.1825,-3.1788,-3.1712,-3.2202,-3.2503,-3.2528,-3.3131,-3.3746,-3.4299,-3.5713,-3.6128,-3.509,-3.5571,-3.6348,-3.74,-3.7889,-3.8391,-3.8969,-3.9408,-3.9697,-3.9697,-3.9697,-3.9697,-3.9697,-3.9697,-4.0173,-4.1319,-4.1555,-4.2168,-4.3585,-4.3834,-4.4317,-4.5403,-4.5734,-4.6062,-4.6785,-4.5584,-4.4163,-4.3551,-4.2689,-4.1838,-4.1182,-4.0415,-4.0743,-4.293,-4.3442,-4.4396,-4.6491,-4.7309,-4.7309,-4.7207,-4.7309,-4.7309,-4.7309,-4.7309,-4.7309,-4.7309,-4.7309,-4.7309,-4.7309,-4.7309,-4.7309,-3.3529,-3.4692,-3.4914,-3.5123,-3.5398,-3.6865,-3.836,-3.9633,-3.9465,-3.953,-3.9697,-3.9697,-3.9697,-3.9697,-3.9697,-3.9697,-3.9697,-3.9697,-3.9697,-3.9697,-3.9697,-3.9697,-3.9697,-3.9697,-3.9697,-3.9697,-3.9697,-3.9697,-3.9697,-3.9697,-3.9697,-3.9697,-3.9697,-3.9697,-3.9697,-3.9697,-3.9697,-3.9697,-3.9697,-3.9647,-3.9572,-3.9032,-3.8178,-3.6998,-3.5922,-3.4889,-3.3721,-3.3658,-3.3633,-3.3571,-3.3997,-3.4048,-3.3571,-3.352,-3.3332,-3.2948,-3.3357,-3.3671,-3.3684,-3.458,-3.5429,-3.604,-3.6671,-3.6797,-3.6279,-3.7073,-3.7939,-3.8567,-3.8693,-3.8969,-3.9496,-3.9647,-3.9697,-3.9697,-3.9697,-3.9697,-3.9697,-3.9697,-4.0224,-4.1505,-4.1604,-4.2606,-4.4688,-4.5115,-4.5584,-4.6668,-4.6829,-4.7077,-4.7164,-4.7019,-4.5838,-4.4069,-4.3347,-4.2315,-4.0743,-3.989,-4.0794,-4.3074,-4.349,-4.4349,-4.6873,-4.7309,-4.7309,-4.7309,-4.7309,-4.7309,-4.7309,-4.7309,-4.7309,-4.7309,-4.7309,-4.7309,-4.7309,-4.7279,-4.7264,-3.4979,-3.53,-3.5288,-3.5781,-3.6595,-3.8084,-3.9077,-3.9697,-3.9697,-3.9697,-3.9697,-3.9697,-3.9697,-3.9697,-3.9697,-3.9697,-3.9697,-3.9697,-3.9697,-3.9697,-3.9697,-3.9697,-3.9697,-3.9697,-3.9697,-3.9697,-3.9697,-3.9697,-3.9697,-3.9697,-3.9697,-3.9697,-3.9697,-3.9697,-3.9697,-3.9697,-3.9697,-3.9697,-3.9697,-3.9697,-3.9672,-3.9208,-3.8668,-3.809,-3.6734,-3.5768,-3.5299,-3.4663,-3.4349,-3.4336,-3.4575,-3.4613,-3.4361,-3.4349,-3.4236,-3.401,-3.4487,-3.4743,-3.4743,-3.5542,-3.6219,-3.6772,-3.7312,-3.7676,-3.7775,-3.8178,-3.8718,-3.9258,-3.932,-3.9421,-3.9659,-3.9697,-3.9697,-3.9697,-3.9697,-3.9697,-3.9697,-3.9697,-4.0516,-4.2217,-4.2655,-4.3646,-4.6121,-4.6432,-4.658,-4.7222,-4.7309,-4.7309,-4.7266,-4.6682,-4.5913,-4.472,-4.3975,-4.2772,-4.1019,-4.0121,-4.0844,-4.3122,-4.349,-4.4535,-4.6741,-4.7309,-4.7309,-4.7309,-4.7309,-4.7309,-4.7309,-4.7309,-4.7309,-4.7309,-4.7309,-4.7309,-4.7294,-4.7055,-4.6785,-3.658,-3.6455,-3.6317,-3.6942,-3.8072,-3.9193,-3.9697,-3.9697,-3.9697,-3.9697,-3.9697,-3.9697,-3.9697,-3.9697,-3.9697,-3.9697,-3.9697,-3.9697,-3.9697,-3.9697,-3.9697,-3.9697,-3.9697,-3.9697,-3.9697,-3.9697,-3.9697,-3.9697,-3.9697,-3.9697,-3.9697,-3.9697,-3.9697,-3.9697,-3.9697,-3.9697,-3.9697,-3.9697,-3.9697,-3.9697,-3.9685,-3.927,-3.9007,-3.8793,-3.7674,-3.6857,-3.6581,-3.573,-3.5215,-3.5102,-3.509,-3.509,-3.509,-3.509,-3.509,-3.5127,-3.5491,-3.5746,-3.5884,-3.6307,-3.6832,-3.7337,-3.7889,-3.8391,-3.8806,-3.8994,-3.922,-3.9622,-3.9672,-3.9685,-3.9697,-3.9697,-3.9697,-3.9697,-3.9697,-3.9697,-3.9697,-3.9697,-4.0706,-4.2978,-4.349,-4.4349,-4.6211,-4.6873,-4.6785,-4.677,-4.6873,-4.6931,-4.7077,-4.6211,-4.5403,-4.478,-4.3882,-4.2558,-4.1369,-4.0364,-4.0844,-4.3061,-4.349,-4.4674,-4.6491,-4.7309,-4.7309,-4.7309,-4.7309,-4.7309,-4.7309,-4.7309,-4.7309,-4.7309,-4.7309,-4.7309,-4.7294,-4.6758,-4.6339,-3.8803,-3.9863,-3.9365,-3.9362,-3.9465,-3.9633,-3.9697,-3.9697,-3.9697,-3.9697,-3.9697,-3.9697,-3.9697,-3.9697,-3.9697,-3.9697,-3.9697,-3.9697,-3.9697,-3.9697,-3.9697,-3.9697,-3.9697,-3.9697,-3.9697,-3.9697,-3.9697,-3.9697,-3.9697,-3.9697,-3.9697,-3.9697,-3.9697,-3.9697,-3.9697,-3.9697,-3.9697,-3.9697,-3.9697,-3.9697,-3.9697,-3.9647,-3.9383,-3.8932,-3.8781,-3.8202,-3.7199,-3.701,-3.6709,-3.6304,-3.6241,-3.6241,-3.6229,-3.6241,-3.6241,-3.6241,-3.6292,-3.6543,-3.696,-3.7086,-3.7349,-3.7889,-3.8442,-3.8793,-3.8906,-3.932,-3.9622,-3.9697,-3.9697,-3.9697,-3.9697,-3.9697,-3.9697,-3.9697,-3.9697,-3.9697,-3.9697,-3.9697,-4.0693,-4.3218,-4.3585,-4.4069,-4.5539,-4.5928,-4.5779,-4.5958,-4.6062,-4.6344,-4.6975,-4.6062,-4.4886,-4.3834,-4.2655,-4.1419,-4.0326,-3.989,-4.0895,-4.2965,-4.3551,-4.4734,-4.6491,-4.7309,-4.7309,-4.7309,-4.7309,-4.7309,-4.7309,-4.7309,-4.7309,-4.7309,-4.7309,-4.7309,-4.7234,-4.6726,-4.6264,-4.0189,-3.9618,-4.0006,-3.9986,-3.9722,-3.9697,-3.9697,-3.9697,-3.9697,-3.9697,-3.9697,-3.9697,-3.9697,-3.9697,-3.9697,-3.9697,-3.9697,-3.9697,-3.9697,-3.9697,-3.9697,-3.9697,-3.9697,-3.9697,-3.9697,-3.9697,-3.9697,-3.9697,-3.9697,-3.9697,-3.9697,-3.9697,-3.9697,-3.9697,-3.9697,-3.9697,-3.9697,-3.9697,-3.9697,-3.9697,-3.9697,-3.9697,-3.9584,-3.9358,-3.9044,-3.873,-3.8203,-3.7864,-3.7412,-3.6945,-3.6847,-3.6744,-3.6417,-3.6417,-3.6417,-3.6417,-3.6671,-3.6996,-3.7174,-3.7487,-3.7914,-3.8492,-3.873,-3.9057,-3.9333,-3.9572,-3.9697,-3.9697,-3.9697,-3.9697,-3.9697,-3.9697,-3.9697,-3.9697,-3.9697,-3.9697,-3.9697,-4.0415,-4.1555,-4.3252,-4.4163,-4.507,-4.6211,-4.6535,-4.655,-4.6535,-4.6491,-4.6741,-4.7121,-4.5598,-4.421,-4.3504,-4.2412,-4.1182,-4.0083,-4.0402,-4.1555,-4.3026,-4.4163,-4.5403,-4.6682,-4.7309,-4.7309,-4.7309,-4.7309,-4.7309,-4.7309,-4.7309,-4.7309,-4.7309,-4.7309,-4.7309,-4.7309,-4.6456,-4.5858,-4.0924,-3.9952,-4.0351,-4.0287,-3.991,-3.976,-3.9697,-3.9697,-3.9697,-3.9697,-3.9697,-3.9697,-3.9697,-3.9697,-3.9697,-3.9697,-3.9697,-3.9697,-3.9697,-3.9697,-3.9697,-3.9697,-3.9697,-3.9697,-3.9697,-3.9697,-3.9697,-3.9697,-3.9697,-3.9697,-3.9697,-3.9697,-3.9697,-3.9697,-3.9697,-3.9697,-3.9697,-3.9697,-3.9697,-3.9697,-3.9697,-3.9697,-3.9697,-3.9659,-3.9308,-3.9032,-3.8868,-3.8467,-3.7977,-3.7437,-3.7274,-3.701,-3.6669,-3.6493,-3.648,-3.6669,-3.7111,-3.7487,-3.7626,-3.8027,-3.8504,-3.9019,-3.9094,-3.9258,-3.9597,-3.9697,-3.9697,-3.9697,-3.9697,-3.9697,-3.9697,-3.9697,-3.9697,-3.9685,-3.9942,-4.0224,-4.0326,-4.1356,-4.2593,-4.3882,-4.478,-4.5734,-4.655,-4.6682,-4.6594,-4.6594,-4.6975,-4.7309,-4.7164,-4.5779,-4.4595,-4.4069,-4.3218,-4.2084,-4.0693,-4.1306,-4.2544,-4.3679,-4.4872,-4.5734,-4.696,-4.7251,-4.7309,-4.7309,-4.7309,-4.7309,-4.7309,-4.7309,-4.7309,-4.7309,-4.7309,-4.7309,-4.7309,-4.6307,-4.5663,-4.0731,-4.1781,-4.0965,-4.0526,-4.0438,-3.9936,-3.971,-3.9697,-3.9697,-3.9697,-3.9697,-3.9697,-3.9697,-3.9697,-3.9697,-3.9697,-3.9697,-3.9697,-3.9697,-3.9697,-3.9697,-3.9697,-3.9697,-3.9697,-3.9697,-3.9697,-3.9697,-3.9697,-3.9697,-3.9697,-3.9697,-3.9697,-3.9697,-3.9697,-3.9697,-3.9697,-3.9697,-3.9697,-3.9697,-3.9697,-3.9697,-3.9697,-3.9697,-3.9685,-3.9659,-3.9396,-3.8969,-3.8906,-3.8567,-3.8002,-3.7538,-3.7211,-3.7111,-3.6732,-3.6707,-3.7123,-3.7663,-3.8216,-3.8693,-3.8781,-3.9044,-3.9521,-3.9597,-3.9659,-3.9685,-3.9697,-3.9697,-3.9697,-3.9697,-3.9697,-3.9839,-3.9929,-3.9878,-3.9942,-4.0844,-4.1419,-4.1555,-4.2641,-4.3915,-4.4918,-4.5403,-4.5719,-4.5689,-4.5494,-4.5779,-4.5973,-4.6638,-4.7309,-4.7266,-4.7019,-4.6299,-4.5494,-4.4932,-4.4363,-4.2266,-4.2593,-4.3834,-4.478,-4.5343,-4.5883,-4.6682,-4.7309,-4.7309,-4.7309,-4.7309,-4.7309,-4.7309,-4.7309,-4.7309,-4.7309,-4.7309,-4.7309,-4.7309,-4.6741,-4.6037,-4.1991,-4.2187,-4.1731,-4.1178,-4.0513,-4.03,-4.0023,-3.971,-3.9697,-3.9697,-3.9697,-3.9697,-3.9697,-3.9697,-3.9697,-3.9697,-3.9697,-3.9697,-3.9697,-3.9697,-3.9697,-3.9697,-3.9697,-3.9697,-3.9697,-3.9697,-3.9697,-3.9697,-3.9697,-3.9697,-3.9697,-3.9697,-3.9697,-3.9697,-3.9697,-3.9697,-3.9697,-3.9697,-3.9697,-3.9697,-3.9697,-3.9697,-3.9697,-3.9697,-3.9697,-3.9597,-3.9408,-3.9396,-3.9132,-3.858,-3.8366,-3.809,-3.7739,-3.7525,-3.7487,-3.7726,-3.8241,-3.8655,-3.8919,-3.9207,-3.9471,-3.9659,-3.9697,-3.9697,-3.9697,-3.9697,-3.9697,-3.9697,-3.9697,-3.9981,-4.0743,-4.0932,-4.0945,-4.1082,-4.2035,-4.2834,-4.3026,-4.3929,-4.4918,-4.5403,-4.6018,-4.6594,-4.655,-4.6594,-4.6638,-4.6638,-4.7019,-4.7266,-4.7164,-4.6682,-4.6018,-4.5598,-4.5403,-4.5101,-4.441,-4.4303,-4.4964,-4.5434,-4.5958,-4.6535,-4.7266,-4.7309,-4.7309,-4.7309,-4.7309,-4.7309,-4.7309,-4.7309,-4.7309,-4.7309,-4.7309,-4.7309,-4.7309,-4.6711,-4.6007,-4.2773,-4.2476,-4.2288,-4.1743,-4.104,-4.0651,-4.0312,-3.9948,-3.9772,-3.9697,-3.9697,-3.9697,-3.9697,-3.9697,-3.9697,-3.9697,-3.9697,-3.9697,-3.9697,-3.9697,-3.9697,-3.9697,-3.9697,-3.9697,-3.9697,-3.9697,-3.9697,-3.9697,-3.9697,-3.9697,-3.9697,-3.9697,-3.9697,-3.9697,-3.9697,-3.9697,-3.9697,-3.9697,-3.9697,-3.9697,-3.9697,-3.9697,-3.9697,-3.9697,-3.9697,-3.9697,-3.9697,-3.9697,-3.9546,-3.917,-3.902,-3.8605,-3.809,-3.8191,-3.8291,-3.8341,-3.8818,-3.9132,-3.917,-3.9484,-3.9685,-3.9697,-3.9697,-3.9697,-3.9697,-3.9697,-3.9697,-3.9697,-3.9697,-4.0224,-4.1319,-4.1936,-4.2217,-4.2363,-4.3361,-4.4055,-4.4149,-4.5252,-4.5928,-4.6166,-4.6741,-4.7207,-4.7309,-4.7266,-4.7266,-4.7309,-4.7309,-4.7309,-4.7164,-4.6638,-4.6018,-4.6018,-4.6121,-4.6107,-4.5824,-4.5869,-4.5973,-4.6344,-4.6388,-4.7019,-4.7309,-4.7309,-4.7309,-4.7309,-4.7309,-4.7309,-4.7309,-4.7309,-4.7309,-4.7309,-4.7309,-4.7309,-4.707,-4.6696,-4.6037,-4.303,-4.2861,-4.2451,-4.2213,-4.1936,-4.099,-4.0538,-4.0388,-3.9923,-3.9697,-3.9697,-3.9697,-3.9697,-3.9697,-3.9697,-3.9697,-3.9697,-3.9697,-3.9697,-3.9697,-3.9697,-3.9697,-3.9697,-3.9697,-3.9697,-3.9697,-3.9697,-3.9697,-3.9697,-3.9697,-3.9697,-3.9697,-3.9697,-3.9697,-3.9697,-3.9697,-3.9697,-3.9697,-3.9697,-3.9697,-3.9697,-3.9697,-3.9697,-3.9697,-3.9697,-3.9697,-3.9697,-3.9697,-3.9685,-3.9597,-3.9182,-3.863,-3.8304,-3.8592,-3.8932,-3.8994,-3.9371,-3.9634,-3.9659,-3.9672,-3.9697,-3.9697,-3.9697,-3.9697,-3.9697,-3.9697,-3.9697,-3.9697,-3.9749,-4.0224,-4.1604,-4.2689,-4.3409,-4.3646,-4.4642,-4.5343,-4.5629,-4.6491,-4.7266,-4.7164,-4.7266,-4.7309,-4.7309,-4.7309,-4.7309,-4.7309,-4.7309,-4.7309,-4.7309,-4.7121,-4.7207,-4.7164,-4.6975,-4.6829,-4.7062,-4.7266,-4.7222,-4.7222,-4.7121,-4.7309,-4.7309,-4.7309,-4.7309,-4.7309,-4.7309,-4.7309,-4.7309,-4.7309,-4.7309,-4.7309,-4.7309,-4.7294,-4.707,-4.6741,-4.6157,-4.2986,-4.2961,-4.2798,-4.2552,-4.215,-4.1392,-4.0824,-4.0475,-3.9936,-3.9697,-3.9697,-3.9697,-3.9697,-3.9697,-3.9697,-3.9697,-3.9697,-3.9697,-3.9697,-3.9697,-3.9697,-3.9697,-3.9697,-3.9697,-3.9697,-3.9697,-3.9697,-3.9697,-3.9697,-3.9697,-3.9697,-3.9697,-3.9697,-3.9697,-3.9697,-3.9697,-3.9697,-3.9697,-3.9697,-3.9697,-3.9697,-3.9697,-3.9697,-3.9697,-3.9697,-3.9697,-3.9697,-3.9697,-3.9697,-3.9697,-3.9521,-3.9346,-3.9245,-3.9346,-3.9446,-3.9459,-3.9572,-3.9697,-3.9697,-3.9697,-3.9697,-3.9697,-3.9697,-3.9697,-3.9697,-3.9697,-3.9697,-3.9697,-3.9749,-4.0503,-4.2461,-4.3218,-4.3882,-4.4734,-4.5928,-4.6638,-4.6638,-4.7004,-4.7266,-4.7309,-4.7309,-4.7309,-4.7309,-4.7309,-4.7309,-4.7309,-4.7309,-4.7309,-4.7309,-4.7309,-4.7309,-4.7309,-4.7309,-4.7309,-4.7309,-4.7309,-4.7309,-4.7309,-4.7309,-4.7309,-4.7309,-4.7309,-4.7309,-4.7309,-4.7309,-4.7309,-4.7309,-4.7309,-4.7309,-4.7309,-4.7309,-4.7264,-4.7204,-4.6815,-4.6277,-4.2986,-4.2986,-4.2986,-4.2785,-4.2464,-4.1869,-4.1317,-4.0789,-4.0237,-3.9885,-3.9735,-3.9697,-3.9697,-3.9697,-3.9697,-3.9697,-3.9697,-3.9697,-3.9697,-3.9697,-3.9697,-3.9697,-3.9697,-3.9697,-3.9697,-3.9697,-3.9697,-3.9697,-3.9697,-3.9697,-3.9697,-3.9697,-3.9697,-3.9697,-3.9697,-3.9697,-3.9697,-3.9697,-3.9697,-3.9697,-3.9697,-3.9697,-3.9697,-3.9697,-3.9697,-3.9697,-3.9697,-3.9697,-3.9697,-3.9697,-3.9697,-3.9697,-3.9697,-3.9685,-3.9697,-3.9697,-3.9697,-3.9697,-3.9697,-3.9697,-3.9697,-3.9697,-3.9697,-3.9697,-3.9697,-3.9697,-3.9697,-3.9697,-3.9697,-4.0743,-4.293,-4.349,-4.4242,-4.5973,-4.6741,-4.7266,-4.7309,-4.7309,-4.7309,-4.7309,-4.7309,-4.7309,-4.7309,-4.7309,-4.7309,-4.7309,-4.7309,-4.7309,-4.7309,-4.7309,-4.7309,-4.7309,-4.7309,-4.7309,-4.7309,-4.7309,-4.7309,-4.7309,-4.7309,-4.7309,-4.7309,-4.7309,-4.7309,-4.7309,-4.7309,-4.7309,-4.7309,-4.7309,-4.7309,-4.7309,-4.7309,-4.7279,-4.7204,-4.6935,-4.6396,-4.2986,-4.2986,-4.2986,-4.2961,-4.2848,-4.2283,-4.1706,-4.1213,-4.0639,-4.0111,-3.976,-3.9697,-3.9697,-3.9697,-3.9697,-3.9697,-3.9697,-3.9697,-3.9697,-3.9697,-3.9697,-3.9697,-3.9697,-3.9697,-3.9697,-3.9697,-3.9697,-3.9697,-3.9697,-3.9697,-3.9697,-3.9697,-3.9697,-3.9697,-3.9697,-3.9697,-3.9697,-3.9697,-3.9697,-3.9697,-3.9697,-3.9697,-3.9697,-3.9697,-3.9697,-3.9697,-3.9697,-3.9697,-3.9697,-3.9697,-3.9697,-3.9697,-3.9697,-3.9697,-3.9697,-3.9697,-3.9697,-3.9697,-3.9697,-3.9697,-3.9697,-3.9697,-3.9697,-3.9697,-3.9697,-3.9697,-3.9697,-3.9697,-3.9697,-4.0743,-4.2821,-4.349,-4.4627,-4.6726,-4.7266,-4.7309,-4.7309,-4.7309,-4.7309,-4.7309,-4.7309,-4.7309,-4.7309,-4.7309,-4.7309,-4.7309,-4.7309,-4.7309,-4.7309,-4.7309,-4.7309,-4.7309,-4.7309,-4.7309,-4.7309,-4.7309,-4.7309,-4.7164,-4.7062,-4.6873,-4.7121,-4.7222,-4.7309,-4.7309,-4.7309,-4.7309,-4.7309,-4.7309,-4.7309,-4.7309,-4.7309,-4.7309,-4.716,-4.689,-4.6396,-4.2986,-4.2986,-4.2986,-4.2986,-4.2836,-4.1969,-4.1492,-4.1163,-4.0325,-3.9898,-3.971,-3.9697,-3.9697,-3.9697,-3.9697,-3.9697,-3.9697,-3.9697,-3.9697,-3.9697,-3.9697,-3.9697,-3.9697,-3.9697,-3.9697,-3.9697,-3.9697,-3.9697,-3.9697,-3.9697,-3.9697,-3.9697,-3.9697,-3.9697,-3.9697,-3.9697,-3.9697,-3.9697,-3.9697,-3.9697,-3.9697,-3.9697,-3.9697,-3.9697,-3.9697,-3.9697,-3.9697,-3.9697,-3.9697,-3.9697,-3.9697,-3.9697,-3.9697,-3.9697,-3.9697,-3.9697,-3.9697,-3.9697,-3.9697,-3.9697,-3.9697,-3.9697,-3.9697,-3.9697,-3.9697,-3.9697,-3.9697,-3.9697,-3.9736,-4.0743,-4.2882,-4.3585,-4.4826,-4.6726,-4.7309,-4.7309,-4.7309,-4.7309,-4.7309,-4.7309,-4.7309,-4.7309,-4.7309,-4.7309,-4.7309,-4.7309,-4.7309,-4.7309,-4.7309,-4.7309,-4.7309,-4.7309,-4.7309,-4.7309,-4.7309,-4.7309,-4.7251,-4.7062,-4.6726,-4.6196,-4.6638,-4.7077,-4.7207,-4.7309,-4.7309,-4.7309,-4.7309,-4.7309,-4.7309,-4.7309,-4.7309,-4.7294,-4.713,-4.6875,-4.6292,-4.2986,-4.2986,-4.2986,-4.2986,-4.2873,-4.2057,-4.1568,-4.115,-4.0438,-3.9885,-3.9747,-3.9697,-3.9697,-3.9697,-3.9697,-3.9697,-3.9697,-3.9697,-3.9697,-3.9697,-3.9697,-3.9697,-3.9697,-3.9697,-3.9697,-3.9697,-3.9697,-3.9697,-3.9697,-3.9697,-3.9697,-3.9697,-3.9697,-3.9697,-3.9697,-3.9697,-3.9697,-3.9697,-3.9697,-3.9697,-3.9697,-3.9697,-3.9697,-3.9697,-3.9697,-3.9697,-3.9697,-3.9697,-3.9697,-3.9697,-3.9697,-3.9697,-3.9697,-3.9697,-3.9697,-3.9697,-3.9697,-3.9697,-3.9697,-3.9697,-3.9697,-3.9697,-3.9697,-3.9697,-3.9697,-3.9697,-3.9697,-3.9697,-4.0121,-4.1455,-4.3156,-4.4396,-4.5734,-4.7019,-4.7309,-4.7309,-4.7309,-4.7309,-4.7309,-4.7309,-4.7309,-4.7309,-4.7309,-4.7309,-4.7309,-4.7309,-4.7309,-4.7309,-4.7309,-4.7309,-4.7309,-4.7309,-4.7266,-4.7266,-4.6916,-4.677,-4.6211,-4.6107,-4.5539,-4.5101,-4.5343,-4.6018,-4.6506,-4.6594,-4.6975,-4.7309,-4.7309,-4.7309,-4.7309,-4.7309,-4.7309,-4.7279,-4.7145,-4.704,-4.6411,-4.2986,-4.2986,-4.2986,-4.2936,-4.2841,-4.2351,-4.1668,-4.1137,-4.0576,-4.0086,-3.9772,-3.9697,-3.9697,-3.9697,-3.9697,-3.9697,-3.9697,-3.9697,-3.9697,-3.9697,-3.9697,-3.9697,-3.9697,-3.9697,-3.9697,-3.9697,-3.9697,-3.9697,-3.9697,-3.9697,-3.9697,-3.9697,-3.9697,-3.9697,-3.9697,-3.9697,-3.9697,-3.9697,-3.9697,-3.9697,-3.9697,-3.9697,-3.9697,-3.9697,-3.9697,-3.9697,-3.9697,-3.9697,-3.9697,-3.9697,-3.9697,-3.9697,-3.9697,-3.9697,-3.9697,-3.9697,-3.9697,-3.9697,-3.9697,-3.9697,-3.9697,-3.9697,-3.9697,-3.9697,-3.9697,-3.9697,-3.9788,-4.0121,-4.0982,-4.2181,-4.3787,-4.5824,-4.6887,-4.7309,-4.7309,-4.7309,-4.7309,-4.7309,-4.7309,-4.7309,-4.7309,-4.7309,-4.7309,-4.7309,-4.7309,-4.7309,-4.7309,-4.7309,-4.7309,-4.7309,-4.7309,-4.7309,-4.7266,-4.7207,-4.6682,-4.6151,-4.5403,-4.478,-4.3975,-4.3456,-4.3313,-4.3975,-4.4978,-4.5598,-4.6211,-4.6829,-4.7309,-4.7309,-4.7309,-4.7309,-4.7309,-4.7309,-4.7279,-4.7219,-4.683,-4.2986,-4.2986,-4.2986,-4.2778,-4.2271,-4.1743,-4.1204,-4.0623,-4.0124,-3.9835,-3.971,-3.9697,-3.9697,-3.9697,-3.9697,-3.9697,-3.9697,-3.9697,-3.9697,-3.9697,-3.9697,-3.9697,-3.9697,-3.9697,-3.9697,-3.9697,-3.9697,-3.9697,-3.9697,-3.9697,-3.9697,-3.9697,-3.9697,-3.9697,-3.9697,-3.9697,-3.9697,-3.9697,-3.9697,-3.9697,-3.9697,-3.9697,-3.9697,-3.9697,-3.9697,-3.9697,-3.9697,-3.9697,-3.9697,-3.9697,-3.9788,-3.9981,-3.9749,-3.9697,-3.9697,-3.9697,-3.9697,-3.9697,-3.9697,-3.9697,-3.9697,-3.9697,-3.9697,-3.9697,-3.9697,-3.9788,-4.0211,-4.0882,-4.1505,-4.2834,-4.478,-4.6344,-4.7164,-4.7309,-4.7309,-4.7309,-4.7309,-4.7309,-4.7309,-4.7309,-4.7309,-4.7309,-4.7309,-4.7309,-4.7309,-4.7309,-4.7309,-4.7309,-4.7309,-4.7309,-4.7309,-4.7309,-4.6887,-4.6697,-4.6062,-4.5207,-4.3975,-4.3266,-4.2461,-4.1985,-4.1838,-4.2315,-4.3504,-4.4549,-4.5539,-4.6211,-4.7062,-4.7309,-4.7309,-4.7309,-4.7309,-4.7309,-4.7309,-4.7309,-4.7249,-4.2986,-4.2949,-4.2753,-4.2476,-4.2099,-4.1304,-4.0789,-4.045,-3.9936,-3.9697,-3.9697,-3.9697,-3.9697,-3.9697,-3.9697,-3.9697,-3.9697,-3.9697,-3.9697,-3.9697,-3.9697,-3.9697,-3.9697,-3.9697,-3.9697,-3.9697,-3.9697,-3.9697,-3.9697,-3.9697,-3.9697,-3.9697,-3.9697,-3.9697,-3.9697,-3.9697,-3.9697,-3.9697,-3.9697,-3.9697,-3.9697,-3.9697,-3.9697,-3.9697,-3.9697,-3.9697,-3.9697,-4.0364,-4.0541,-4.073,-4.1069,-4.0844,-3.989,-3.9697,-3.9697,-3.9697,-3.9697,-3.9697,-3.9697,-3.9697,-3.9697,-3.9697,-3.9697,-3.9697,-3.9942,-4.0173,-4.0831,-4.1703,-4.2738,-4.4242,-4.6018,-4.6726,-4.7251,-4.7309,-4.7309,-4.7309,-4.7309,-4.7309,-4.7309,-4.7309,-4.7309,-4.7309,-4.7309,-4.7309,-4.7309,-4.7309,-4.7309,-4.7309,-4.7309,-4.7309,-4.7309,-4.7164,-4.6594,-4.6062,-4.5403,-4.421,-4.2509,-4.1703,-4.0945,-4.0655,-4.0503,-4.1269,-4.2217,-4.3504,-4.4932,-4.6107,-4.6873,-4.7062,-4.7309,-4.7309,-4.7309,-4.7309,-4.7309,-4.7309,-4.7264,-4.2924,-4.2879,-4.2401,-4.2125,-4.1823,-4.0915,-4.0463,-4.03,-3.9898,-3.9697,-3.9697,-3.9697,-3.9697,-3.9697,-3.9697,-3.9697,-3.9697,-3.9697,-3.9697,-3.9697,-3.9697,-3.9697,-3.9697,-3.9697,-3.9697,-3.9697,-3.9697,-3.9697,-3.9697,-3.9697,-3.9697,-3.9697,-3.9697,-3.9697,-3.9697,-3.9697,-3.9697,-3.9697,-3.9697,-3.9697,-3.9697,-3.9749,-3.9788,-4.0173,-4.0173,-4.0173,-4.0453,-4.1169,-4.1775,-4.1703,-4.2834,-4.207,-4.0706,-3.9981,-3.9788,-3.9788,-3.9697,-3.9697,-3.9697,-3.9697,-3.9697,-3.9697,-3.9697,-3.989,-4.0224,-4.0932,-4.1739,-4.293,-4.421,-4.5928,-4.7121,-4.7266,-4.7309,-4.7309,-4.7309,-4.7309,-4.7309,-4.7309,-4.7309,-4.7309,-4.7309,-4.7309,-4.7309,-4.7309,-4.7309,-4.7309,-4.7309,-4.7266,-4.7266,-4.7164,-4.7121,-4.6741,-4.6121,-4.4826,-4.4022,-4.293,-4.1269,-4.0794,-3.9942,-3.9839,-3.9839,-4.0844,-4.1985,-4.3122,-4.4456,-4.5629,-4.6638,-4.7164,-4.7309,-4.7309,-4.7309,-4.7309,-4.7309,-4.7309,-4.7264,-4.2766,-4.2351,-4.225,-4.1643,-4.084,-4.0576,-4.0249,-3.986,-3.9747,-3.9697,-3.9697,-3.9697,-3.9697,-3.9697,-3.9697,-3.9697,-3.9697,-3.9697,-3.9697,-3.9697,-3.9697,-3.9697,-3.9697,-3.9697,-3.9697,-3.9697,-3.9697,-3.9697,-3.9697,-3.9697,-3.9697,-3.9697,-3.9697,-3.9697,-3.9697,-3.9697,-3.9697,-3.9697,-3.9697,-3.9697,-3.9697,-3.9749,-4.0134,-4.0794,-4.0945,-4.1082,-4.1442,-4.2363,-4.2689,-4.1887,-4.2821,-4.2593,-4.1654,-4.1319,-4.0743,-3.9929,-3.9697,-3.9697,-3.9697,-3.98,-3.9749,-3.9697,-3.9942,-4.0465,-4.1082,-4.169,-4.2834,-4.4489,-4.5779,-4.7062,-4.7266,-4.7309,-4.7309,-4.7309,-4.7309,-4.7309,-4.7309,-4.7309,-4.7309,-4.7309,-4.7309,-4.7309,-4.7309,-4.7309,-4.7309,-4.7309,-4.7309,-4.7062,-4.6873,-4.6785,-4.6638,-4.6166,-4.5598,-4.3975,-4.2461,-4.1319,-4.0083,-4.0224,-3.9788,-3.9788,-4.0032,-4.0844,-4.1887,-4.3122,-4.4116,-4.5115,-4.6062,-4.7019,-4.7309,-4.7309,-4.7309,-4.7309,-4.7309,-4.7309,-4.7309,-4.1969,-4.1718,-4.143,-4.1015,-4.0526,-4.0199,-3.9948,-3.9722,-3.9697,-3.9697,-3.9697,-3.9697,-3.9697,-3.9697,-3.9697,-3.9697,-3.9697,-3.9697,-3.9697,-3.9697,-3.9697,-3.9697,-3.9697,-3.9697,-3.9697,-3.9697,-3.9697,-3.9697,-3.9697,-3.9697,-3.9697,-3.9697,-3.9697,-3.9697,-3.9697,-3.9697,-3.9697,-3.9697,-3.9697,-3.9697,-3.9697,-3.9697,-4.0121,-4.0554,-4.1319,-4.1555,-4.1972,-4.3585,-4.4163,-4.3975,-4.4812,-4.4256,-4.317,-4.2315,-4.1654,-4.0121,-3.9697,-3.9697,-3.989,-4.0224,-4.0743,-4.0794,-4.1182,-4.1887,-4.2606,-4.3313,-4.4363,-4.5883,-4.6682,-4.7309,-4.7309,-4.7309,-4.7309,-4.7309,-4.7309,-4.7309,-4.7309,-4.7309,-4.7266,-4.7207,-4.7207,-4.7222,-4.7309,-4.7309,-4.7309,-4.7309,-4.7309,-4.6916,-4.6491,-4.6151,-4.5869,-4.484,-4.4069,-4.2751,-4.1369,-4.0554,-3.9697,-3.9697,-3.9697,-3.9697,-4.0173,-4.0982,-4.2021,-4.3204,-4.4116,-4.5267,-4.6166,-4.7309,-4.7309,-4.7309,-4.7309,-4.7309,-4.7309,-4.7309,-4.7309,-4.1225,-4.1075,-4.0701,-4.045,-4.0287,-3.9898,-3.971,-3.9697,-3.9697,-3.9697,-3.9697,-3.9697,-3.9697,-3.9697,-3.9697,-3.9697,-3.9697,-3.9697,-3.9697,-3.9697,-3.9697,-3.9697,-3.9697,-3.9697,-3.9697,-3.9697,-3.9697,-3.9697,-3.9697,-3.9697,-3.9697,-3.9697,-3.9697,-3.9697,-3.9697,-3.9697,-3.9697,-3.9697,-3.9697,-3.9697,-3.9697,-3.9697,-4.007,-4.0465,-4.1455,-4.2168,-4.2834,-4.4642,-4.5403,-4.5494,-4.5824,-4.5734,-4.3929,-4.3266,-4.2021,-4.016,-3.9749,-3.9788,-4.0313,-4.0882,-4.1555,-4.1923,-4.2882,-4.3456,-4.4163,-4.4918,-4.6121,-4.7077,-4.7309,-4.7309,-4.7309,-4.7309,-4.7309,-4.7309,-4.7309,-4.7266,-4.7164,-4.7121,-4.696,-4.6975,-4.7019,-4.7077,-4.7121,-4.7309,-4.7309,-4.6975,-4.6931,-4.6358,-4.5869,-4.5147,-4.4535,-4.3313,-4.2266,-4.1219,-4.0415,-4.0224,-3.9697,-3.9697,-3.9697,-3.9697,-4.0313,-4.1082,-4.2266,-4.3585,-4.5115,-4.6211,-4.6931,-4.7309,-4.7309,-4.7309,-4.7309,-4.7309,-4.7309,-4.7309,-4.7309,-4.1,-4.0548,-4.0538,-4.0237,-3.9835,-3.9722,-3.9697,-3.9697,-3.9697,-3.9697,-3.9697,-3.9697,-3.9697,-3.9697,-3.9697,-3.9697,-3.9697,-3.9697,-3.9788,-3.9942,-3.98,-3.9788,-3.9749,-3.9697,-3.9697,-3.9697,-3.9697,-3.9697,-3.9697,-3.9697,-3.9697,-3.9697,-3.9697,-3.9697,-3.9697,-3.9697,-3.9697,-3.9697,-3.9697,-3.9697,-3.9697,-3.9697,-4.0844,-4.2217,-4.3061,-4.3585,-4.4503,-4.5973,-4.6447,-4.5644,-4.5598,-4.4932,-4.3598,-4.2363,-4.1219,-4.0173,-3.9788,-4.016,-4.1082,-4.1789,-4.2412,-4.3109,-4.3679,-4.4163,-4.5115,-4.6107,-4.6975,-4.7164,-4.7309,-4.7309,-4.7309,-4.7309,-4.7309,-4.7309,-4.7309,-4.7309,-4.7207,-4.6447,-4.6388,-4.6447,-4.6447,-4.6697,-4.6887,-4.7121,-4.7266,-4.6887,-4.6447,-4.5838,-4.4978,-4.4022,-4.3204,-4.1972,-4.1319,-4.0364,-4.0032,-3.9749,-3.9697,-3.9697,-3.9749,-3.9788,-4.0655,-4.1555,-4.2738,-4.4116,-4.5689,-4.6741,-4.7121,-4.7309,-4.7309,-4.7309,-4.7309,-4.7309,-4.7309,-4.7309,-4.7309,-4.0262,-4.0049,-4.0049,-3.9923,-3.971,-3.9697,-3.9697,-3.9697,-3.9697,-3.9697,-3.9697,-3.9697,-3.9697,-3.9697,-3.9697,-3.9697,-3.9697,-3.9788,-4.0173,-4.0415,-4.0224,-4.0121,-4.0453,-4.0083,-3.9697,-3.9697,-3.9697,-3.9697,-3.9697,-3.9697,-3.9697,-3.9697,-3.9697,-3.9697,-3.9697,-3.9697,-3.9697,-3.9697,-3.9697,-3.9697,-3.9697,-3.9839,-4.0605,-4.2412,-4.317,-4.421,-4.5403,-4.6594,-4.7077,-4.6358,-4.5913,-4.478,-4.3787,-4.293,-4.2119,-4.1032,-4.1555,-4.1789,-4.1789,-4.2917,-4.3834,-4.4549,-4.5161,-4.5958,-4.6535,-4.6887,-4.7309,-4.7309,-4.7309,-4.7309,-4.7309,-4.7309,-4.7309,-4.7309,-4.7309,-4.7164,-4.6916,-4.6062,-4.5629,-4.5734,-4.5838,-4.6077,-4.6447,-4.7019,-4.7207,-4.7019,-4.6211,-4.5207,-4.3834,-4.2217,-4.1455,-4.0693,-4.0262,-3.9839,-3.9788,-3.9697,-3.9697,-3.9697,-3.9788,-4.0121,-4.1082,-4.2133,-4.3409,-4.4688,-4.6121,-4.6887,-4.7222,-4.7309,-4.7309,-4.7309,-4.7309,-4.7309,-4.7309,-4.7309,-4.7309,-3.9697,-3.9697,-3.9697,-3.9697,-3.9697,-3.9697,-3.9697,-3.9697,-3.9697,-3.9697,-3.9697,-3.9697,-3.9697,-3.9839,-4.0083,-4.0313,-4.0262,-4.0503,-4.1169,-4.1419,-4.1032,-4.0844,-4.0844,-4.0364,-3.9697,-3.9697,-3.9697,-3.9697,-3.9697,-3.9697,-3.9697,-3.9697,-3.9697,-3.9697,-3.9697,-3.9697,-3.9697,-3.9697,-3.9697,-3.9697,-3.9749,-4.007,-4.0969,-4.2168,-4.3313,-4.4581,-4.5824,-4.6697,-4.7266,-4.7019,-4.5539,-4.4456,-4.4069,-4.317,-4.2689,-4.2266,-4.3074,-4.3504,-4.3504,-4.4149,-4.5358,-4.6062,-4.655,-4.6975,-4.7121,-4.7309,-4.7309,-4.7309,-4.7309,-4.7309,-4.7309,-4.7309,-4.7309,-4.7309,-4.7309,-4.7106,-4.6668,-4.5584,-4.4766,-4.4674,-4.4826,-4.5207,-4.5779,-4.6741,-4.7077,-4.7077,-4.6166,-4.4826,-4.317,-4.1406,-4.0794,-4.0351,-4.0019,-3.9839,-3.9788,-3.9788,-3.9749,-3.989,-3.9981,-4.0402,-4.1406,-4.2786,-4.4256,-4.5494,-4.655,-4.6975,-4.7309,-4.7309,-4.7309,-4.7309,-4.7309,-4.7309,-4.7309,-4.7309,-4.7309,-3.9697,-3.9697,-3.9697,-3.9697,-3.9697,-3.9697,-3.9697,-3.9697,-3.9697,-3.9697,-3.9697,-3.9697,-3.9697,-3.9981,-4.0743,-4.1269,-4.1455,-4.2703,-4.2978,-4.2738,-4.2168,-4.1604,-4.1319,-4.0554,-3.9788,-3.9697,-3.9697,-3.9697,-3.9697,-3.9697,-3.9697,-3.9697,-3.9697,-3.9697,-3.9697,-3.9697,-3.9697,-3.9697,-3.9697,-3.9697,-4.0032,-4.0743,-4.1936,-4.3204,-4.4535,-4.5824,-4.7062,-4.7266,-4.7309,-4.7207,-4.5358,-4.4549,-4.4535,-4.3504,-4.293,-4.3551,-4.4595,-4.4978,-4.5192,-4.5298,-4.5973,-4.6785,-4.7222,-4.7309,-4.7309,-4.7309,-4.7309,-4.7309,-4.7309,-4.7309,-4.7309,-4.7309,-4.7309,-4.7309,-4.7222,-4.6975,-4.6196,-4.4674,-4.3962,-4.3726,-4.3962,-4.4503,-4.5494,-4.655,-4.7121,-4.7164,-4.6166,-4.484,-4.3347,-4.1838,-4.1169,-4.0642,-4.0262,-4.0019,-3.9981,-4.0032,-4.0262,-4.0503,-4.0655,-4.1082,-4.1752,-4.3266,-4.4964,-4.5764,-4.6682,-4.7019,-4.7309,-4.7309,-4.7309,-4.7309,-4.7309,-4.7309,-4.7309,-4.7309,-4.7309,-3.9697,-3.9697,-3.9697,-3.9697,-3.9697,-3.9697,-3.9697,-3.9697,-3.9697,-3.9697,-3.9697,-3.9697,-3.9697,-4.0083,-4.0982,-4.1604,-4.1802,-4.293,-4.3395,-4.3395,-4.2965,-4.2363,-4.1752,-4.1032,-4.0554,-3.989,-3.9697,-3.9697,-3.9697,-3.9697,-3.9697,-3.9697,-3.9697,-3.9697,-3.9697,-3.9697,-3.9697,-3.9697,-3.9697,-3.9697,-3.9981,-4.0932,-4.2217,-4.3504,-4.472,-4.6018,-4.7077,-4.7266,-4.7309,-4.6829,-4.5494,-4.5252,-4.5343,-4.421,-4.4116,-4.4674,-4.5824,-4.6344,-4.6447,-4.6506,-4.6829,-4.7019,-4.7309,-4.7309,-4.7309,-4.7309,-4.7309,-4.7309,-4.7309,-4.7309,-4.7309,-4.7309,-4.7309,-4.7309,-4.7164,-4.6887,-4.6018,-4.4581,-4.3915,-4.3962,-4.3929,-4.4116,-4.5312,-4.6506,-4.6975,-4.7207,-4.6018,-4.4886,-4.3585,-4.2689,-4.2168,-4.1739,-4.1406,-4.1256,-4.1269,-4.1069,-4.0831,-4.0982,-4.1169,-4.1838,-4.2461,-4.3929,-4.5403,-4.6151,-4.677,-4.7121,-4.7309,-4.7309,-4.7309,-4.7309,-4.7309,-4.7309,-4.7309,-4.7309,-4.7309,-3.9697,-3.9749,-4.0121,-4.0032,-3.9749,-3.9697,-3.9697,-3.9697,-3.9697,-3.9697,-3.9749,-4.0019,-4.0262,-4.0693,-4.2084,-4.2834,-4.3313,-4.4116,-4.4317,-4.4069,-4.3598,-4.2786,-4.1887,-4.1082,-4.0313,-3.9788,-3.9697,-3.9697,-3.9697,-3.9697,-3.9697,-3.9697,-3.9697,-3.9697,-3.9697,-3.9697,-3.9697,-3.9697,-4.0134,-4.0224,-4.0465,-4.2035,-4.3074,-4.4303,-4.5434,-4.6344,-4.7121,-4.7309,-4.7309,-4.6916,-4.6196,-4.5734,-4.5674,-4.5674,-4.5629,-4.6107,-4.6682,-4.7266,-4.7309,-4.7309,-4.7309,-4.7309,-4.7309,-4.7309,-4.7309,-4.7309,-4.7309,-4.7309,-4.7309,-4.7309,-4.7309,-4.7309,-4.7309,-4.7309,-4.7309,-4.7019,-4.6166,-4.5024,-4.4581,-4.4349,-4.4349,-4.4549,-4.5267,-4.6447,-4.7019,-4.7309,-4.6829,-4.5779,-4.4674,-4.3915,-4.3646,-4.3266,-4.2965,-4.2882,-4.2834,-4.2035,-4.1219,-4.0781,-4.1219,-4.2447,-4.3395,-4.4826,-4.5928,-4.6682,-4.7121,-4.7266,-4.7309,-4.7309,-4.7309,-4.7309,-4.7309,-4.7309,-4.7309,-4.7309,-4.7309,-3.9736,-3.9839,-4.1032,-4.0882,-3.9981,-3.9736,-3.9749,-3.9697,-3.9697,-3.98,-4.0032,-4.0945,-4.1505,-4.2021,-4.3787,-4.4595,-4.501,-4.6121,-4.6255,-4.5055,-4.421,-4.2978,-4.1703,-4.0743,-4.0262,-3.9839,-3.9697,-3.9697,-3.9697,-3.9697,-3.9697,-3.9697,-3.9697,-3.9839,-3.9749,-3.9749,-3.9749,-3.9942,-4.1082,-4.1468,-4.2035,-4.3693,-4.4688,-4.5252,-4.6255,-4.7062,-4.7207,-4.7309,-4.7309,-4.7106,-4.6344,-4.6211,-4.677,-4.6062,-4.6166,-4.7019,-4.7164,-4.7309,-4.7309,-4.7309,-4.7309,-4.7309,-4.7309,-4.7309,-4.7309,-4.7309,-4.7309,-4.7309,-4.7309,-4.7309,-4.7309,-4.7309,-4.7309,-4.7309,-4.7309,-4.7121,-4.6314,-4.5494,-4.501,-4.5055,-4.5252,-4.5403,-4.5838,-4.6403,-4.7019,-4.7309,-4.7309,-4.6638,-4.5539,-4.4964,-4.4642,-4.4688,-4.4396,-4.421,-4.3834,-4.2461,-4.1604,-4.1069,-4.1455,-4.2834,-4.421,-4.5584,-4.655,-4.7164,-4.7309,-4.7309,-4.7309,-4.7309,-4.7309,-4.7309,-4.7309,-4.7309,-4.7309,-4.7309,-4.7309,-4.0982,-4.1082,-4.2315,-4.2606,-4.2133,-4.1269,-4.0503,-3.9788,-3.9749,-4.0173,-4.0945,-4.1505,-4.2168,-4.3204,-4.4442,-4.5494,-4.5689,-4.6638,-4.6624,-4.5448,-4.4734,-4.3409,-4.2035,-4.0982,-4.0415,-3.989,-3.9697,-3.9697,-3.9697,-3.9697,-3.9697,-3.9697,-3.989,-4.0224,-4.0743,-4.1032,-4.1269,-4.2133,-4.2703,-4.2882,-4.3074,-4.4503,-4.5494,-4.5539,-4.6697,-4.7266,-4.7309,-4.7309,-4.7309,-4.7309,-4.6594,-4.6829,-4.7251,-4.6594,-4.6829,-4.7266,-4.7309,-4.7309,-4.7309,-4.7309,-4.7309,-4.7309,-4.7309,-4.7309,-4.7309,-4.7309,-4.7309,-4.7309,-4.7309,-4.7309,-4.7309,-4.7309,-4.7309,-4.7309,-4.7309,-4.7266,-4.6697,-4.5883,-4.5358,-4.5883,-4.6211,-4.6255,-4.655,-4.6638,-4.7121,-4.7309,-4.7309,-4.7164,-4.6344,-4.5719,-4.5298,-4.5779,-4.5779,-4.5494,-4.4886,-4.3551,-4.3026,-4.293,-4.2978,-4.3551,-4.4978,-4.6211,-4.6829,-4.7266,-4.7309,-4.7309,-4.7309,-4.7309,-4.7309,-4.7309,-4.7309,-4.7309,-4.7309,-4.7309,-4.7309,-4.2266,-4.2412,-4.3646,-4.3882,-4.3409,-4.2593,-4.1739,-4.1082,-4.1019,-4.1505,-4.2217,-4.2703,-4.3347,-4.4396,-4.5389,-4.6062,-4.6151,-4.6814,-4.6624,-4.5448,-4.484,-4.3361,-4.2084,-4.1182,-4.0313,-3.9839,-3.9697,-3.9697,-3.9697,-3.9697,-3.9697,-3.9788,-4.0173,-4.1182,-4.1739,-4.2021,-4.2084,-4.3026,-4.3646,-4.4163,-4.4535,-4.5298,-4.6121,-4.6358,-4.6829,-4.7309,-4.7309,-4.7309,-4.7309,-4.7309,-4.7309,-4.7309,-4.7309,-4.7309,-4.7309,-4.7309,-4.7309,-4.7309,-4.7309,-4.7309,-4.7309,-4.7309,-4.7309,-4.7309,-4.7309,-4.7309,-4.7309,-4.7309,-4.7309,-4.7309,-4.7309,-4.7309,-4.7309,-4.7309,-4.7309,-4.7266,-4.7121,-4.6255,-4.6121,-4.6682,-4.6829,-4.6931,-4.7019,-4.7121,-4.7266,-4.7309,-4.7309,-4.7121,-4.6829,-4.6166,-4.5479,-4.5644,-4.5928,-4.5494,-4.5115,-4.4642,-4.441,-4.4688,-4.4595,-4.4456,-4.5161,-4.6314,-4.6829,-4.7309,-4.7309,-4.7309,-4.7309,-4.7309,-4.7251,-4.7266,-4.7309,-4.7309,-4.7309,-4.7309,-4.7309,-4.3551,-4.374,-4.4918,-4.478,-4.3773,-4.3787,-4.3598,-4.3409,-4.3409,-4.3409,-4.3598,-4.4688,-4.5161,-4.5629,-4.6726,-4.7121,-4.7077,-4.7266,-4.6638,-4.5598,-4.478,-4.3218,-4.1887,-4.0794,-4.0275,-3.989,-3.9697,-3.9697,-3.9697,-3.9697,-3.9697,-4.0134,-4.0895,-4.2133,-4.2738,-4.2978,-4.3122,-4.427,-4.5024,-4.5403,-4.5719,-4.6447,-4.6873,-4.7077,-4.7207,-4.7309,-4.7309,-4.7309,-4.7309,-4.7309,-4.7309,-4.7309,-4.7309,-4.7309,-4.7309,-4.7309,-4.7309,-4.7309,-4.7309,-4.7309,-4.7309,-4.7309,-4.7309,-4.7309,-4.7309,-4.7309,-4.7309,-4.7309,-4.7309,-4.7309,-4.7309,-4.7309,-4.7309,-4.7309,-4.7309,-4.7309,-4.7309,-4.7077,-4.7077,-4.7207,-4.7164,-4.7222,-4.7207,-4.7309,-4.7309,-4.7309,-4.7164,-4.6594,-4.6358,-4.5928,-4.5252,-4.4734,-4.4978,-4.5024,-4.4886,-4.5115,-4.5298,-4.5448,-4.5252,-4.5161,-4.5883,-4.6403,-4.6931,-4.7309,-4.7309,-4.7164,-4.6785,-4.6873,-4.7193,-4.7164,-4.7019,-4.7309,-4.7309,-4.7309,-4.7309,-4.4872,-4.4978,-4.6211,-4.655,-4.6255,-4.6211,-4.5221,-4.3632,-4.349,-4.3929,-4.4872,-4.5221,-4.5928,-4.677,-4.7164,-4.7266,-4.7309,-4.7266,-4.7164,-4.6255,-4.507,-4.4069,-4.2834,-4.1505,-4.0655,-3.9929,-3.9697,-3.9697,-3.9697,-3.9697,-4.0326,-4.1082,-4.1505,-4.2882,-4.3975,-4.4503,-4.5115,-4.5689,-4.6358,-4.6491,-4.658,-4.7077,-4.7309,-4.7309,-4.7309,-4.7309,-4.7309,-4.7309,-4.7309,-4.7309,-4.7309,-4.7309,-4.7309,-4.7309,-4.7309,-4.7309,-4.7309,-4.7309,-4.7309,-4.7309,-4.7309,-4.7309,-4.7309,-4.7309,-4.7309,-4.7309,-4.7309,-4.7309,-4.7309,-4.7309,-4.7309,-4.7309,-4.7309,-4.7309,-4.7309,-4.7309,-4.7309,-4.7309,-4.7309,-4.7309,-4.7309,-4.7309,-4.7309,-4.7309,-4.7309,-4.7309,-4.7062,-4.6447,-4.5928,-4.5598,-4.5024,-4.4456,-4.478,-4.507,-4.5598,-4.5928,-4.6062,-4.6151,-4.5973,-4.5928,-4.6506,-4.6975,-4.7207,-4.7309,-4.7309,-4.6697,-4.5928,-4.6344,-4.7149,-4.6668,-4.6535,-4.6975,-4.7309,-4.7309,-4.7309,-4.6166,-4.6255,-4.6975,-4.7309,-4.7309,-4.7309,-4.6299,-4.5115,-4.4978,-4.5494,-4.6121,-4.6196,-4.6594,-4.7121,-4.7266,-4.7309,-4.7309,-4.7309,-4.7222,-4.6829,-4.5644,-4.4317,-4.317,-4.1838,-4.0465,-3.989,-3.9697,-3.9697,-3.9697,-3.9839,-4.0313,-4.1455,-4.1936,-4.3551,-4.4872,-4.5719,-4.6432,-4.6873,-4.7222,-4.7309,-4.7309,-4.7309,-4.7309,-4.7309,-4.7309,-4.7309,-4.7309,-4.7309,-4.7309,-4.7309,-4.7309,-4.7309,-4.7309,-4.7309,-4.7309,-4.7309,-4.7309,-4.7309,-4.7309,-4.7309,-4.7309,-4.7309,-4.7309,-4.7309,-4.7309,-4.7309,-4.7309,-4.7309,-4.7309,-4.7309,-4.7309,-4.7309,-4.7309,-4.7309,-4.7309,-4.7309,-4.7309,-4.7309,-4.7309,-4.7309,-4.7309,-4.7309,-4.7309,-4.7309,-4.7309,-4.7309,-4.7077,-4.655,-4.6018,-4.5494,-4.484,-4.4163,-4.4826,-4.5448,-4.6018,-4.6491,-4.6638,-4.6726,-4.6682,-4.6785,-4.7266,-4.7309,-4.7309,-4.7309,-4.7309,-4.6697,-4.6121,-4.6638,-4.7149,-4.6624,-4.6432,-4.6975,-4.7309,-4.7309,-4.7309,-4.7266,-4.7266,-4.7309,-4.7309,-4.7309,-4.7309,-4.7207,-4.7309,-4.7077,-4.7266,-4.7207,-4.7266,-4.7207,-4.7309,-4.7309,-4.7309,-4.7309,-4.7309,-4.7309,-4.7266,-4.5674,-4.4442,-4.3361,-4.1406,-4.0895,-4.0173,-3.9749,-3.9697,-3.9736,-4.007,-4.0844,-4.1752,-4.3074,-4.4489,-4.5734,-4.658,-4.7062,-4.7164,-4.7309,-4.7309,-4.7309,-4.7309,-4.7309,-4.7309,-4.7309,-4.7309,-4.7309,-4.7309,-4.7309,-4.7309,-4.7309,-4.7309,-4.7309,-4.7309,-4.7309,-4.7309,-4.7309,-4.7309,-4.7309,-4.7309,-4.7309,-4.7309,-4.7309,-4.7309,-4.7309,-4.7309,-4.7309,-4.7309,-4.7309,-4.7309,-4.7309,-4.7309,-4.7309,-4.7309,-4.7309,-4.7309,-4.7309,-4.7309,-4.7309,-4.7309,-4.7309,-4.7309,-4.7309,-4.7309,-4.7309,-4.7309,-4.7164,-4.6697,-4.6358,-4.5838,-4.5161,-4.441,-4.5312,-4.6077,-4.6255,-4.6697,-4.7077,-4.7164,-4.7121,-4.7164,-4.7266,-4.7309,-4.7309,-4.7309,-4.7309,-4.7077,-4.6829,-4.7062,-4.7062,-4.6682,-4.6682,-4.7121,-4.7309,-4.7309,-4.7309,-4.7309,-4.7309,-4.7309,-4.7309,-4.7309,-4.7309,-4.7309,-4.7309,-4.7309,-4.7309,-4.7309,-4.7309,-4.7309,-4.7309,-4.7309,-4.7309,-4.7309,-4.7309,-4.7309,-4.7222,-4.6211,-4.5161,-4.4688,-4.2834,-4.1936,-4.1019,-4.0415,-4.0032,-4.0262,-4.0844,-4.1789,-4.3026,-4.421,-4.5403,-4.655,-4.7251,-4.7309,-4.7309,-4.7309,-4.7309,-4.7309,-4.7309,-4.7309,-4.7309,-4.7309,-4.7309,-4.7309,-4.7309,-4.7309,-4.7309,-4.7309,-4.7309,-4.7309,-4.7309,-4.7309,-4.7309,-4.7309,-4.7309,-4.7309,-4.7309,-4.7309,-4.7309,-4.7309,-4.7309,-4.7309,-4.7309,-4.7309,-4.7309,-4.7309,-4.7309,-4.7309,-4.7309,-4.7309,-4.7309,-4.7309,-4.7309,-4.7309,-4.7309,-4.7309,-4.7309,-4.7309,-4.7309,-4.7309,-4.7309,-4.7309,-4.7309,-4.7309,-4.7121,-4.7077,-4.6682,-4.6107,-4.5629,-4.6299,-4.6829,-4.6829,-4.6829,-4.7164,-4.7309,-4.7222,-4.7266,-4.7309,-4.7309,-4.7309,-4.7309,-4.7266,-4.7077,-4.6975,-4.6975,-4.6873,-4.6682,-4.6829,-4.7207,-4.7309,-4.7309,-4.7309,-4.7309,-4.7309,-4.7309,-4.7309,-4.7309,-4.7309,-4.7309,-4.7309,-4.7309,-4.7309,-4.7309,-4.7309,-4.7309,-4.7309,-4.7309,-4.7309,-4.7309,-4.7309,-4.7309,-4.7266,-4.6785,-4.5928,-4.4978,-4.3787,-4.2978,-4.2021,-4.1789,-4.1555,-4.1369,-4.1985,-4.3074,-4.421,-4.5267,-4.6062,-4.7164,-4.7309,-4.7309,-4.7309,-4.7309,-4.7309,-4.7309,-4.7309,-4.7309,-4.7309,-4.7309,-4.7309,-4.7309,-4.7309,-4.7309,-4.7309,-4.7309,-4.7309,-4.7309,-4.7309,-4.7309,-4.7309,-4.7309,-4.7309,-4.7309,-4.7309,-4.7309,-4.7309,-4.7309,-4.7309,-4.7309,-4.7309,-4.7309,-4.7309,-4.7309,-4.7309,-4.7309,-4.7309,-4.7309,-4.7309,-4.7309,-4.7309,-4.7309,-4.7309,-4.7309,-4.7309,-4.7309,-4.7309,-4.7309,-4.7309,-4.7309,-4.7309,-4.7309,-4.7309,-4.7309,-4.7309,-4.677,-4.658,-4.7019,-4.7222,-4.7121,-4.7121,-4.7266,-4.7309,-4.7309,-4.7309,-4.7309,-4.7309,-4.7309,-4.7309,-4.7266,-4.7121,-4.7019,-4.7062,-4.7019,-4.6975,-4.7077,-4.7309,-4.7309,-4.7309,-4.7309,-4.7309,-4.7309,-4.7309,-4.7309,-4.7309,-4.7309,-4.7309,-4.7309,-4.7309,-4.7309,-4.7309,-4.7309,-4.7309,-4.7309,-4.7309,-4.7309,-4.7309,-4.7309,-4.7309,-4.7019,-4.6344,-4.6211,-4.5267,-4.3693,-4.3361,-4.3218,-4.3074,-4.3074,-4.3074,-4.3598,-4.4256,-4.5252,-4.5779,-4.6211,-4.6975,-4.7309,-4.7309,-4.7309,-4.7309,-4.7309,-4.7309,-4.7309,-4.7309,-4.7309,-4.7309,-4.7309,-4.7309,-4.7309,-4.7309,-4.7309,-4.7309,-4.7309,-4.7309,-4.7309,-4.7309,-4.7309,-4.7309,-4.7309,-4.7309,-4.7309,-4.7309,-4.7309,-4.7309,-4.7309,-4.7309,-4.7309,-4.7309,-4.7309,-4.7309,-4.7309,-4.7309,-4.7309,-4.7309,-4.7309,-4.7309,-4.7309,-4.7309,-4.7309,-4.7309,-4.7309,-4.7309,-4.7309,-4.7309,-4.7309,-4.7309,-4.7309,-4.7309,-4.7309,-4.7309,-4.7309,-4.7062,-4.6916,-4.7164,-4.7266,-4.7309,-4.7309,-4.7309,-4.7309,-4.7309,-4.7309,-4.7309,-4.7309,-4.7309,-4.7309,-4.7222,-4.7164,-4.7164,-4.7207,-4.7207,-4.7164,-4.7207,-4.7309,-4.7309,-4.7309,-4.7309,-4.7309,-4.7309,-4.7309,-4.7309,-4.7309,-4.7309,-4.7309,-4.7309,-4.7309,-4.7309,-4.7309,-4.7309,-4.7309,-4.7309,-4.7309,-4.7309,-4.7309,-4.7309,-4.7309,-4.7121,-4.6829,-4.6873,-4.6403,-4.507,-4.427,-4.3975,-4.3773,-4.3632,-4.4303,-4.4826,-4.5101,-4.5539,-4.6594,-4.6975,-4.7121,-4.7309,-4.7309,-4.7309,-4.7309,-4.7309,-4.7309,-4.7309,-4.7309,-4.7309,-4.7309,-4.7309,-4.7309,-4.7309,-4.7309,-4.7309,-4.7309,-4.7309,-4.7309,-4.7309,-4.7309,-4.7309,-4.7309,-4.7309,-4.7309,-4.7309,-4.7309,-4.7309,-4.7309,-4.7309,-4.7309,-4.7309,-4.7309,-4.7309,-4.7309,-4.7309,-4.7309,-4.7309,-4.7309,-4.7309,-4.7309,-4.7309,-4.7309,-4.7309,-4.7309,-4.7309,-4.7309,-4.7309,-4.7309,-4.7309,-4.7309,-4.7309,-4.7309,-4.7309,-4.7309,-4.7309,-4.7309,-4.7309,-4.7309,-4.7309,-4.7309,-4.7309,-4.7309,-4.7309,-4.7309,-4.7309,-4.7309,-4.7309,-4.7309,-4.7309,-4.7309,-4.7266,-4.7309,-4.7309,-4.7309,-4.7266,-4.7266,-4.7309,-4.7309,-4.7309,-4.7309]},{"header":{"parameterUnit":"m.s-1","parameterCategory":1,"la1":31.0,"la2":29.5877,"lo1":-88.7671,"lo2":-86.6584,"dy":0.0162,"dx":0.0185,"nx":115,"ny":88,"refTime":"2024-05-26T12:00:00:Z","depth":0,"parameterNumber":3,"parameterNumberName":"V-component_of_WINDS"},"data":[0.0,0.0,0.0,0.0,0.0,0.0,0.0,0.0,0.0,0.0,0.0,0.0,0.0,0.0,0.0,0.0,0.0,0.0,0.0,0.0,0.0,0.0,0.0,0.0,0.0,0.0,0.0,0.0,0.0,0.0,0.0,0.0,0.0,0.0,0.0,0.0,0.0,0.0,0.0,0.0,0.0,0.0,0.0,0.0,0.0,0.0,0.0,0.0,0.0,0.0,0.0,0.0,0.0,0.0,0.0,0.0,0.0,0.0,0.0,0.0,0.0,0.0,0.0,0.0,0.0,0.0,0.0,0.0,0.0,0.0,0.0,0.0,0.0,0.0,0.0,0.0,0.0,0.0,0.0,0.0,0.0,0.0,0.0,0.0,0.0,0.0,0.0,0.0,0.0,0.0,0.0,0.0,0.0,0.0,0.0,0.0,0.0,0.0,0.0,0.0,0.0,0.0,0.0,0.0,0.0,0.0,0.0,0.0,0.0,0.0,0.0,0.0,0.0,0.0,0.0,0.0,0.0,0.0,0.0,0.0,0.0,0.0,0.0,0.0,0.0,0.0,0.0,0.0,0.0,0.0,0.0,0.0,0.0,0.0,0.0,0.0,0.0,0.0,0.0,0.0,0.0,0.0,0.0,0.0,0.0,0.0,0.0,0.0,0.0,0.0,0.0,0.0,0.0,0.0,0.0,0.0,0.0,0.0,0.0,0.0,0.0,0.0,0.0,0.0,0.0,0.0,0.0,0.0,0.0,0.0,0.0,0.0,0.0,0.0,0.0,0.0,0.0,0.0,0.0,0.0,0.0,0.0,0.0,0.0,0.0,0.0,0.0,0.0,0.0,0.0,0.0,0.0,0.0,0.0,0.0,0.0,0.0,0.0,0.0,0.0,0.0,0.0,0.0,0.0,0.0,0.0,0.0,0.0,0.0,0.0,0.0,0.0,0.0,0.0,0.0,0.0,0.0,0.0,0.0,0.0,0.0,0.0,0.0,0.0,0.0,0.0,0.0,0.0,0.0,0.0,0.0,0.0,0.0,0.0,0.0,0.0,0.0,0.0,0.0,0.0,0.0,0.0,0.0,0.0,0.0,0.0,0.0,0.0,0.0,0.0,0.0,0.0,0.0,0.0,0.0,0.0,0.0,0.0,0.0,0.0,0.0,0.0,0.0,0.0,0.0,0.0,0.0,0.0,0.0,0.0,0.0,0.0,0.0,0.0,0.0,0.0,0.0,0.0,0.0,0.0,0.0,0.0,0.0,0.0,0.0,0.0,0.0,0.0,0.0,0.0,0.0,0.0,0.0,0.0,0.0,0.0,0.0,0.0,0.0,0.0,0.0,0.0,0.0,0.0,0.0,0.0,0.0,0.0,0.0,0.0,0.0,0.0,0.0,0.0,0.0,0.0,0.0,0.0,0.0,0.0,0.0,0.0,0.0,0.0,0.0,0.0,0.0,0.0,0.0,0.0,0.0,0.0,0.0,0.0,0.0,0.0,0.0,0.0,0.0,0.0,0.0,0.0,0.0,0.0,0.0,0.0,0.0,0.0,0.0,0.0,0.0,0.0,0.0,0.0,0.0,0.0,0.0,0.0,0.0,0.0,0.0,0.0,0.0,0.0,0.0,0.0,0.0,0.0,0.0,0.0,0.0,0.0,0.0,0.0,0.0,0.0,0.0,0.0,0.0,0.0,0.0,0.0,0.0,0.0,0.0,0.0,0.0,0.0,0.0,0.0,0.0,0.0,0.0,0.0,0.0,0.0,0.0,0.0,0.0,0.0,0.0,0.0,0.0,0.0,0.0,0.0,0.0,0.0,0.0,0.0,0.0,0.0,0.0,0.0,0.0,0.0,0.0,0.0,0.0,0.0,0.0,0.0,0.0,0.0,0.0,0.0,0.0,0.0,0.0,0.0,0.0,0.0,0.0,0.0,0.0,0.0,0.0,0.0,0.0,0.0,0.0,0.0,0.0,0.0,0.0,0.0,0.0,0.0,0.0,0.0,0.0,0.0,0.0,0.0,0.0,0.0,0.0,0.0,0.0,0.0,0.0,0.0,0.0,0.0,0.0,0.0,0.0,0.0,0.0,0.0,0.0,0.0,0.0,0.0,0.0,0.0,0.0,0.0,0.0,0.0,0.0,0.0,0.0,0.0,0.0,0.0,0.0,0.0,0.0,0.0,0.0,0.0,0.0,0.0,0.0,0.0,0.0,0.0,0.0,0.0,0.0,0.0,0.0,0.0,0.0,0.0,0.0,0.0,0.0,0.0,0.0,0.0,0.0,0.0,0.0,0.0,0.0,0.0,0.0,0.0,0.0,0.0,0.0,0.0,0.0,0.0,0.0,0.0,0.0,0.0,0.0,0.0,0.0,0.0,0.0,0.0,0.0,0.0,0.0,0.0,0.0,0.0,0.0,0.0,0.0,0.0,0.0,0.0,0.0,0.0,0.0,0.0,0.0,0.0,0.0,0.0,0.0,0.0,0.0,0.0,0.0,0.0,0.0,0.0,0.0,0.0,0.0,0.0,0.0,0.0,0.0,0.0,0.0,0.0,0.0,0.0,0.0,0.0,0.0,0.0,0.0,0.0,0.0,0.0,0.0,0.0,0.0,0.0,0.0,0.0,0.0,0.0,0.0,0.0,0.0,0.0,0.0,0.0,0.0,0.0,0.0,0.0,0.0,0.0,0.0,0.0,0.0,0.0,0.0,0.0,0.0,0.0,0.0,0.0,0.0,0.0,0.0,0.0,0.0,0.0,0.0,0.0,0.0,0.0,0.0,0.0,0.0,0.0,0.0,0.0,0.0,0.0,0.0,0.0,0.0,0.0,0.0,0.0,0.0,0.0,0.0,0.0,0.0,0.0,0.0,0.0,0.0,0.0,0.0,0.0,0.0,0.0,0.0,0.0,0.0,0.0,0.0,0.0,0.0,0.0,0.0,0.0,0.0,0.0,0.0,0.0,0.0,0.0,0.0,0.0,0.0,0.0,0.0,0.0,0.0,0.0,0.0,0.0,0.0,0.0,0.0,0.0,0.0,0.0,0.0,0.0,0.0,0.0,0.0,0.0,0.0,0.0,0.0,0.0,0.0,0.0,0.0,0.0,0.0,0.0,0.0,0.0,0.0,0.0,0.0,0.0,0.0,0.0,0.0,0.0,0.0,0.0,0.0,0.0,0.0,0.0,0.0,0.0,0.0,0.0,0.0,0.0,0.0,0.0,0.0,0.0,0.0,0.0,0.0,0.0,0.0,0.0,0.0,0.0,0.0,0.0,0.0,0.0,0.0,0.0,0.0,0.0,0.0,0.0,0.0,0.0,0.0,0.0,0.0,0.0,0.0,0.0,0.0,0.0,0.0,0.0,0.0,0.0,0.0,0.0,0.0,0.0,0.0,0.0,0.0,0.0,0.0,0.0,0.0,0.0,0.0,0.0,0.0,0.0,0.0,0.0,0.0,0.0,0.0,0.0,0.0,0.0,0.0,0.0,0.0,0.0,0.0,0.0,0.0,0.0,0.0,0.0,0.0,0.0,0.0,0.0,0.0,0.0,0.0,0.0,0.0,0.0,0.0,0.0,0.0,0.0,0.0,0.0,0.0,0.0,0.0,0.0,0.0,0.0,0.0,0.0,0.0,0.0,0.0,0.0,0.0,0.0,0.0,0.0,0.0,0.0,0.0,0.0,0.0,0.0,0.0,0.0,0.0,0.0,0.0,0.0,0.0,0.0,0.0,0.0,0.0,0.0,0.0,0.0,0.0,0.0,0.0,0.0,0.0,0.0,0.0,0.0,0.0,0.0,0.0,0.0,0.0,0.0,0.0,0.0,0.0,0.0,0.0,0.0,0.0,0.0,0.0,0.0,0.0,0.0,0.0,0.0,0.0,0.0,0.0,0.0,0.0,0.0,0.0,0.0,0.0,0.0,0.0,0.0,0.0,0.0,0.0,0.0,0.0,0.0,0.0,0.0,0.0,0.0,0.0,0.0,0.0,0.0,0.0,0.0,0.0,0.0,0.0,0.0,0.0,0.0,0.0,0.0,0.0,0.0,0.0,0.0,0.0,0.0,0.0,0.0,0.0,0.0,0.0,0.0,0.0,0.0,0.0,0.0,0.0,0.0,0.0,0.0,0.0,0.0,0.0,0.0,0.0,0.0,0.0,0.0,0.0,0.0,0.0,0.0,0.0,0.0,0.0,0.0,0.0,0.0,0.0,0.0,0.0,0.0,0.0,0.0,0.0,0.0,0.0,0.0,0.0,0.0,0.0,0.0,0.0,0.0,0.0,0.0,0.0,0.0,-2.2327,0.0,0.0,0.0,0.0,0.0,0.0,0.0,0.0,0.0,0.0,0.0,0.0,0.0,0.0,0.0,0.0,0.0,0.0,0.0,0.0,0.0,0.0,0.0,0.0,0.0,0.0,0.0,0.0,0.0,0.0,0.0,0.0,0.0,0.0,0.0,0.0,0.0,0.0,0.0,0.0,0.0,0.0,0.0,0.0,0.0,0.0,0.0,0.0,0.0,0.0,0.0,0.0,0.0,0.0,0.0,0.0,0.0,0.0,0.0,0.0,0.0,0.0,0.0,0.0,0.0,0.0,0.0,0.0,0.0,0.0,0.0,0.0,0.0,0.0,0.0,0.0,0.0,0.0,0.0,0.0,0.0,0.0,0.0,0.0,0.0,0.0,0.0,0.0,0.0,0.0,0.0,0.0,0.0,0.0,0.0,0.0,0.0,0.0,0.0,0.0,0.0,0.0,0.0,0.0,0.0,0.0,0.0,0.0,0.0,0.0,-2.461,-2.3564,-2.334,-2.2729,-2.1666,0.0,0.0,0.0,0.0,0.0,0.0,0.0,0.0,0.0,0.0,0.0,0.0,0.0,0.0,0.0,0.0,0.0,0.0,0.0,0.0,0.0,0.0,0.0,0.0,0.0,0.0,0.0,0.0,0.0,0.0,0.0,0.0,0.0,0.0,0.0,0.0,0.0,0.0,0.0,0.0,0.0,0.0,0.0,0.0,0.0,0.0,0.0,0.0,0.0,0.0,0.0,0.0,0.0,0.0,0.0,0.0,0.0,0.0,0.0,0.0,0.0,0.0,0.0,0.0,0.0,0.0,0.0,0.0,0.0,0.0,0.0,0.0,0.0,0.0,0.0,0.0,0.0,0.0,0.0,0.0,0.0,0.0,0.0,0.0,0.0,0.0,0.0,0.0,0.0,0.0,0.0,0.0,0.0,0.0,0.0,0.0,0.0,0.0,0.0,0.0,0.0,0.0,0.0,0.0,0.0,0.0,0.0,0.0,0.0,0.0,0.0,0.0,-2.3851,-2.3218,-2.1636,0.0,0.0,0.0,0.0,0.0,0.0,0.0,0.0,0.0,0.0,0.0,0.0,0.0,0.0,0.0,0.0,0.0,0.0,0.0,0.0,0.0,0.0,0.0,0.0,0.0,0.0,0.0,0.0,0.0,0.0,0.0,0.0,0.0,0.0,0.0,0.0,0.0,0.0,0.0,0.0,0.0,0.0,0.0,0.0,0.0,0.0,0.0,0.0,0.0,0.0,0.0,0.0,0.0,0.0,0.0,0.0,0.0,0.0,0.0,0.0,0.0,0.0,0.0,0.0,0.0,0.0,0.0,0.0,0.0,0.0,0.0,0.0,0.0,0.0,0.0,0.0,0.0,0.0,0.0,0.0,0.0,0.0,0.0,0.0,0.0,0.0,0.0,0.0,0.0,0.0,0.0,0.0,0.0,0.0,0.0,0.0,0.0,0.0,0.0,0.0,0.0,0.0,0.0,0.0,0.0,0.0,0.0,0.0,0.0,0.0,-2.5124,-2.6191,-2.5391,0.0,-2.4001,0.0,0.0,0.0,0.0,0.0,0.0,0.0,0.0,0.0,0.0,0.0,0.0,0.0,0.0,0.0,0.0,0.0,0.0,0.0,0.0,0.0,0.0,0.0,0.0,0.0,0.0,0.0,0.0,0.0,0.0,0.0,0.0,0.0,0.0,0.0,0.0,0.0,0.0,0.0,0.0,0.0,0.0,0.0,0.0,0.0,0.0,0.0,0.0,0.0,0.0,0.0,0.0,0.0,0.0,0.0,0.0,0.0,0.0,0.0,0.0,0.0,0.0,0.0,0.0,0.0,0.0,0.0,0.0,0.0,0.0,0.0,0.0,0.0,0.0,0.0,0.0,0.0,0.0,0.0,0.0,0.0,0.0,0.0,0.0,0.0,0.0,0.0,0.0,0.0,0.0,0.0,0.0,0.0,0.0,0.0,0.0,0.0,0.0,0.0,0.0,0.0,0.0,0.0,0.0,0.0,0.0,0.0,0.0,0.0,0.0,-2.5383,-2.5148,-2.4344,-2.3846,0.0,0.0,0.0,0.0,0.0,0.0,0.0,0.0,0.0,0.0,0.0,0.0,0.0,0.0,0.0,0.0,0.0,0.0,0.0,0.0,0.0,0.0,0.0,0.0,0.0,0.0,0.0,0.0,0.0,0.0,0.0,0.0,0.0,0.0,0.0,0.0,0.0,0.0,0.0,0.0,0.0,0.0,0.0,0.0,0.0,0.0,0.0,0.0,0.0,0.0,0.0,0.0,0.0,0.0,0.0,0.0,0.0,0.0,0.0,0.0,0.0,0.0,0.0,0.0,0.0,0.0,0.0,0.0,0.0,0.0,0.0,0.0,0.0,0.0,0.0,0.0,0.0,0.0,0.0,0.0,0.0,0.0,0.0,0.0,0.0,0.0,0.0,0.0,0.0,0.0,0.0,0.0,0.0,0.0,0.0,0.0,0.0,0.0,0.0,0.0,0.0,0.0,0.0,0.0,0.0,0.0,0.0,0.0,0.0,0.0,-2.5303,-2.5437,-2.455,-2.3898,-2.3535,-2.3546,0.0,0.0,0.0,0.0,0.0,0.0,0.0,0.0,0.0,0.0,0.0,0.0,0.0,0.0,0.0,0.0,0.0,0.0,0.0,0.0,0.0,0.0,0.0,0.0,0.0,0.0,0.0,0.0,0.0,0.0,0.0,0.0,0.0,0.0,0.0,0.0,0.0,0.0,0.0,0.0,0.0,0.0,0.0,0.0,0.0,0.0,0.0,0.0,0.0,0.0,0.0,0.0,0.0,0.0,0.0,0.0,0.0,0.0,0.0,0.0,0.0,0.0,0.0,0.0,0.0,0.0,0.0,0.0,0.0,0.0,0.0,0.0,0.0,0.0,0.0,0.0,0.0,0.0,0.0,0.0,0.0,0.0,0.0,0.0,0.0,0.0,0.0,0.0,0.0,0.0,0.0,0.0,0.0,0.0,0.0,0.0,0.0,0.0,0.0,0.0,0.0,0.0,0.0,0.0,0.0,0.0,0.0,0.0,0.0,-2.5952,-2.5209,-2.5529,-2.5008,-2.4527,0.0,0.0,0.0,0.0,0.0,0.0,0.0,0.0,0.0,0.0,0.0,0.0,0.0,0.0,0.0,0.0,0.0,0.0,0.0,0.0,0.0,0.0,0.0,0.0,0.0,0.0,0.0,0.0,0.0,0.0,0.0,0.0,0.0,0.0,0.0,0.0,0.0,0.0,0.0,0.0,0.0,0.0,0.0,0.0,0.0,0.0,0.0,0.0,0.0,0.0,0.0,0.0,0.0,0.0,0.0,0.0,0.0,0.0,0.0,0.0,0.0,0.0,0.0,0.0,0.0,0.0,0.0,0.0,0.0,0.0,0.0,0.0,0.0,0.0,0.0,0.0,0.0,0.0,0.0,0.0,0.0,0.0,0.0,0.0,0.0,0.0,0.0,0.0,0.0,0.0,0.0,0.0,0.0,0.0,0.0,0.0,0.0,0.0,0.0,0.0,0.0,0.0,0.0,0.0,0.0,0.0,0.0,0.0,0.0,-2.3949,-2.3537,-2.4372,-2.6499,-2.4443,-2.3812,0.0,0.0,0.0,0.0,0.0,0.0,0.0,0.0,0.0,0.0,0.0,0.0,0.0,0.0,0.0,0.0,0.0,0.0,0.0,0.0,0.0,0.0,0.0,0.0,0.0,0.0,0.0,0.0,0.0,0.0,0.0,0.0,0.0,0.0,0.0,0.0,0.0,0.0,0.0,0.0,0.0,0.0,0.0,0.0,0.0,0.0,0.0,0.0,0.0,0.0,0.0,0.0,0.0,0.0,0.0,0.0,0.0,0.0,0.0,0.0,0.0,0.0,0.0,0.0,0.0,0.0,0.0,0.0,0.0,0.0,0.0,0.0,0.0,0.0,0.0,0.0,0.0,0.0,0.0,0.0,0.0,0.0,0.0,0.0,0.0,0.0,0.0,0.0,0.0,0.0,0.0,0.0,0.0,0.0,0.0,0.0,0.0,0.0,0.0,0.0,0.0,0.0,0.0,0.0,0.0,0.0,0.0,0.0,0.0,-2.3013,0.0,-2.4757,0.0,-2.4318,-2.3531,0.0,0.0,0.0,0.0,0.0,0.0,0.0,0.0,0.0,0.0,0.0,0.0,0.0,0.0,0.0,0.0,0.0,0.0,0.0,0.0,0.0,0.0,0.0,0.0,0.0,0.0,0.0,0.0,0.0,0.0,0.0,0.0,0.0,0.0,0.0,0.0,0.0,0.0,0.0,0.0,0.0,0.0,0.0,0.0,0.0,0.0,0.0,0.0,0.0,0.0,0.0,0.0,0.0,0.0,0.0,0.0,0.0,0.0,0.0,0.0,0.0,0.0,0.0,0.0,0.0,0.0,0.0,0.0,0.0,0.0,0.0,0.0,0.0,0.0,0.0,0.0,0.0,0.0,0.0,0.0,0.0,0.0,0.0,0.0,0.0,0.0,0.0,0.0,0.0,0.0,0.0,0.0,0.0,0.0,0.0,0.0,0.0,0.0,0.0,0.0,0.0,0.0,0.0,0.0,0.0,0.0,0.0,0.0,-2.3766,-2.5686,-2.67,-2.651,-2.4978,-2.4879,-2.3887,0.0,0.0,0.0,0.0,0.0,0.0,0.0,0.0,0.0,0.0,0.0,0.0,0.0,0.0,0.0,0.0,0.0,0.0,0.0,0.0,0.0,0.0,0.0,0.0,0.0,0.0,0.0,0.0,0.0,0.0,0.0,0.0,0.0,0.0,0.0,0.0,0.0,0.0,0.0,0.0,0.0,0.0,0.0,0.0,0.0,0.0,0.0,0.0,0.0,0.0,0.0,0.0,0.0,0.0,0.0,0.0,0.0,0.0,0.0,0.0,0.0,0.0,0.0,0.0,0.0,0.0,0.0,0.0,0.0,0.0,0.0,0.0,0.0,0.0,0.0,0.0,0.0,0.0,0.0,0.0,0.0,0.0,0.0,0.0,0.0,0.0,0.0,0.0,0.0,0.0,0.0,0.0,0.0,0.0,0.0,0.0,0.0,0.0,0.0,0.0,0.0,0.0,0.0,0.0,0.0,0.0,0.0,0.0,0.0,-2.5766,-2.6944,-2.8103,-2.9002,-2.6738,-2.607,0.0,0.0,0.0,0.0,0.0,0.0,0.0,0.0,0.0,0.0,0.0,0.0,0.0,0.0,0.0,0.0,0.0,0.0,0.0,0.0,0.0,0.0,0.0,0.0,0.0,0.0,0.0,0.0,0.0,0.0,0.0,0.0,0.0,0.0,0.0,0.0,0.0,0.0,0.0,0.0,0.0,0.0,0.0,0.0,0.0,0.0,0.0,0.0,0.0,0.0,0.0,0.0,0.0,0.0,0.0,0.0,0.0,0.0,0.0,0.0,0.0,0.0,0.0,0.0,0.0,0.0,0.0,0.0,0.0,0.0,0.0,0.0,0.0,0.0,0.0,0.0,0.0,0.0,0.0,0.0,0.0,0.0,0.0,0.0,0.0,0.0,0.0,0.0,0.0,0.0,0.0,0.0,0.0,0.0,0.0,0.0,0.0,0.0,0.0,0.0,0.0,0.0,0.0,0.0,0.0,0.0,0.0,0.0,0.0,-2.9376,-2.9701,-3.0266,-3.1085,-2.8661,-2.7793,-2.8699,0.0,0.0,0.0,0.0,0.0,0.0,0.0,0.0,0.0,0.0,0.0,0.0,0.0,0.0,0.0,0.0,0.0,0.0,0.0,0.0,0.0,0.0,0.0,0.0,0.0,0.0,0.0,0.0,0.0,0.0,0.0,0.0,0.0,0.0,0.0,0.0,0.0,0.0,0.0,0.0,0.0,0.0,0.0,0.0,0.0,0.0,0.0,0.0,0.0,0.0,0.0,0.0,0.0,0.0,0.0,0.0,0.0,0.0,0.0,0.0,0.0,0.0,0.0,0.0,0.0,0.0,0.0,0.0,0.0,0.0,0.0,0.0,0.0,0.0,0.0,0.0,0.0,0.0,0.0,0.0,0.0,0.0,0.0,0.0,0.0,0.0,0.0,0.0,0.0,0.0,0.0,0.0,0.0,0.0,0.0,0.0,0.0,0.0,0.0,0.0,0.0,0.0,0.0,0.0,0.0,0.0,0.0,0.0,-3.5579,-3.4511,-3.317,-3.1629,-3.0769,-2.9235,0.0,0.0,0.0,0.0,0.0,0.0,0.0,0.0,0.0,0.0,0.0,0.0,0.0,0.0,0.0,0.0,0.0,0.0,0.0,0.0,0.0,0.0,0.0,0.0,0.0,0.0,0.0,0.0,0.0,0.0,0.0,0.0,0.0,0.0,0.0,0.0,0.0,0.0,0.0,0.0,0.0,0.0,0.0,0.0,0.0,0.0,0.0,0.0,0.0,0.0,0.0,0.0,0.0,0.0,0.0,0.0,0.0,0.0,0.0,0.0,0.0,0.0,0.0,0.0,0.0,0.0,0.0,0.0,0.0,0.0,0.0,0.0,0.0,0.0,0.0,0.0,0.0,0.0,0.0,0.0,0.0,0.0,0.0,0.0,0.0,0.0,0.0,0.0,0.0,0.0,0.0,0.0,0.0,0.0,0.0,0.0,0.0,0.0,0.0,0.0,0.0,0.0,0.0,0.0,0.0,0.0,0.0,0.0,0.0,-3.6757,-3.7532,-3.7458,-3.6497,-3.3971,-3.209,0.0,0.0,0.0,0.0,0.0,0.0,0.0,0.0,0.0,0.0,0.0,0.0,0.0,0.0,0.0,0.0,0.0,0.0,0.0,0.0,0.0,0.0,0.0,0.0,0.0,0.0,0.0,0.0,0.0,0.0,0.0,0.0,0.0,0.0,0.0,0.0,0.0,0.0,0.0,0.0,0.0,0.0,0.0,0.0,0.0,0.0,0.0,0.0,0.0,0.0,0.0,0.0,0.0,0.0,0.0,0.0,0.0,0.0,0.0,0.0,0.0,0.0,0.0,0.0,0.0,0.0,0.0,0.0,0.0,0.0,0.0,0.0,0.0,0.0,0.0,0.0,0.0,0.0,0.0,0.0,0.0,0.0,0.0,0.0,0.0,0.0,0.0,0.0,0.0,0.0,0.0,0.0,0.0,0.0,0.0,0.0,0.0,0.0,0.0,0.0,0.0,0.0,0.0,0.0,0.0,0.0,0.0,0.0,-3.5235,-3.8197,-3.9559,-4.0053,-3.9649,-3.7285,-3.5011,0.0,0.0,0.0,0.0,0.0,0.0,0.0,0.0,0.0,0.0,0.0,0.0,0.0,0.0,0.0,0.0,0.0,0.0,0.0,0.0,0.0,0.0,0.0,0.0,0.0,0.0,0.0,0.0,0.0,0.0,0.0,0.0,0.0,0.0,0.0,0.0,0.0,0.0,0.0,0.0,0.0,0.0,0.0,0.0,0.0,0.0,0.0,0.0,0.0,0.0,0.0,0.0,0.0,0.0,0.0,0.0,0.0,0.0,0.0,0.0,0.0,0.0,0.0,0.0,0.0,0.0,0.0,0.0,0.0,0.0,0.0,0.0,0.0,0.0,0.0,0.0,0.0,0.0,0.0,0.0,0.0,0.0,0.0,0.0,0.0,0.0,0.0,0.0,0.0,0.0,0.0,0.0,0.0,0.0,0.0,0.0,0.0,0.0,0.0,0.0,0.0,0.0,0.0,0.0,0.0,0.0,0.0,0.0,-3.6896,-3.9433,-4.0801,-4.1512,-4.1467,-4.0008,-3.7479,0.0,0.0,0.0,0.0,0.0,0.0,0.0,0.0,0.0,0.0,0.0,0.0,0.0,0.0,0.0,0.0,0.0,0.0,0.0,0.0,0.0,0.0,0.0,0.0,0.0,0.0,0.0,0.0,0.0,0.0,0.0,0.0,0.0,0.0,0.0,0.0,0.0,0.0,0.0,0.0,0.0,0.0,0.0,0.0,0.0,0.0,0.0,0.0,0.0,0.0,0.0,0.0,0.0,0.0,0.0,0.0,0.0,0.0,0.0,0.0,0.0,0.0,0.0,0.0,0.0,0.0,0.0,0.0,0.0,0.0,0.0,0.0,0.0,0.0,0.0,0.0,0.0,0.0,0.0,0.0,0.0,0.0,0.0,0.0,0.0,0.0,0.0,0.0,0.0,0.0,0.0,0.0,0.0,0.0,0.0,0.0,0.0,0.0,0.0,0.0,0.0,0.0,0.0,0.0,0.0,0.0,0.0,0.0,-3.7554,-4.0127,-4.1497,-4.2186,-4.2186,-3.9349,-3.6971,0.0,0.0,0.0,0.0,0.0,0.0,0.0,0.0,0.0,0.0,0.0,0.0,0.0,0.0,0.0,0.0,0.0,0.0,0.0,0.0,0.0,0.0,0.0,0.0,0.0,0.0,0.0,0.0,0.0,0.0,0.0,0.0,0.0,0.0,0.0,0.0,0.0,0.0,0.0,0.0,0.0,0.0,0.0,0.0,0.0,0.0,0.0,0.0,-3.0763,0.0,0.0,0.0,0.0,0.0,0.0,0.0,0.0,0.0,0.0,0.0,0.0,0.0,0.0,0.0,0.0,0.0,0.0,0.0,0.0,0.0,0.0,0.0,0.0,0.0,0.0,0.0,0.0,0.0,0.0,0.0,0.0,0.0,0.0,0.0,0.0,0.0,0.0,0.0,0.0,0.0,0.0,0.0,0.0,0.0,0.0,0.0,0.0,0.0,0.0,0.0,0.0,0.0,0.0,0.0,0.0,0.0,0.0,0.0,-3.8512,-4.0801,-4.2147,-4.2821,-4.2716,-4.0217,-3.7913,0.0,0.0,0.0,0.0,0.0,0.0,0.0,0.0,0.0,0.0,0.0,0.0,0.0,0.0,0.0,0.0,0.0,0.0,0.0,0.0,0.0,0.0,0.0,0.0,0.0,0.0,0.0,0.0,0.0,0.0,0.0,0.0,0.0,0.0,0.0,0.0,0.0,0.0,0.0,0.0,0.0,0.0,0.0,0.0,0.0,0.0,0.0,0.0,0.0,0.0,0.0,0.0,0.0,0.0,0.0,0.0,0.0,0.0,0.0,0.0,0.0,0.0,0.0,0.0,0.0,0.0,0.0,0.0,0.0,0.0,0.0,0.0,0.0,0.0,0.0,0.0,0.0,0.0,0.0,0.0,0.0,0.0,0.0,0.0,0.0,0.0,0.0,0.0,0.0,0.0,0.0,0.0,0.0,0.0,0.0,0.0,0.0,0.0,0.0,0.0,0.0,0.0,0.0,0.0,0.0,0.0,0.0,-3.6596,-3.9454,-4.1609,-4.2722,-4.3334,-4.3409,-4.1579,-3.932,-3.6731,0.0,0.0,0.0,0.0,0.0,0.0,0.0,0.0,0.0,0.0,0.0,0.0,0.0,0.0,0.0,0.0,0.0,0.0,0.0,0.0,0.0,0.0,0.0,0.0,0.0,0.0,0.0,0.0,0.0,0.0,0.0,0.0,0.0,0.0,0.0,0.0,0.0,0.0,-2.9071,-3.1285,0.0,0.0,0.0,0.0,0.0,0.0,0.0,0.0,-3.0603,0.0,0.0,0.0,0.0,0.0,0.0,0.0,0.0,0.0,0.0,0.0,0.0,0.0,0.0,0.0,0.0,0.0,0.0,0.0,0.0,0.0,0.0,0.0,0.0,0.0,0.0,0.0,0.0,0.0,0.0,0.0,0.0,0.0,0.0,0.0,0.0,0.0,0.0,0.0,0.0,0.0,0.0,0.0,0.0,0.0,0.0,0.0,0.0,0.0,0.0,0.0,0.0,0.0,0.0,0.0,0.0,-3.5759,-3.7524,-3.9888,-4.2886,-4.3185,-4.3559,-4.4077,-4.2252,-3.9978,-3.733,0.0,0.0,0.0,0.0,0.0,0.0,0.0,0.0,0.0,0.0,0.0,0.0,0.0,0.0,0.0,0.0,0.0,0.0,0.0,0.0,0.0,0.0,0.0,0.0,0.0,0.0,0.0,0.0,0.0,0.0,0.0,0.0,0.0,0.0,0.0,0.0,0.0,0.0,0.0,-3.3185,-3.4189,0.0,0.0,0.0,0.0,0.0,0.0,0.0,0.0,-2.9455,0.0,0.0,0.0,0.0,0.0,0.0,0.0,0.0,0.0,0.0,0.0,0.0,0.0,0.0,0.0,0.0,0.0,0.0,0.0,0.0,0.0,0.0,0.0,0.0,0.0,0.0,0.0,0.0,0.0,0.0,0.0,0.0,0.0,0.0,0.0,0.0,0.0,0.0,0.0,0.0,0.0,0.0,0.0,0.0,0.0,0.0,0.0,0.0,0.0,0.0,0.0,0.0,0.0,0.0,0.0,-3.6327,-3.8766,-4.1205,-4.3693,-4.3798,-4.3988,-4.4242,-4.1743,-3.9439,0.0,0.0,0.0,0.0,0.0,0.0,0.0,0.0,0.0,0.0,0.0,0.0,0.0,0.0,0.0,0.0,0.0,0.0,0.0,0.0,0.0,0.0,0.0,0.0,0.0,0.0,0.0,0.0,0.0,0.0,0.0,0.0,0.0,0.0,0.0,0.0,0.0,0.0,0.0,0.0,-3.4173,-3.4891,-3.4563,0.0,0.0,0.0,0.0,0.0,0.0,-3.0047,-2.9519,0.0,0.0,0.0,0.0,0.0,0.0,0.0,0.0,0.0,0.0,0.0,0.0,0.0,0.0,0.0,0.0,0.0,0.0,0.0,0.0,0.0,0.0,0.0,0.0,0.0,0.0,0.0,0.0,0.0,0.0,0.0,0.0,0.0,0.0,0.0,0.0,0.0,0.0,0.0,0.0,0.0,0.0,0.0,0.0,0.0,0.0,0.0,0.0,0.0,0.0,0.0,0.0,0.0,0.0,0.0,-3.6417,-3.9589,-4.2267,-4.4392,-4.4392,-4.4392,-4.4451,-4.1459,-3.905,0.0,0.0,0.0,0.0,0.0,0.0,0.0,0.0,0.0,0.0,0.0,0.0,0.0,0.0,0.0,0.0,0.0,0.0,0.0,0.0,0.0,0.0,0.0,0.0,0.0,0.0,0.0,0.0,0.0,0.0,0.0,0.0,0.0,0.0,0.0,0.0,0.0,0.0,0.0,0.0,0.0,-3.5639,-3.5013,-3.5355,0.0,0.0,0.0,0.0,-3.1007,-3.0684,0.0,0.0,0.0,0.0,0.0,0.0,0.0,0.0,0.0,0.0,0.0,0.0,0.0,0.0,0.0,0.0,0.0,0.0,0.0,0.0,0.0,0.0,0.0,0.0,0.0,0.0,0.0,0.0,0.0,0.0,0.0,0.0,0.0,0.0,0.0,0.0,0.0,0.0,0.0,0.0,0.0,0.0,0.0,0.0,0.0,0.0,0.0,0.0,0.0,0.0,0.0,0.0,0.0,0.0,0.0,0.0,-3.6387,-3.914,-4.2043,-4.4975,-4.4616,-4.4586,-4.5125,-4.2566,-3.9978,0.0,0.0,0.0,0.0,0.0,0.0,0.0,0.0,0.0,0.0,0.0,0.0,0.0,0.0,0.0,0.0,0.0,0.0,0.0,0.0,0.0,0.0,0.0,0.0,0.0,0.0,0.0,0.0,0.0,0.0,0.0,0.0,0.0,0.0,0.0,0.0,0.0,0.0,0.0,0.0,0.0,-3.6956,-3.6342,-3.6312,-3.6015,0.0,0.0,-3.3114,-3.2707,-3.2298,0.0,0.0,0.0,0.0,0.0,0.0,0.0,0.0,0.0,0.0,0.0,0.0,0.0,0.0,0.0,0.0,0.0,0.0,0.0,0.0,0.0,0.0,0.0,0.0,0.0,0.0,0.0,0.0,0.0,0.0,0.0,0.0,0.0,0.0,0.0,0.0,0.0,0.0,0.0,0.0,0.0,0.0,0.0,0.0,0.0,0.0,0.0,0.0,0.0,0.0,0.0,0.0,0.0,0.0,0.0,-3.2781,-3.6956,-4.0337,-4.3105,-4.52,-4.502,-4.5005,-4.5274,-4.1654,-3.8811,0.0,0.0,0.0,0.0,0.0,0.0,0.0,0.0,0.0,0.0,0.0,0.0,0.0,0.0,0.0,0.0,0.0,0.0,0.0,0.0,0.0,0.0,0.0,0.0,0.0,0.0,0.0,0.0,0.0,0.0,0.0,0.0,0.0,0.0,0.0,0.0,0.0,0.0,0.0,0.0,0.0,0.0,-3.7599,-3.7913,0.0,0.0,0.0,-3.5029,-3.4166,0.0,0.0,0.0,0.0,0.0,0.0,0.0,0.0,0.0,0.0,0.0,0.0,0.0,0.0,0.0,0.0,0.0,0.0,0.0,0.0,0.0,0.0,0.0,0.0,0.0,0.0,0.0,0.0,0.0,0.0,0.0,0.0,0.0,0.0,0.0,0.0,0.0,0.0,0.0,0.0,0.0,0.0,0.0,0.0,0.0,0.0,0.0,0.0,0.0,0.0,0.0,0.0,0.0,0.0,0.0,0.0,0.0,-3.7629,-4.1564,-4.4212,-4.5499,-4.5379,-4.5289,-4.5214,-4.113,0.0,0.0,0.0,0.0,0.0,0.0,0.0,0.0,0.0,0.0,0.0,0.0,0.0,0.0,0.0,0.0,0.0,0.0,0.0,0.0,0.0,0.0,0.0,0.0,0.0,0.0,0.0,-2.1605,0.0,0.0,0.0,0.0,0.0,0.0,0.0,0.0,0.0,0.0,0.0,0.0,0.0,0.0,-3.8646,-3.8646,-3.9379,-3.9616,0.0,0.0,-3.6784,-3.5775,-3.4654,-3.3406,0.0,0.0,0.0,0.0,0.0,0.0,0.0,0.0,0.0,0.0,0.0,0.0,0.0,0.0,0.0,0.0,0.0,0.0,0.0,0.0,0.0,0.0,0.0,0.0,0.0,0.0,0.0,0.0,0.0,0.0,0.0,0.0,0.0,0.0,0.0,0.0,0.0,0.0,0.0,0.0,0.0,0.0,0.0,0.0,0.0,0.0,0.0,0.0,0.0,0.0,0.0,0.0,0.0,0.0,0.0,-3.8302,-4.2237,-4.4844,-4.613,-4.5618,-4.5289,-4.5229,-4.2028,-3.908,0.0,0.0,0.0,0.0,0.0,0.0,0.0,0.0,0.0,0.0,0.0,0.0,0.0,0.0,0.0,0.0,0.0,0.0,0.0,0.0,0.0,0.0,0.0,0.0,0.0,0.0,0.0,0.0,0.0,0.0,0.0,0.0,0.0,0.0,0.0,0.0,0.0,0.0,0.0,0.0,0.0,-3.9349,-3.9313,-4.0442,-4.1265,0.0,0.0,-3.7813,-3.7772,-3.6873,-3.537,-3.2981,0.0,0.0,0.0,0.0,0.0,0.0,0.0,0.0,0.0,0.0,0.0,0.0,0.0,0.0,0.0,0.0,0.0,0.0,0.0,0.0,0.0,0.0,0.0,0.0,0.0,0.0,0.0,0.0,0.0,0.0,0.0,0.0,0.0,0.0,0.0,0.0,0.0,0.0,0.0,0.0,0.0,0.0,0.0,0.0,0.0,0.0,0.0,0.0,0.0,0.0,0.0,0.0,0.0,-3.4457,-3.8362,-4.2297,-4.496,-4.6247,-4.6067,-4.5738,-4.5304,-4.2506,-3.9768,0.0,0.0,0.0,0.0,0.0,0.0,0.0,0.0,0.0,0.0,0.0,0.0,0.0,0.0,0.0,0.0,0.0,0.0,0.0,0.0,0.0,0.0,0.0,0.0,0.0,0.0,0.0,0.0,-2.5323,-2.5833,-2.6746,0.0,0.0,0.0,0.0,0.0,0.0,0.0,0.0,0.0,0.0,-4.0457,-4.1615,-4.2611,0.0,0.0,-4.1439,-3.9878,-3.9248,-3.7014,-3.481,-3.3195,-3.3037,0.0,0.0,0.0,0.0,0.0,0.0,0.0,0.0,0.0,0.0,0.0,0.0,0.0,0.0,0.0,0.0,0.0,0.0,0.0,0.0,0.0,0.0,0.0,0.0,0.0,0.0,0.0,0.0,0.0,0.0,0.0,0.0,0.0,0.0,0.0,0.0,0.0,0.0,0.0,0.0,0.0,0.0,0.0,0.0,0.0,0.0,0.0,0.0,0.0,0.0,0.0,0.0,-3.504,-3.8945,-4.2701,-4.5259,-4.6533,-4.6426,-4.5965,-4.5259,-4.298,-4.0337,0.0,0.0,0.0,0.0,0.0,0.0,0.0,0.0,0.0,0.0,0.0,0.0,0.0,0.0,0.0,0.0,0.0,0.0,0.0,0.0,0.0,0.0,0.0,0.0,0.0,0.0,0.0,0.0,-2.6776,-2.7091,-2.7555,0.0,0.0,0.0,0.0,0.0,0.0,0.0,0.0,0.0,0.0,-4.1489,-4.2851,-4.3763,-4.4317,-4.4317,-4.2439,-4.0749,-4.0067,-3.7427,-3.4977,-3.3558,0.0,0.0,0.0,0.0,0.0,0.0,0.0,0.0,0.0,0.0,0.0,0.0,0.0,0.0,0.0,0.0,0.0,0.0,0.0,0.0,0.0,0.0,0.0,0.0,0.0,0.0,0.0,-2.4575,0.0,0.0,-2.364,0.0,0.0,0.0,0.0,0.0,0.0,0.0,0.0,0.0,0.0,0.0,0.0,0.0,0.0,0.0,0.0,0.0,0.0,0.0,0.0,0.0,0.0,-3.6357,-4.0292,-4.3569,-4.5918,-4.7204,-4.6666,-4.6007,-4.5274,-4.3429,-4.0823,-3.7479,0.0,0.0,0.0,0.0,0.0,0.0,0.0,0.0,0.0,0.0,0.0,0.0,0.0,0.0,0.0,0.0,0.0,0.0,0.0,0.0,0.0,0.0,0.0,0.0,0.0,0.0,-2.6647,-2.7195,-2.7585,0.0,0.0,0.0,0.0,0.0,0.0,0.0,0.0,0.0,0.0,-4.0666,-4.2381,-4.247,-4.3509,-4.4392,-4.4362,-4.1894,-4.0012,-4.0043,-3.8359,-3.6395,0.0,0.0,0.0,0.0,0.0,0.0,0.0,0.0,0.0,0.0,0.0,0.0,0.0,0.0,0.0,0.0,0.0,0.0,0.0,0.0,0.0,0.0,0.0,0.0,0.0,0.0,0.0,-2.8053,-2.7275,0.0,0.0,0.0,0.0,0.0,0.0,0.0,0.0,0.0,0.0,0.0,-3.6462,-3.7569,0.0,0.0,0.0,0.0,0.0,0.0,0.0,0.0,0.0,0.0,0.0,0.0,-3.6465,-4.0337,-4.3629,-4.5963,-4.7264,-4.7085,-4.6441,-4.5319,-4.4227,-4.1294,-3.6312,0.0,0.0,0.0,0.0,0.0,0.0,0.0,0.0,0.0,0.0,0.0,0.0,0.0,0.0,0.0,0.0,0.0,0.0,0.0,0.0,0.0,0.0,0.0,0.0,0.0,-2.7919,0.0,0.0,0.0,0.0,0.0,0.0,0.0,0.0,0.0,0.0,0.0,-3.7674,-4.0068,-4.1572,-4.2875,-4.4137,-4.508,-4.5648,0.0,0.0,0.0,0.0,0.0,0.0,0.0,0.0,0.0,0.0,0.0,0.0,0.0,0.0,-4.011,-3.7058,-3.5299,-3.4061,-3.3227,0.0,0.0,0.0,0.0,0.0,0.0,0.0,0.0,0.0,0.0,0.0,0.0,0.0,0.0,-3.1917,0.0,-3.1104,0.0,0.0,0.0,0.0,0.0,0.0,0.0,0.0,-3.7629,-3.92,-3.985,-4.0905,-4.0846,0.0,-3.9155,-3.6851,0.0,0.0,0.0,0.0,0.0,0.0,0.0,0.0,-3.7379,-4.101,-4.3853,-4.5948,-4.7234,-4.7309,-4.6666,-4.5319,-4.4003,-4.1265,-3.7015,-3.5579,-3.3529,0.0,0.0,0.0,0.0,0.0,0.0,0.0,0.0,0.0,0.0,0.0,0.0,0.0,0.0,0.0,0.0,0.0,0.0,0.0,0.0,0.0,0.0,0.0,-2.8682,0.0,0.0,0.0,0.0,0.0,0.0,0.0,0.0,0.0,-3.6522,-3.8033,-3.9948,-4.2102,-4.3165,-4.4137,-4.514,0.0,0.0,0.0,0.0,0.0,0.0,0.0,-3.718,-3.6742,-3.6663,-3.7033,-3.8317,-4.0843,-4.2553,-4.2146,0.0,0.0,-3.9352,-3.7532,-3.6217,-3.5636,-3.5089,-3.4441,-3.3546,-3.3515,-3.3495,0.0,0.0,0.0,0.0,0.0,0.0,0.0,0.0,-3.5412,-3.6206,0.0,-3.6009,0.0,0.0,0.0,0.0,-3.3118,-3.6014,0.0,0.0,-4.1436,-4.3015,-4.2575,-4.312,-4.309,-4.259,-4.3045,-4.1944,-3.9298,-3.4381,0.0,0.0,0.0,0.0,0.0,0.0,-3.9095,-4.2351,-4.4347,-4.5978,-4.7249,-4.7279,-4.6621,-4.5244,-4.2791,-4.0816,-3.9454,-3.8123,-3.5968,-3.2751,-3.13,0.0,0.0,0.0,0.0,0.0,0.0,0.0,0.0,0.0,0.0,0.0,0.0,0.0,0.0,0.0,0.0,0.0,0.0,0.0,0.0,-2.7829,0.0,0.0,0.0,0.0,0.0,0.0,0.0,0.0,0.0,0.0,-3.8796,-4.0838,-4.288,-4.4152,0.0,0.0,0.0,0.0,-4.6294,-4.6324,-4.4804,-4.3282,-4.2157,-4.1261,-3.9926,-3.7716,0.0,0.0,-3.971,-4.0666,-4.1259,-3.9908,-4.0825,-4.189,-4.2979,-4.099,-3.9382,-3.9325,-3.7994,-3.7088,-3.6966,-3.6458,-3.6132,-4.3263,0.0,0.0,0.0,0.0,-3.9948,-4.0773,-4.163,-4.2252,-4.1926,-4.092,-4.0515,0.0,0.0,0.0,0.0,0.0,0.0,-4.0472,-4.1639,-4.2781,-4.3947,-4.52,-4.5337,-4.5379,-4.5185,-4.487,-4.4107,-4.2836,-4.0457,-3.7289,-3.344,0.0,0.0,0.0,0.0,-4.0232,-4.2985,-4.502,-4.6456,-4.7294,-4.6845,-4.592,-4.4616,-4.2995,-4.1497,-4.0157,-3.929,-3.7539,-3.4786,-3.3365,0.0,0.0,0.0,0.0,0.0,0.0,0.0,0.0,0.0,0.0,0.0,0.0,0.0,0.0,0.0,0.0,0.0,0.0,0.0,-2.8577,-2.8652,-2.943,0.0,0.0,0.0,0.0,0.0,0.0,0.0,0.0,0.0,-4.2491,-4.3254,-4.4077,0.0,0.0,-4.5708,-4.5992,-4.6187,-4.6444,-4.695,-4.583,0.0,-4.4422,-4.2,-4.0223,-4.0298,-4.0897,-4.1218,-4.1066,-4.2039,-4.2808,-4.2342,-4.193,-4.1694,-4.1916,-4.0851,-3.9788,-3.9628,-3.8631,-3.7756,-3.7721,-3.7619,-3.7487,-4.8312,-4.513,-4.396,-4.3436,-4.3483,-4.4253,-4.4979,-4.5717,-4.6536,-4.6518,-4.5873,-4.5593,-4.4139,-4.1778,-4.0225,0.0,0.0,0.0,-4.2637,-4.4082,-4.4351,-4.5248,-4.6666,-4.6711,-4.6711,-4.6681,-4.6022,-4.5499,-4.5039,-4.4032,-4.1707,-3.8063,0.0,0.0,-3.7853,-3.9664,-4.1743,-4.4022,-4.5517,-4.6636,-4.7264,-4.6396,-4.5409,-4.4306,-4.3284,-4.2117,-4.0846,-4.0397,-3.9095,-3.6746,-3.5145,-3.3215,0.0,0.0,0.0,0.0,0.0,0.0,0.0,0.0,0.0,0.0,0.0,-2.6647,-2.4926,0.0,0.0,0.0,-2.7619,-2.9355,-3.1374,-3.1405,0.0,0.0,0.0,0.0,0.0,0.0,0.0,-4.1235,-4.2611,-4.3778,-4.496,-4.5349,-4.5648,-4.6037,-4.6097,-4.6247,-4.6651,0.0,-4.6845,-4.7249,-4.6638,-4.5973,-4.5479,-4.3532,-4.1991,-4.162,-4.1604,-4.1369,-4.0932,-4.1887,-4.2558,-4.2084,-4.1789,-4.1455,-4.0932,-4.0225,-3.9773,-3.9724,-3.9205,-3.873,-3.8668,-3.868,-3.863,-5.1995,-5.1134,-4.846,-4.7203,-4.704,-4.7821,-4.805,-4.8001,-4.8768,-4.9828,-5.0973,-5.0316,-4.9575,-4.8606,-4.4984,0.0,-4.5158,-4.4129,-4.4308,-4.5484,-4.6097,-4.6726,-4.7279,-4.7309,-4.7309,-4.7294,-4.6653,-4.6354,-4.6309,-4.5753,-4.4825,-4.3514,-4.1773,-4.11,-4.1587,-4.2261,-4.3549,-4.5349,-4.6052,-4.6593,-4.7115,-4.5933,-4.493,-4.4167,-4.3544,-4.2641,-4.1369,-4.1294,-4.0419,-3.8392,-3.6611,-3.4694,-3.2632,0.0,0.0,0.0,0.0,0.0,0.0,0.0,0.0,0.0,0.0,0.0,0.0,0.0,0.0,0.0,-3.0582,0.0,-3.4457,-3.516,0.0,0.0,0.0,-3.73,-3.8781,-4.0487,-4.2058,-4.3364,0.0,0.0,-4.6354,-4.6935,-4.7309,-4.7309,-4.7309,-4.7309,-4.7309,-4.7279,-4.7309,-4.7309,-4.7309,-4.6873,-4.5869,-4.5331,-4.4311,-4.2252,-4.1739,-4.1419,-4.0503,-4.0882,-4.1069,-4.0313,-4.0743,-4.1069,-3.9929,-3.9737,-3.9697,-3.9686,-3.9698,-3.9659,-3.9609,-3.9597,-3.9459,-5.3112,-5.2909,-5.2198,-5.1238,-5.0118,-5.0126,-5.0068,-5.0041,-5.0049,-4.9961,-4.975,-4.9588,-4.8758,-4.7405,-4.6465,-4.6108,-4.6252,-4.6559,-4.6696,-4.6815,-4.6995,-4.7145,-4.7309,-4.7309,-4.7309,-4.7294,-4.716,-4.7085,-4.707,-4.6905,-4.6411,-4.5592,-4.514,-4.4257,-4.3,-4.4032,-4.508,-4.6025,-4.6741,-4.6651,-4.5783,-4.5469,-4.4511,-4.2905,-4.2671,-4.1968,-4.0696,-4.0636,-3.9709,-3.7764,-3.721,-3.5818,-3.338,-3.0926,0.0,0.0,0.0,0.0,0.0,0.0,0.0,0.0,0.0,-3.0178,-2.6856,0.0,-3.1539,0.0,-3.2183,-3.3844,-3.5836,-3.5699,0.0,0.0,-3.9334,-4.0023,-4.3269,-4.3195,-4.3529,-4.5352,-4.5995,-4.6516,-4.7025,-4.7204,-4.7309,-4.7309,-4.7309,-4.7309,-4.7309,-4.7309,-4.7309,-4.7309,-4.7309,-4.7207,-4.6829,-4.6018,-4.4886,-4.3313,-4.3026,-4.293,-4.2655,-4.1985,-4.1505,-4.1132,-4.0554,-4.0083,-3.9736,-3.9697,-3.9697,-3.9697,-3.9697,-3.9697,-3.9697,-3.9697,-3.9659,-5.3518,-5.3467,-5.299,-5.2299,-5.1529,-5.1861,-5.1733,-5.1273,-5.1141,-5.0591,-4.9805,-4.9821,-4.9335,-4.8488,-4.8019,-4.77,-4.758,-4.7517,-4.7443,-4.7294,-4.7309,-4.7309,-4.7309,-4.7309,-4.7309,-4.7309,-4.7309,-4.7309,-4.7309,-4.7309,-4.7115,-4.677,-4.6713,-4.6217,-4.52,-4.5544,-4.6082,-4.6756,-4.7115,-4.6666,-4.5349,-4.5289,-4.4212,-4.2081,-4.2246,-4.1497,-3.9574,-3.9798,-3.917,-3.7524,-3.715,-3.6222,-3.4457,-3.2497,-3.0657,0.0,0.0,0.0,0.0,0.0,0.0,0.0,0.0,0.0,0.0,0.0,-3.3484,-3.3724,-3.519,-3.6941,-3.8951,-3.9305,-4.0427,-4.2851,-4.2476,-4.303,-4.5499,-4.511,-4.5173,-4.6591,-4.6756,-4.689,-4.7264,-4.7309,-4.7077,-4.6535,-4.6432,-4.6682,-4.7207,-4.7309,-4.7309,-4.7309,-4.7309,-4.7309,-4.7309,-4.6726,-4.5644,-4.3929,-4.349,-4.317,-4.2035,-4.1752,-4.1468,-4.0882,-4.0605,-4.0364,-3.9839,-3.9697,-3.9697,-3.9697,-3.9697,-3.9697,-3.9697,-3.9697,-3.9697,-5.3518,-5.3433,-5.2505,-5.2117,-5.2153,-5.2956,-5.2592,-5.1504,-5.1377,-5.0801,-5.0025,-5.0025,-5.0009,-4.9931,-4.9029,-4.8594,-4.8553,-4.7679,-4.7309,-4.7309,-4.7309,-4.7309,-4.7309,-4.7309,-4.7309,-4.7309,-4.7309,-4.7309,-4.7309,-4.7309,-4.7309,-4.7309,-4.7309,-4.7309,-4.7279,-4.6741,-4.6726,-4.7294,-4.7309,-4.6681,-4.5454,-4.5349,-4.4077,-4.1707,-4.1946,-4.0973,-3.8542,-3.8975,-3.8706,-3.7494,-3.6985,-3.6402,-3.5639,-3.3814,-3.2168,0.0,-2.9639,0.0,0.0,0.0,0.0,0.0,0.0,0.0,0.0,-3.5013,-3.5791,-3.7015,-3.8751,-4.0561,-4.2485,-4.3643,-4.4616,-4.5319,-4.5424,-4.5693,-4.6367,-4.6399,-4.6666,-4.7234,-4.7309,-4.7266,-4.7019,-4.7077,-4.6594,-4.5403,-4.5161,-4.5494,-4.6491,-4.6638,-4.6638,-4.6829,-4.696,-4.6975,-4.7222,-4.7266,-4.6432,-4.4349,-4.3834,-4.2882,-4.0844,-4.1082,-4.1269,-4.0364,-4.0706,-4.0844,-3.989,-3.9697,-3.9697,-3.9697,-3.9697,-3.9697,-3.9697,-3.9697,-3.9697,-5.3518,-5.345,-5.3264,-5.3195,-5.3161,-5.247,-5.1117,-4.9336,-4.8527,-4.8072,-4.7892,-4.7892,-4.7892,-4.7876,-4.7694,-4.7566,-4.7581,-4.7381,-4.7309,-4.7309,-4.7309,-4.7309,-4.7309,-4.7309,-4.7309,-4.7309,-4.7309,-4.7309,-4.7309,-4.7309,-4.7309,-4.7309,-4.7309,-4.7309,-4.7309,0.0,0.0,0.0,-4.7309,-4.692,-4.6157,-4.5589,-4.4302,-4.2291,-4.1265,0.0,-3.8532,-3.8512,-3.8227,-3.7479,-3.7793,0.0,0.0,0.0,0.0,0.0,0.0,0.0,0.0,0.0,0.0,0.0,-3.7225,-3.6582,-3.5519,-3.7734,-3.9604,-4.0434,-4.128,-4.2387,-4.3793,-4.4152,-4.4796,-4.5963,-4.6127,-4.6354,-4.7025,-4.7115,-4.7174,-4.7279,-4.7309,-4.6887,-4.5928,-4.5779,-4.5252,-4.4069,-4.3882,-4.3929,-4.4163,-4.4303,-4.4256,-4.427,-4.5207,-4.6166,-4.7149,-4.7266,-4.677,-4.5403,-4.507,-4.4349,-4.2882,-4.1887,-4.1591,-4.1119,-4.0592,-4.0032,-3.9749,-3.9697,-3.9697,-3.9697,-3.9697,-3.9697,-3.9697,-3.9697,-3.9697,-5.3518,-5.3467,-5.2921,-5.2451,0.0,-5.0801,-4.9496,-4.8072,-4.8072,-4.7764,-4.7309,-4.7309,-4.7309,-4.7309,-4.7309,-4.7309,-4.7309,-4.7309,-4.7309,-4.7309,-4.7309,-4.7309,-4.7309,-4.7309,-4.7309,-4.7309,-4.7309,-4.7309,-4.7309,-4.7309,-4.7309,-4.7309,-4.7309,-4.7309,-4.7309,-4.7309,-4.7309,-4.7309,-4.7309,-4.6995,-4.6337,-4.5648,-4.4362,-4.247,-4.1414,0.0,0.0,0.0,0.0,0.0,0.0,0.0,0.0,0.0,0.0,-3.4981,-3.4921,-3.507,-3.5415,-3.6357,-3.7614,-3.9245,-4.0277,-4.0142,-3.8527,-4.0232,-4.1773,-4.2746,-4.3434,-4.4227,-4.5185,-4.5589,-4.6067,-4.6726,-4.6815,-4.695,-4.7249,-4.7309,-4.7077,-4.6447,-4.6344,-4.5883,-4.4642,-4.4442,-4.3915,-4.2772,-4.2558,-4.2363,-4.1887,-4.2738,-4.349,-4.3537,-4.4595,-4.5584,-4.624,-4.6975,-4.658,-4.5024,-4.4456,-4.3693,-4.1936,-4.1082,-4.0655,-4.0605,-4.0121,-3.9697,-3.9697,-3.9697,-3.9697,-3.9697,-3.9697,-3.9697,-3.9697,-3.9697,-3.9697,-5.311,-5.2886,-5.201,-5.1171,-5.032,-4.9256,-4.821,-4.7381,0.0,0.0,0.0,-4.7309,-4.7309,-4.7309,-4.7309,-4.7309,-4.7309,-4.7309,-4.7309,-4.7309,-4.7309,-4.7309,-4.7309,-4.7309,-4.7309,-4.7309,-4.7309,-4.7309,-4.7309,-4.7309,-4.7309,-4.7309,-4.7309,-4.7309,-4.7309,-4.7309,-4.7309,-4.7309,-4.7309,-4.704,-4.6459,-4.5828,-4.4586,-4.2785,-4.2006,-4.0703,-3.8841,-3.8736,-3.8497,-3.7973,-3.8048,-3.8048,-3.7943,-3.7928,-3.7883,-3.7793,-3.8377,-3.8736,-3.8766,-3.9484,-4.0217,-4.0876,-4.2467,-4.2961,-4.1818,-4.2485,-4.3414,-4.4571,-4.5155,-4.5753,-4.6441,-4.6965,-4.7309,-4.7309,-4.7309,-4.7309,-4.7309,-4.7309,-4.6829,-4.5689,-4.5448,-4.4826,-4.3395,-4.317,-4.2703,-4.1604,-4.1269,-4.0932,-4.0224,-4.1406,-4.2834,-4.3456,-4.4303,-4.5161,-4.5838,-4.6594,-4.6255,-4.4069,-4.3537,-4.2593,-4.0503,-3.9697,-3.9697,-3.9788,-3.9697,-3.9697,-3.9697,-3.9697,-3.9697,-3.9697,-3.9697,-3.9697,-3.9697,-3.9697,-3.9697,-5.1631,-5.0833,-5.0681,-5.0512,-5.032,-4.9256,-4.8225,-4.7337,-4.7452,-4.7424,-4.7309,-4.7309,-4.7309,-4.7309,-4.7309,-4.7309,-4.7309,-4.7309,-4.7309,-4.7309,-4.7309,-4.7309,-4.7309,-4.7309,-4.7309,-4.7309,-4.7309,-4.7309,-4.7309,-4.7309,-4.7309,-4.7309,-4.7309,-4.7309,-4.7309,-4.7309,-4.7309,-4.7309,-4.7309,-4.7249,-4.716,-4.6516,-4.5499,-4.4092,-4.2905,-4.1579,-4.0187,-4.0113,-4.0083,-4.0008,-4.0516,-4.0576,-4.0008,-3.9948,-3.9723,-3.9179,-3.9753,-4.0127,-4.0142,-4.1302,-4.2222,-4.2856,-4.3703,-4.3853,-4.314,-4.4182,-4.5214,-4.5963,-4.6112,-4.6441,-4.707,-4.7249,-4.7309,-4.7309,-4.7309,-4.7309,-4.7309,-4.7309,-4.6785,-4.5494,-4.5403,-4.441,-4.2315,-4.1887,-4.1406,-4.03,-4.0173,-3.9942,-3.9839,-3.9981,-4.1182,-4.293,-4.3632,-4.4688,-4.6255,-4.7121,-4.6211,-4.3929,-4.349,-4.2641,-4.0121,-3.9697,-3.9697,-3.9697,-3.9697,-3.9697,-3.9697,-3.9697,-3.9697,-3.9697,-3.9697,-3.9697,-3.9697,-3.9672,-3.9659,-5.1134,-5.0413,-5.0397,-5.0048,-4.9456,-4.8418,-4.7722,-4.7309,-4.7309,-4.7309,-4.7309,-4.7309,-4.7309,-4.7309,-4.7309,-4.7309,-4.7309,-4.7309,-4.7309,-4.7309,-4.7309,-4.7309,-4.7309,-4.7309,-4.7309,-4.7309,-4.7309,-4.7309,-4.7309,-4.7309,-4.7309,-4.7309,-4.7309,-4.7309,-4.7309,-4.7309,-4.7309,-4.7309,-4.7309,-4.7309,-4.7279,-4.6623,-4.598,-4.5394,-4.3778,-4.2626,-4.1974,-4.1309,-4.0935,-4.092,-4.1205,-4.125,-4.095,-4.0935,-4.0801,-4.0531,-4.11,-4.1497,-4.1497,-4.2357,-4.3165,-4.3823,-4.4466,-4.49,-4.4919,-4.5499,-4.6142,-4.6785,-4.686,-4.698,-4.7264,-4.7309,-4.7309,-4.7309,-4.7309,-4.7309,-4.7309,-4.7309,-4.6506,-4.478,-4.4363,-4.3361,-4.0895,-4.0541,-4.0402,-3.98,-3.9697,-3.9697,-3.9749,-4.0313,-4.1069,-4.2252,-4.3026,-4.4195,-4.5958,-4.6873,-4.6166,-4.3882,-4.349,-4.2447,-4.0275,-3.9697,-3.9697,-3.9697,-3.9697,-3.9697,-3.9697,-3.9697,-3.9697,-3.9697,-3.9697,-3.9697,-3.9685,-3.9484,-3.9258,-5.058,-4.9947,-4.9757,-4.9247,-4.8403,-4.7651,-4.7309,-4.7309,-4.7309,-4.7309,-4.7309,-4.7309,-4.7309,-4.7309,-4.7309,-4.7309,-4.7309,-4.7309,-4.7309,-4.7309,-4.7309,-4.7309,-4.7309,-4.7309,-4.7309,-4.7309,-4.7309,-4.7309,-4.7309,-4.7309,-4.7309,-4.7309,-4.7309,-4.7309,-4.7309,-4.7309,-4.7309,-4.7309,-4.7309,-4.7309,-4.7294,-4.68,-4.6486,-4.6232,-4.4799,-4.3828,-4.3499,-4.2581,-4.1968,-4.1833,-4.1818,-4.1818,-4.1818,-4.1818,-4.1818,-4.1863,-4.2297,-4.2695,-4.286,-4.3269,-4.3798,-4.4496,-4.5155,-4.5753,-4.6247,-4.6471,-4.6741,-4.7219,-4.7279,-4.7294,-4.7309,-4.7309,-4.7309,-4.7309,-4.7309,-4.7309,-4.7309,-4.7309,-4.6314,-4.4022,-4.349,-4.2641,-4.0794,-4.0121,-4.0224,-4.0211,-4.0121,-4.0083,-3.9942,-4.0794,-4.1604,-4.2217,-4.3122,-4.4456,-4.5644,-4.6638,-4.6166,-4.3915,-4.349,-4.2301,-4.0503,-3.9697,-3.9697,-3.9697,-3.9697,-3.9697,-3.9697,-3.9697,-3.9697,-3.9697,-3.9697,-3.9697,-3.9685,-3.9321,-3.8969,-4.9443,-4.8466,-4.7966,-4.7538,-4.7452,-4.7337,-4.7309,-4.7309,-4.7309,-4.7309,-4.7309,-4.7309,-4.7309,-4.7309,-4.7309,-4.7309,-4.7309,-4.7309,-4.7309,-4.7309,-4.7309,-4.7309,-4.7309,-4.7309,-4.7309,-4.7309,-4.7309,-4.7309,-4.7309,-4.7309,-4.7309,-4.7309,-4.7309,-4.7309,-4.7309,-4.7309,-4.7309,-4.7309,-4.7309,-4.7309,-4.7309,-4.7249,-4.6935,-4.6294,-4.6115,-4.5427,-4.4332,-4.4107,-4.3748,-4.317,-4.3095,-4.3095,-4.308,-4.3095,-4.3095,-4.3095,-4.3155,-4.3454,-4.4047,-4.4197,-4.4511,-4.5155,-4.5813,-4.6232,-4.6367,-4.686,-4.7219,-4.7309,-4.7309,-4.7309,-4.7309,-4.7309,-4.7309,-4.7309,-4.7309,-4.7309,-4.7309,-4.7309,-4.6299,-4.3787,-4.3395,-4.293,-4.1455,-4.1082,-4.1219,-4.1019,-4.0932,-4.0642,-4.0032,-4.0932,-4.2133,-4.317,-4.4363,-4.5598,-4.6697,-4.7121,-4.6121,-4.4008,-4.3456,-4.2266,-4.0503,-3.9697,-3.9697,-3.9697,-3.9697,-3.9697,-3.9697,-3.9697,-3.9697,-3.9697,-3.9697,-3.9697,-3.9634,-3.9207,-3.8906,-4.9963,-4.9695,-4.8424,-4.7653,-4.7339,-4.7309,-4.7309,-4.7309,-4.7309,-4.7309,-4.7309,-4.7309,-4.7309,-4.7309,-4.7309,-4.7309,-4.7309,-4.7309,-4.7309,-4.7309,-4.7309,-4.7309,-4.7309,-4.7309,-4.7309,-4.7309,-4.7309,-4.7309,-4.7309,-4.7309,-4.7309,-4.7309,-4.7309,-4.7309,-4.7309,-4.7309,-4.7309,-4.7309,-4.7309,-4.7309,-4.7309,-4.7309,-4.7174,-4.6905,-4.6531,-4.6055,-4.5529,-4.5125,-4.4586,-4.3932,-4.3913,-4.3693,-4.3305,-4.3305,-4.3305,-4.3305,-4.3703,-4.3992,-4.4302,-4.4676,-4.5185,-4.5873,-4.6157,-4.6444,-4.6875,-4.716,-4.7309,-4.7309,-4.7309,-4.7309,-4.7309,-4.7309,-4.7309,-4.7309,-4.7309,-4.7309,-4.7309,-4.6594,-4.5448,-4.3726,-4.2834,-4.1936,-4.0794,-4.0453,-4.0465,-4.0453,-4.0503,-4.0275,-3.989,-4.1419,-4.2786,-4.3504,-4.4595,-4.5838,-4.6931,-4.658,-4.5448,-4.3975,-4.2834,-4.1604,-4.0313,-3.9697,-3.9697,-3.9697,-3.9697,-3.9697,-3.9697,-3.9697,-3.9697,-3.9697,-3.9697,-3.9697,-3.9697,-3.8981,-3.8479,-5.065,-5.0452,-4.895,-4.8012,-4.7563,-4.7384,-4.7309,-4.7309,-4.7309,-4.7309,-4.7309,-4.7309,-4.7309,-4.7309,-4.7309,-4.7309,-4.7309,-4.7309,-4.7309,-4.7309,-4.7309,-4.7309,-4.7309,-4.7309,-4.7309,-4.7309,-4.7309,-4.7309,-4.7309,-4.7309,-4.7309,-4.7309,-4.7309,-4.7309,-4.7309,-4.7309,-4.7309,-4.7309,-4.7309,-4.7309,-4.7309,-4.7309,-4.7309,-4.7264,-4.6845,-4.6516,-4.6322,-4.5843,-4.5259,-4.4616,-4.4421,-4.4107,-4.3604,-4.3394,-4.3379,-4.3604,-4.4227,-4.4676,-4.484,-4.5319,-4.5888,-4.6501,-4.6591,-4.6785,-4.7189,-4.7309,-4.7309,-4.7309,-4.7309,-4.7309,-4.7309,-4.7309,-4.7309,-4.7294,-4.7077,-4.6785,-4.6697,-4.5629,-4.4396,-4.3122,-4.2217,-4.1269,-4.0465,-4.0313,-4.0415,-4.0415,-4.0032,-3.9697,-3.9839,-4.1219,-4.2412,-4.293,-4.3787,-4.4932,-4.6299,-4.5674,-4.4442,-4.33,-4.2119,-4.1269,-4.0019,-3.9736,-3.9697,-3.9697,-3.9697,-3.9697,-3.9697,-3.9697,-3.9697,-3.9697,-3.9697,-3.9697,-3.9697,-3.8856,-3.8316,-5.1206,-5.0124,-4.882,-4.8297,-4.8192,-4.7593,-4.7324,-4.7309,-4.7309,-4.7309,-4.7309,-4.7309,-4.7309,-4.7309,-4.7309,-4.7309,-4.7309,-4.7309,-4.7309,-4.7309,-4.7309,-4.7309,-4.7309,-4.7309,-4.7309,-4.7309,-4.7309,-4.7309,-4.7309,-4.7309,-4.7309,-4.7309,-4.7309,-4.7309,-4.7309,-4.7309,-4.7309,-4.7309,-4.7309,-4.7309,-4.7309,-4.7309,-4.7309,-4.7294,-4.7264,-4.695,-4.6441,-4.6264,-4.5963,-4.5289,-4.4736,-4.4347,-4.4227,-4.3678,-4.3648,-4.4242,-4.4885,-4.5544,-4.601,-4.6217,-4.6531,-4.71,-4.7189,-4.7264,-4.7294,-4.7309,-4.7309,-4.7309,-4.7309,-4.7309,-4.7164,-4.7062,-4.7106,-4.7077,-4.6166,-4.5598,-4.5448,-4.4349,-4.3061,-4.207,-4.1604,-4.1256,-4.1319,-4.1505,-4.1219,-4.1032,-4.0364,-3.9697,-3.9749,-3.9981,-4.0693,-4.1505,-4.2084,-4.2655,-4.4734,-4.4396,-4.317,-4.2217,-4.164,-4.1132,-4.0313,-3.9697,-3.9697,-3.9697,-3.9697,-3.9697,-3.9697,-3.9697,-3.9697,-3.9697,-3.9697,-3.9697,-3.9697,-3.922,-3.863,-5.0939,-5.0166,-4.9733,-4.9075,-4.8282,-4.8027,-4.7698,-4.7324,-4.7309,-4.7309,-4.7309,-4.7309,-4.7309,-4.7309,-4.7309,-4.7309,-4.7309,-4.7309,-4.7309,-4.7309,-4.7309,-4.7309,-4.7309,-4.7309,-4.7309,-4.7309,-4.7309,-4.7309,-4.7309,-4.7309,-4.7309,-4.7309,-4.7309,-4.7309,-4.7309,-4.7309,-4.7309,-4.7309,-4.7309,-4.7309,-4.7309,-4.7309,-4.7309,-4.7309,-4.7309,-4.7189,-4.6965,-4.695,-4.6636,-4.5978,-4.5723,-4.5394,-4.4975,-4.4721,-4.4676,-4.496,-4.5574,-4.6067,-4.6279,-4.6726,-4.704,-4.7264,-4.7309,-4.7309,-4.7309,-4.7309,-4.7309,-4.7309,-4.7309,-4.7019,-4.6255,-4.6062,-4.6077,-4.5928,-4.4978,-4.4163,-4.3975,-4.3074,-4.207,-4.1604,-4.0982,-4.0415,-4.0465,-4.0415,-4.0364,-4.0364,-3.9981,-3.9749,-3.9839,-4.0313,-4.0982,-4.1419,-4.1604,-4.1874,-4.2606,-4.2689,-4.2021,-4.1541,-4.1019,-4.0453,-3.9749,-3.9697,-3.9697,-3.9697,-3.9697,-3.9697,-3.9697,-3.9697,-3.9697,-3.9697,-3.9697,-3.9697,-3.9697,-3.9195,-3.8605,-5.0975,-5.051,-5.0285,-4.9748,-4.891,-4.8446,-4.8042,-4.7608,-4.7399,-4.7309,-4.7309,-4.7309,-4.7309,-4.7309,-4.7309,-4.7309,-4.7309,-4.7309,-4.7309,-4.7309,-4.7309,-4.7309,-4.7309,-4.7309,-4.7309,-4.7309,-4.7309,-4.7309,-4.7309,-4.7309,-4.7309,-4.7309,-4.7309,-4.7309,-4.7309,-4.7309,-4.7309,-4.7309,-4.7309,-4.7309,-4.7309,-4.7309,-4.7309,-4.7309,-4.7309,-4.7309,-4.7309,-4.7309,-4.713,-4.6681,-4.6399,-4.6007,-4.5394,-4.5514,-4.5633,-4.5693,-4.6262,-4.6636,-4.6681,-4.7055,-4.7294,-4.7309,-4.7309,-4.7309,-4.7309,-4.7309,-4.7309,-4.7309,-4.7309,-4.6785,-4.5689,-4.507,-4.478,-4.4642,-4.3646,-4.2917,-4.2821,-4.1739,-4.1082,-4.0844,-4.0275,-3.9788,-3.9697,-3.9749,-3.9749,-3.9697,-3.9697,-3.9697,-3.9839,-4.0364,-4.0982,-4.0982,-4.0895,-4.0882,-4.1169,-4.1119,-4.1032,-4.0642,-4.0592,-3.9981,-3.9697,-3.9697,-3.9697,-3.9697,-3.9697,-3.9697,-3.9697,-3.9697,-3.9697,-3.9697,-3.9697,-3.9697,-3.9496,-3.9182,-3.863,-5.1167,-5.1079,-5.048,-5.0196,-4.9867,-4.885,-4.8312,-4.8132,-4.7578,-4.7309,-4.7309,-4.7309,-4.7309,-4.7309,-4.7309,-4.7309,-4.7309,-4.7309,-4.7309,-4.7309,-4.7309,-4.7309,-4.7309,-4.7309,-4.7309,-4.7309,-4.7309,-4.7309,-4.7309,-4.7309,-4.7309,-4.7309,-4.7309,-4.7309,-4.7309,-4.7309,-4.7309,-4.7309,-4.7309,-4.7309,-4.7309,-4.7309,-4.7309,-4.7309,-4.7309,-4.7309,-4.7309,-4.7309,-4.7294,-4.7189,-4.6696,-4.6037,-4.5648,-4.5992,-4.6294,-4.6369,-4.692,-4.7234,-4.7264,-4.7279,-4.7309,-4.7309,-4.7309,-4.7309,-4.7309,-4.7309,-4.7309,-4.7309,-4.7266,-4.6785,-4.5403,-4.4303,-4.3598,-4.3361,-4.2363,-4.164,-4.1356,-4.0503,-3.9749,-3.9839,-3.9749,-3.9697,-3.9697,-3.9697,-3.9697,-3.9697,-3.9697,-3.9697,-3.9697,-3.989,-3.9788,-3.9839,-4.0032,-4.0173,-3.9929,-3.9749,-3.98,-3.98,-3.989,-3.9697,-3.9697,-3.9697,-3.9697,-3.9697,-3.9697,-3.9697,-3.9697,-3.9697,-3.9697,-3.9697,-3.9697,-3.9685,-3.9496,-3.922,-3.873,-5.1229,-5.1199,-5.1005,-5.0599,-5.0121,-4.9329,-4.876,-4.8237,-4.7593,-4.7309,-4.7309,-4.7309,-4.7309,-4.7309,-4.7309,-4.7309,-4.7309,-4.7309,-4.7309,-4.7309,-4.7309,-4.7309,-4.7309,-4.7309,-4.7309,-4.7309,-4.7309,-4.7309,-4.7309,-4.7309,-4.7309,-4.7309,-4.7309,-4.7309,-4.7309,-4.7309,-4.7309,-4.7309,-4.7309,-4.7309,-4.7309,-4.7309,-4.7309,-4.7309,-4.7309,-4.7309,-4.7309,-4.7309,-4.7309,-4.7309,-4.71,-4.689,-4.677,-4.689,-4.701,-4.7025,-4.716,-4.7309,-4.7309,-4.7309,-4.7309,-4.7309,-4.7309,-4.7309,-4.7309,-4.7309,-4.7309,-4.7309,-4.7266,-4.6491,-4.4549,-4.3787,-4.3122,-4.2266,-4.1082,-4.0364,-4.0364,-3.9968,-3.9749,-3.9697,-3.9697,-3.9697,-3.9697,-3.9697,-3.9697,-3.9697,-3.9697,-3.9697,-3.9697,-3.9697,-3.9697,-3.9697,-3.9697,-3.9697,-3.9697,-3.9697,-3.9697,-3.9697,-3.9697,-3.9697,-3.9697,-3.9697,-3.9697,-3.9697,-3.9697,-3.9697,-3.9697,-3.9697,-3.9697,-3.9697,-3.9697,-3.9659,-3.9609,-3.9283,-3.8831,-5.1229,-5.1229,-5.1229,-5.099,-5.0495,-4.9898,-4.9239,-4.8611,-4.7952,-4.7534,-4.7354,-4.7309,-4.7309,-4.7309,-4.7309,-4.7309,-4.7309,-4.7309,-4.7309,-4.7309,-4.7309,-4.7309,-4.7309,-4.7309,-4.7309,-4.7309,-4.7309,-4.7309,-4.7309,-4.7309,-4.7309,-4.7309,-4.7309,-4.7309,-4.7309,-4.7309,-4.7309,-4.7309,-4.7309,-4.7309,-4.7309,-4.7309,-4.7309,-4.7309,-4.7309,-4.7309,-4.7309,-4.7309,-4.7309,-4.7309,-4.7309,-4.7309,-4.7309,-4.7294,-4.7309,-4.7309,-4.7309,-4.7309,-4.7309,-4.7309,-4.7309,-4.7309,-4.7309,-4.7309,-4.7309,-4.7309,-4.7309,-4.7309,-4.7309,-4.6255,-4.4069,-4.349,-4.2724,-4.1032,-4.0275,-3.9749,-3.9697,-3.9697,-3.9697,-3.9697,-3.9697,-3.9697,-3.9697,-3.9697,-3.9697,-3.9697,-3.9697,-3.9697,-3.9697,-3.9697,-3.9697,-3.9697,-3.9697,-3.9697,-3.9697,-3.9697,-3.9697,-3.9697,-3.9697,-3.9697,-3.9697,-3.9697,-3.9697,-3.9697,-3.9697,-3.9697,-3.9697,-3.9697,-3.9697,-3.9697,-3.9697,-3.9672,-3.9609,-3.9383,-3.8931,-5.1229,-5.1229,-5.1229,-5.1199,-5.1065,-5.0391,-4.9703,-4.9224,-4.8431,-4.7803,-4.7384,-4.7309,-4.7309,-4.7309,-4.7309,-4.7309,-4.7309,-4.7309,-4.7309,-4.7309,-4.7309,-4.7309,-4.7309,-4.7309,-4.7309,-4.7309,-4.7309,-4.7309,-4.7309,-4.7309,-4.7309,-4.7309,-4.7309,-4.7309,-4.7309,-4.7309,-4.7309,-4.7309,-4.7309,-4.7309,-4.7309,-4.7309,-4.7309,-4.7309,-4.7309,-4.7309,-4.7309,-4.7309,-4.7309,-4.7309,-4.7309,-4.7309,-4.7309,-4.7309,-4.7309,-4.7309,-4.7309,-4.7309,-4.7309,-4.7309,-4.7309,-4.7309,-4.7309,-4.7309,-4.7309,-4.7309,-4.7309,-4.7309,-4.7309,-4.6255,-4.4149,-4.349,-4.235,-4.0262,-3.9749,-3.9697,-3.9697,-3.9697,-3.9697,-3.9697,-3.9697,-3.9697,-3.9697,-3.9697,-3.9697,-3.9697,-3.9697,-3.9697,-3.9697,-3.9697,-3.9697,-3.9697,-3.9697,-3.9697,-3.9697,-3.9697,-3.9697,-3.9839,-3.9929,-4.0121,-3.989,-3.98,-3.9697,-3.9697,-3.9697,-3.9697,-3.9697,-3.9697,-3.9697,-3.9697,-3.9697,-3.9697,-3.9572,-3.9346,-3.8931,-5.1229,-5.1229,-5.1229,-5.1229,-5.105,-5.0017,-4.9449,-4.9164,-4.8057,-4.7549,-4.7324,-4.7309,-4.7309,-4.7309,-4.7309,-4.7309,-4.7309,-4.7309,-4.7309,-4.7309,-4.7309,-4.7309,-4.7309,-4.7309,-4.7309,-4.7309,-4.7309,-4.7309,-4.7309,-4.7309,-4.7309,-4.7309,-4.7309,-4.7309,-4.7309,-4.7309,-4.7309,-4.7309,-4.7309,-4.7309,-4.7309,-4.7309,-4.7309,-4.7309,-4.7309,-4.7309,-4.7309,-4.7309,-4.7309,-4.7309,-4.7309,-4.7309,-4.7309,-4.7309,-4.7309,-4.7309,-4.7309,-4.7309,-4.7309,-4.7309,-4.7309,-4.7309,-4.7309,-4.7309,-4.7309,-4.7309,-4.7309,-4.7309,-4.7251,-4.6255,-4.4116,-4.3395,-4.2168,-4.0262,-3.9697,-3.9697,-3.9697,-3.9697,-3.9697,-3.9697,-3.9697,-3.9697,-3.9697,-3.9697,-3.9697,-3.9697,-3.9697,-3.9697,-3.9697,-3.9697,-3.9697,-3.9697,-3.9697,-3.9697,-3.9697,-3.9697,-3.9736,-3.9929,-4.0262,-4.0781,-4.0364,-3.9942,-3.9788,-3.9697,-3.9697,-3.9697,-3.9697,-3.9697,-3.9697,-3.9697,-3.9697,-3.9685,-3.9546,-3.9333,-3.8843,-5.1229,-5.1229,-5.1229,-5.1229,-5.1094,-5.0122,-4.9538,-4.9149,-4.8192,-4.7534,-4.7369,-4.7309,-4.7309,-4.7309,-4.7309,-4.7309,-4.7309,-4.7309,-4.7309,-4.7309,-4.7309,-4.7309,-4.7309,-4.7309,-4.7309,-4.7309,-4.7309,-4.7309,-4.7309,-4.7309,-4.7309,-4.7309,-4.7309,-4.7309,-4.7309,-4.7309,-4.7309,-4.7309,-4.7309,-4.7309,-4.7309,-4.7309,-4.7309,-4.7309,-4.7309,-4.7309,-4.7309,-4.7309,-4.7309,-4.7309,-4.7309,-4.7309,-4.7309,-4.7309,-4.7309,-4.7309,-4.7309,-4.7309,-4.7309,-4.7309,-4.7309,-4.7309,-4.7309,-4.7309,-4.7309,-4.7309,-4.7309,-4.7309,-4.6873,-4.5539,-4.3821,-4.2593,-4.1269,-3.9981,-3.9697,-3.9697,-3.9697,-3.9697,-3.9697,-3.9697,-3.9697,-3.9697,-3.9697,-3.9697,-3.9697,-3.9697,-3.9697,-3.9697,-3.9697,-3.9697,-3.9697,-3.9697,-3.9749,-3.9749,-4.007,-4.0211,-4.0794,-4.0882,-4.1455,-4.1874,-4.164,-4.0982,-4.0516,-4.0415,-4.0032,-3.9697,-3.9697,-3.9697,-3.9697,-3.9697,-3.9697,-3.9672,-3.9559,-3.9471,-3.8944,-5.1229,-5.1229,-5.1229,-5.1169,-5.0943,-5.036,-4.9658,-4.9134,-4.8356,-4.7773,-4.7399,-4.7309,-4.7309,-4.7309,-4.7309,-4.7309,-4.7309,-4.7309,-4.7309,-4.7309,-4.7309,-4.7309,-4.7309,-4.7309,-4.7309,-4.7309,-4.7309,-4.7309,-4.7309,-4.7309,-4.7309,-4.7309,-4.7309,-4.7309,-4.7309,-4.7309,-4.7309,-4.7309,-4.7309,-4.7309,-4.7309,-4.7309,-4.7309,-4.7309,-4.7309,-4.7309,-4.7309,-4.7309,-4.7309,-4.7309,-4.7309,-4.7309,-4.7309,-4.7309,-4.7309,-4.7309,-4.7309,-4.7309,-4.7309,-4.7309,-4.7309,-4.7309,-4.7309,-4.7309,-4.7309,-4.7309,-4.7207,-4.6873,-4.6018,-4.484,-4.3218,-4.1169,-4.0134,-3.9697,-3.9697,-3.9697,-3.9697,-3.9697,-3.9697,-3.9697,-3.9697,-3.9697,-3.9697,-3.9697,-3.9697,-3.9697,-3.9697,-3.9697,-3.9697,-3.9697,-3.9697,-3.9697,-3.9749,-3.9788,-4.0313,-4.0831,-4.1604,-4.2217,-4.3026,-4.3551,-4.3693,-4.3026,-4.2035,-4.1419,-4.0794,-4.0173,-3.9697,-3.9697,-3.9697,-3.9697,-3.9697,-3.9697,-3.9672,-3.9622,-3.9295,-5.1229,-5.1229,-5.1229,-5.0868,-5.0376,-4.9748,-4.9105,-4.852,-4.7818,-4.7474,-4.7324,-4.7309,-4.7309,-4.7309,-4.7309,-4.7309,-4.7309,-4.7309,-4.7309,-4.7309,-4.7309,-4.7309,-4.7309,-4.7309,-4.7309,-4.7309,-4.7309,-4.7309,-4.7309,-4.7309,-4.7309,-4.7309,-4.7309,-4.7309,-4.7309,-4.7309,-4.7309,-4.7309,-4.7309,-4.7309,-4.7309,-4.7309,-4.7309,-4.7309,-4.7309,-4.7309,-4.7309,-4.7309,-4.7309,-4.7309,-4.7207,-4.7019,-4.7266,-4.7309,-4.7309,-4.7309,-4.7309,-4.7309,-4.7309,-4.7309,-4.7309,-4.7309,-4.7309,-4.7309,-4.7309,-4.7207,-4.677,-4.6107,-4.5494,-4.4163,-4.2217,-4.0642,-3.9839,-3.9697,-3.9697,-3.9697,-3.9697,-3.9697,-3.9697,-3.9697,-3.9697,-3.9697,-3.9697,-3.9697,-3.9697,-3.9697,-3.9697,-3.9697,-3.9697,-3.9697,-3.9697,-3.9697,-4.0134,-4.0326,-4.0932,-4.1789,-4.3026,-4.374,-4.4549,-4.5024,-4.5161,-4.4688,-4.3504,-4.2461,-4.1455,-4.0794,-3.9929,-3.9697,-3.9697,-3.9697,-3.9697,-3.9697,-3.9697,-3.9697,-3.9647,-5.1229,-5.1184,-5.0838,-5.051,-5.0061,-4.9224,-4.8611,-4.8207,-4.7593,-4.7309,-4.7309,-4.7309,-4.7309,-4.7309,-4.7309,-4.7309,-4.7309,-4.7309,-4.7309,-4.7309,-4.7309,-4.7309,-4.7309,-4.7309,-4.7309,-4.7309,-4.7309,-4.7309,-4.7309,-4.7309,-4.7309,-4.7309,-4.7309,-4.7309,-4.7309,-4.7309,-4.7309,-4.7309,-4.7309,-4.7309,-4.7309,-4.7309,-4.7309,-4.7309,-4.7309,-4.7309,-4.7309,-4.6638,-4.6432,-4.624,-4.5913,-4.6166,-4.7121,-4.7309,-4.7309,-4.7309,-4.7309,-4.7309,-4.7309,-4.7309,-4.7309,-4.7309,-4.7309,-4.7309,-4.7077,-4.6829,-4.6151,-4.5312,-4.4256,-4.2724,-4.0982,-4.0262,-3.9736,-3.9697,-3.9697,-3.9697,-3.9697,-3.9697,-3.9697,-3.9697,-3.9697,-3.9697,-3.9697,-3.9697,-3.9697,-3.9697,-3.9697,-3.9697,-3.9697,-3.9697,-3.9697,-3.9839,-4.0415,-4.0932,-4.1604,-4.2786,-4.4503,-4.5312,-4.6077,-4.6358,-4.6491,-4.5734,-4.478,-4.3504,-4.2084,-4.0882,-4.0121,-3.9929,-3.9697,-3.9697,-3.9697,-3.9697,-3.9697,-3.9697,-3.9659,-5.1154,-5.0988,-5.042,-5.0091,-4.9732,-4.876,-4.8222,-4.8027,-4.7549,-4.7309,-4.7309,-4.7309,-4.7309,-4.7309,-4.7309,-4.7309,-4.7309,-4.7309,-4.7309,-4.7309,-4.7309,-4.7309,-4.7309,-4.7309,-4.7309,-4.7309,-4.7309,-4.7309,-4.7309,-4.7309,-4.7309,-4.7309,-4.7309,-4.7309,-4.7309,-4.7309,-4.7309,-4.7309,-4.7309,-4.7309,-4.7309,-4.7266,-4.7207,-4.6829,-4.6829,-4.6829,-4.6535,-4.5824,-4.5192,-4.5312,-4.4163,-4.4918,-4.6314,-4.7019,-4.7207,-4.7207,-4.7309,-4.7309,-4.7309,-4.7309,-4.7309,-4.7309,-4.7309,-4.7121,-4.6785,-4.6062,-4.5252,-4.4069,-4.2786,-4.1082,-3.989,-3.9749,-3.9697,-3.9697,-3.9697,-3.9697,-3.9697,-3.9697,-3.9697,-3.9697,-3.9697,-3.9697,-3.9697,-3.9697,-3.9697,-3.9697,-3.9697,-3.9749,-3.9749,-3.9839,-3.989,-4.0275,-4.0895,-4.2168,-4.2978,-4.4069,-4.5734,-4.6211,-4.7077,-4.7164,-4.7164,-4.6166,-4.5024,-4.3882,-4.2558,-4.1356,-4.0364,-3.9839,-3.9697,-3.9697,-3.9697,-3.9697,-3.9697,-3.9697,-3.9659,-5.0853,-5.036,-5.024,-4.9628,-4.8671,-4.8356,-4.7967,-4.7504,-4.7369,-4.7309,-4.7309,-4.7309,-4.7309,-4.7309,-4.7309,-4.7309,-4.7309,-4.7309,-4.7309,-4.7309,-4.7309,-4.7309,-4.7309,-4.7309,-4.7309,-4.7309,-4.7309,-4.7309,-4.7309,-4.7309,-4.7309,-4.7309,-4.7309,-4.7309,-4.7309,-4.7309,-4.7309,-4.7309,-4.7309,-4.7309,-4.7309,-4.7266,-4.6887,-4.6211,-4.6077,-4.5928,-4.5524,-4.4642,-4.4303,-4.5115,-4.4149,-4.4396,-4.5358,-4.5689,-4.6255,-4.7062,-4.7309,-4.7309,-4.7309,-4.7222,-4.7266,-4.7309,-4.7077,-4.655,-4.5928,-4.5298,-4.4163,-4.2496,-4.1219,-3.9929,-3.9749,-3.9697,-3.9697,-3.9697,-3.9697,-3.9697,-3.9697,-3.9697,-3.9697,-3.9697,-3.9697,-3.9697,-3.9697,-3.9697,-3.9697,-3.9697,-3.9697,-3.9929,-4.0121,-4.0224,-4.0364,-4.0844,-4.1419,-4.3026,-4.4549,-4.5689,-4.6931,-4.6785,-4.7207,-4.7207,-4.6975,-4.6166,-4.5115,-4.3882,-4.2882,-4.1887,-4.0932,-3.9981,-3.9697,-3.9697,-3.9697,-3.9697,-3.9697,-3.9697,-3.9697,-5.0017,-4.9718,-4.9374,-4.888,-4.8297,-4.7908,-4.7608,-4.7339,-4.7309,-4.7309,-4.7309,-4.7309,-4.7309,-4.7309,-4.7309,-4.7309,-4.7309,-4.7309,-4.7309,-4.7309,-4.7309,-4.7309,-4.7309,-4.7309,-4.7309,-4.7309,-4.7309,-4.7309,-4.7309,-4.7309,-4.7309,-4.7309,-4.7309,-4.7309,-4.7309,-4.7309,-4.7309,-4.7309,-4.7309,-4.7309,-4.7309,-4.7309,-4.6873,-4.6447,-4.5689,-4.5448,-4.501,-4.3395,-4.2834,-4.3026,-4.2155,-4.2738,-4.3834,-4.4688,-4.5358,-4.6873,-4.7309,-4.7309,-4.7121,-4.6785,-4.6255,-4.6211,-4.5838,-4.5115,-4.441,-4.3693,-4.2655,-4.1132,-4.0313,-3.9697,-3.9697,-3.9697,-3.9697,-3.9697,-3.9697,-3.9697,-3.9697,-3.9697,-3.9749,-3.9788,-3.9788,-3.98,-3.9697,-3.9697,-3.9697,-3.9697,-3.9697,-4.007,-4.0503,-4.0831,-4.1119,-4.2181,-4.293,-4.427,-4.5644,-4.6447,-4.7309,-4.7309,-4.7309,-4.7309,-4.6829,-4.6018,-4.4964,-4.3773,-4.2882,-4.1752,-4.0844,-3.9697,-3.9697,-3.9697,-3.9697,-3.9697,-3.9697,-3.9697,-3.9697,-4.9239,-4.906,-4.8506,-4.8207,-4.8012,-4.7549,-4.7324,-4.7309,-4.7309,-4.7309,-4.7309,-4.7309,-4.7309,-4.7309,-4.7309,-4.7309,-4.7309,-4.7309,-4.7309,-4.7309,-4.7309,-4.7309,-4.7309,-4.7309,-4.7309,-4.7309,-4.7309,-4.7309,-4.7309,-4.7309,-4.7309,-4.7309,-4.7309,-4.7309,-4.7309,-4.7309,-4.7309,-4.7309,-4.7309,-4.7309,-4.7309,-4.7309,-4.6916,-4.655,-4.5539,-4.4826,-4.4163,-4.2363,-4.1604,-4.1505,-4.1169,-4.1269,-4.3074,-4.374,-4.4964,-4.6814,-4.7266,-4.7207,-4.6682,-4.6107,-4.5448,-4.5055,-4.4116,-4.3551,-4.2834,-4.207,-4.0895,-3.9942,-3.9697,-3.9697,-3.9697,-3.9697,-3.9697,-3.9697,-3.9697,-3.9749,-3.9839,-3.989,-4.0019,-4.0032,-3.9981,-3.9942,-3.989,-3.9697,-3.9697,-4.0032,-4.0083,-4.0655,-4.1119,-4.1825,-4.2447,-4.3693,-4.4734,-4.5779,-4.6594,-4.6785,-4.7309,-4.7309,-4.7309,-4.7309,-4.6682,-4.5928,-4.4734,-4.3395,-4.1887,-4.0794,-4.0083,-3.9697,-3.9697,-3.9697,-3.9697,-3.9697,-3.9697,-3.9697,-3.9697,-4.897,-4.8431,-4.8312,-4.7952,-4.7474,-4.7339,-4.7309,-4.7309,-4.7309,-4.7309,-4.7309,-4.7309,-4.7309,-4.7309,-4.7309,-4.7309,-4.7309,-4.7309,-4.7207,-4.7077,-4.7222,-4.7207,-4.7266,-4.7309,-4.7309,-4.7309,-4.7309,-4.7309,-4.7309,-4.7309,-4.7309,-4.7309,-4.7309,-4.7309,-4.7309,-4.7309,-4.7309,-4.7309,-4.7309,-4.7309,-4.7309,-4.7309,-4.6166,-4.478,-4.3915,-4.3395,-4.2509,-4.1032,-4.0554,-4.1369,-4.1419,-4.2084,-4.3409,-4.4642,-4.5779,-4.6829,-4.7207,-4.6814,-4.5928,-4.5207,-4.4595,-4.3868,-4.33,-4.2834,-4.1887,-4.0882,-4.0032,-3.9839,-3.9697,-3.9697,-3.9697,-3.9697,-3.9697,-3.9697,-3.9697,-3.9697,-3.9788,-4.0554,-4.0592,-4.0554,-4.0554,-4.0326,-4.0134,-3.989,-3.9749,-4.0134,-4.0554,-4.1182,-4.2035,-4.2978,-4.3773,-4.501,-4.5689,-4.6638,-4.6975,-4.7266,-4.7309,-4.7309,-4.7266,-4.7207,-4.6358,-4.5448,-4.4256,-4.2882,-4.1319,-4.0275,-3.989,-3.9697,-3.9697,-3.9697,-3.9697,-3.9697,-3.9697,-3.9697,-3.9697,-4.7982,-4.7728,-4.7728,-4.7578,-4.7324,-4.7309,-4.7309,-4.7309,-4.7309,-4.7309,-4.7309,-4.7309,-4.7309,-4.7309,-4.7309,-4.7309,-4.7309,-4.7207,-4.6829,-4.6594,-4.6785,-4.6873,-4.6535,-4.6931,-4.7309,-4.7309,-4.7309,-4.7309,-4.7309,-4.7309,-4.7309,-4.7309,-4.7309,-4.7309,-4.7309,-4.7309,-4.7309,-4.7309,-4.7309,-4.7309,-4.7309,-4.7164,-4.6403,-4.4595,-4.3834,-4.2786,-4.1604,-4.0415,-3.9942,-4.0655,-4.1069,-4.2217,-4.3218,-4.4069,-4.4872,-4.5973,-4.5448,-4.5207,-4.5207,-4.4055,-4.317,-4.2461,-4.1838,-4.1019,-4.0453,-4.0134,-3.9697,-3.9697,-3.9697,-3.9697,-3.9697,-3.9697,-3.9697,-3.9697,-3.9697,-3.9839,-4.007,-4.0932,-4.1356,-4.1269,-4.1182,-4.0945,-4.0554,-3.9981,-3.9788,-3.9981,-4.0794,-4.1789,-4.317,-4.478,-4.5539,-4.6299,-4.6726,-4.7164,-4.7207,-4.7309,-4.7309,-4.7309,-4.7207,-4.6873,-4.5928,-4.4886,-4.3598,-4.2315,-4.0895,-4.0134,-3.98,-3.9697,-3.9697,-3.9697,-3.9697,-3.9697,-3.9697,-3.9697,-3.9697,-4.7309,-4.7309,-4.7309,-4.7309,-4.7309,-4.7309,-4.7309,-4.7309,-4.7309,-4.7309,-4.7309,-4.7309,-4.7309,-4.7164,-4.6931,-4.6682,-4.6726,-4.6491,-4.5824,-4.5598,-4.5973,-4.6166,-4.6166,-4.6638,-4.7309,-4.7309,-4.7309,-4.7309,-4.7309,-4.7309,-4.7309,-4.7309,-4.7309,-4.7309,-4.7309,-4.7309,-4.7309,-4.7309,-4.7309,-4.7309,-4.7266,-4.6916,-4.6003,-4.4826,-4.3693,-4.2398,-4.1169,-4.0326,-3.9749,-3.9981,-4.1455,-4.2558,-4.293,-4.3834,-4.4303,-4.4734,-4.3929,-4.3504,-4.3504,-4.2821,-4.1654,-4.0932,-4.0465,-4.0032,-3.989,-3.9697,-3.9697,-3.9697,-3.9697,-3.9697,-3.9697,-3.9697,-3.9697,-3.9697,-3.9697,-3.9878,-4.03,-4.1406,-4.2204,-4.2301,-4.2168,-4.1789,-4.1219,-4.0275,-3.9942,-3.9942,-4.0844,-4.2168,-4.3834,-4.5584,-4.6211,-4.6624,-4.696,-4.7164,-4.7207,-4.7207,-4.7266,-4.7121,-4.7019,-4.658,-4.5584,-4.421,-4.2738,-4.1505,-4.0465,-4.0032,-3.9697,-3.9697,-3.9697,-3.9697,-3.9697,-3.9697,-3.9697,-3.9697,-3.9697,-4.7309,-4.7309,-4.7309,-4.7309,-4.7309,-4.7309,-4.7309,-4.7309,-4.7309,-4.7309,-4.7309,-4.7309,-4.7309,-4.7019,-4.6255,-4.5734,-4.5539,-4.4317,-4.4022,-4.4256,-4.4826,-4.5403,-4.5689,-4.6447,-4.7207,-4.7309,-4.7309,-4.7309,-4.7309,-4.7309,-4.7309,-4.7309,-4.7309,-4.7309,-4.7309,-4.7309,-4.7309,-4.7309,-4.7309,-4.7309,-4.6975,-4.6255,-4.507,-4.3773,-4.2447,-4.1169,-3.9929,-3.9749,-3.9697,-3.9788,-4.1654,-4.2461,-4.2447,-4.3504,-4.4069,-4.3456,-4.2412,-4.2035,-4.1775,-4.169,-4.1032,-4.0224,-3.98,-3.9697,-3.9697,-3.9697,-3.9697,-3.9697,-3.9697,-3.9697,-3.9697,-3.9697,-3.9697,-3.9697,-3.98,-4.0032,-4.0781,-4.2301,-4.3013,-4.3252,-4.3013,-4.2509,-4.1505,-4.0465,-3.989,-3.9839,-4.0844,-4.2181,-4.3632,-4.5161,-4.5824,-4.6344,-4.6726,-4.696,-4.7019,-4.6975,-4.6726,-4.6491,-4.6358,-4.5928,-4.5267,-4.374,-4.2021,-4.1206,-4.0313,-3.9981,-3.9697,-3.9697,-3.9697,-3.9697,-3.9697,-3.9697,-3.9697,-3.9697,-3.9697,-4.7309,-4.7309,-4.7309,-4.7309,-4.7309,-4.7309,-4.7309,-4.7309,-4.7309,-4.7309,-4.7309,-4.7309,-4.7309,-4.6931,-4.6018,-4.5403,-4.5221,-4.4069,-4.3585,-4.3585,-4.4008,-4.4642,-4.5267,-4.5973,-4.6447,-4.7121,-4.7309,-4.7309,-4.7309,-4.7309,-4.7309,-4.7309,-4.7309,-4.7309,-4.7309,-4.7309,-4.7309,-4.7309,-4.7309,-4.7309,-4.7019,-4.6062,-4.478,-4.3504,-4.2252,-4.0982,-3.9942,-3.9749,-3.9697,-4.0173,-4.1505,-4.1739,-4.164,-4.2786,-4.2882,-4.2301,-4.1169,-4.0642,-4.0554,-4.0516,-4.0173,-3.9981,-3.9697,-3.9697,-3.9697,-3.9697,-3.9697,-3.9697,-3.9697,-3.9697,-3.9697,-3.9697,-3.9697,-3.9697,-3.9839,-4.0134,-4.0982,-4.2398,-4.3061,-4.3013,-4.3074,-4.2882,-4.1703,-4.0516,-4.0032,-3.9788,-4.0982,-4.2133,-4.3395,-4.4303,-4.4826,-4.5252,-4.5584,-4.5719,-4.5734,-4.5913,-4.6151,-4.6018,-4.5824,-4.5161,-4.4549,-4.3074,-4.1604,-4.0831,-4.0211,-3.989,-3.9697,-3.9697,-3.9697,-3.9697,-3.9697,-3.9697,-3.9697,-3.9697,-3.9697,-4.7309,-4.7266,-4.6873,-4.6975,-4.7266,-4.7309,-4.7309,-4.7309,-4.7309,-4.7309,-4.7266,-4.696,-4.6726,-4.6299,-4.4932,-4.4163,-4.3693,-4.2882,-4.2703,-4.293,-4.3409,-4.421,-4.5115,-4.5928,-4.6682,-4.7207,-4.7309,-4.7309,-4.7309,-4.7309,-4.7309,-4.7309,-4.7309,-4.7309,-4.7309,-4.7309,-4.7309,-4.7309,-4.6887,-4.6785,-4.655,-4.4978,-4.3929,-4.2689,-4.1541,-4.0642,-3.989,-3.9697,-3.9697,-4.007,-4.0781,-4.1269,-4.1306,-4.1306,-4.1356,-4.0882,-4.0313,-3.9749,-3.9697,-3.9697,-3.9697,-3.9697,-3.9697,-3.9697,-3.9697,-3.9697,-3.9697,-3.9697,-3.9697,-3.9697,-3.9697,-3.9697,-3.9697,-3.9697,-3.9697,-3.9981,-4.0844,-4.1985,-4.2398,-4.2641,-4.2641,-4.2461,-4.1752,-4.0554,-3.9981,-3.9697,-4.0173,-4.1219,-4.2301,-4.3061,-4.3361,-4.374,-4.4008,-4.4116,-4.4163,-4.4978,-4.5779,-4.6196,-4.5779,-4.4535,-4.3585,-4.2168,-4.1082,-4.0313,-3.989,-3.9749,-3.9697,-3.9697,-3.9697,-3.9697,-3.9697,-3.9697,-3.9697,-3.9697,-3.9697,-4.7251,-4.7164,-4.5973,-4.6107,-4.7019,-4.7251,-4.7266,-4.7309,-4.7309,-4.7222,-4.6975,-4.6077,-4.5494,-4.4964,-4.3218,-4.2412,-4.1972,-4.0895,-4.0743,-4.1923,-4.2786,-4.4022,-4.5312,-4.6255,-4.6726,-4.7164,-4.7309,-4.7309,-4.7309,-4.7309,-4.7309,-4.7309,-4.7309,-4.7164,-4.7266,-4.7266,-4.7266,-4.7077,-4.5928,-4.5553,-4.4978,-4.3313,-4.2315,-4.1739,-4.0743,-3.9929,-3.9788,-3.9697,-3.9697,-3.9878,-4.0642,-4.0794,-4.0211,-4.0932,-4.0844,-3.9981,-3.9839,-3.9697,-3.9697,-3.9697,-3.9697,-3.9697,-3.9697,-3.9697,-3.9697,-3.9697,-3.9697,-3.9697,-3.9697,-3.9697,-3.9697,-3.9697,-3.9697,-3.9697,-3.9697,-3.989,-4.0706,-4.1505,-4.1972,-4.1923,-4.1739,-4.1604,-4.1182,-4.0605,-3.9981,-3.9697,-3.9697,-4.0364,-4.1455,-4.2021,-4.2363,-4.2315,-4.2593,-4.2786,-4.317,-4.4549,-4.5403,-4.5913,-4.5539,-4.4163,-4.2786,-4.1406,-4.0465,-3.9839,-3.9697,-3.9697,-3.9697,-3.9697,-3.9697,-3.9697,-3.9697,-3.9697,-3.9697,-3.9697,-3.9697,-4.6018,-4.5928,-4.4688,-4.441,-4.4886,-4.5734,-4.6491,-4.7207,-4.7266,-4.6829,-4.6077,-4.5494,-4.4826,-4.3773,-4.2544,-4.1505,-4.1319,-4.0364,-4.0351,-4.1555,-4.2266,-4.3598,-4.4978,-4.6018,-4.6594,-4.7121,-4.7309,-4.7309,-4.7309,-4.7309,-4.7309,-4.7309,-4.7121,-4.6785,-4.6255,-4.5973,-4.5734,-4.4886,-4.4317,-4.4116,-4.3929,-4.2509,-4.1505,-4.1455,-4.0326,-3.9749,-3.9697,-3.9697,-3.9697,-3.9697,-4.0415,-4.0173,-3.9736,-4.0415,-4.0173,-3.9749,-3.9697,-3.9697,-3.9697,-3.9697,-3.9697,-3.9697,-3.9697,-3.9697,-3.9697,-3.9697,-3.9697,-3.9697,-3.9697,-3.9697,-3.9697,-3.9697,-3.9697,-3.9697,-3.9697,-3.9749,-4.0326,-4.1132,-4.1654,-4.1132,-4.0794,-4.0743,-4.0465,-4.0364,-3.989,-3.9697,-3.9697,-3.9839,-4.0642,-4.1256,-4.169,-4.1219,-4.1219,-4.1505,-4.2133,-4.3456,-4.3975,-4.4069,-4.4022,-4.3456,-4.2035,-4.0794,-4.0173,-3.9749,-3.9697,-3.9697,-3.9697,-3.9697,-3.9697,-3.9697,-3.9697,-3.9697,-3.9697,-3.9697,-3.9697,-4.4734,-4.4595,-4.3361,-4.3122,-4.3598,-4.4396,-4.5252,-4.5928,-4.5958,-4.5494,-4.478,-4.4317,-4.3632,-4.2593,-4.1591,-4.0932,-4.0831,-4.016,-4.0351,-4.1555,-4.2181,-4.3646,-4.4932,-4.5838,-4.6682,-4.7164,-4.7309,-4.7309,-4.7309,-4.7309,-4.7309,-4.7207,-4.6829,-4.5838,-4.5252,-4.4964,-4.4932,-4.3975,-4.3361,-4.2834,-4.2447,-4.169,-4.0895,-4.0655,-4.0173,-3.9697,-3.9697,-3.9697,-3.9697,-3.9697,-3.9697,-3.9697,-3.9697,-3.9697,-3.9697,-3.9697,-3.9697,-3.9697,-3.9697,-3.9697,-3.9697,-3.9697,-3.9697,-3.9697,-3.9697,-3.9697,-3.9697,-3.9697,-3.9697,-3.9697,-3.9697,-3.9697,-3.9697,-3.9697,-3.9697,-3.9749,-3.989,-4.0743,-4.0895,-4.0313,-4.0173,-4.0083,-3.9981,-3.989,-3.9749,-3.9697,-3.9697,-3.989,-4.0173,-4.0844,-4.1492,-4.1369,-4.1082,-4.1505,-4.1887,-4.2363,-4.2606,-4.2315,-4.2412,-4.2558,-4.1838,-4.0706,-4.0173,-3.9697,-3.9697,-3.9697,-3.9697,-3.9697,-3.9736,-3.9749,-3.9697,-3.9697,-3.9697,-3.9697,-3.9697,-4.3456,-4.3266,-4.207,-4.2217,-4.3204,-4.3218,-4.3409,-4.3598,-4.3598,-4.3598,-4.3409,-4.2315,-4.1838,-4.1356,-4.0262,-3.989,-3.9942,-3.9749,-4.0364,-4.1419,-4.2217,-4.3787,-4.5115,-4.6211,-4.6741,-4.7121,-4.7309,-4.7309,-4.7309,-4.7309,-4.7309,-4.6887,-4.6121,-4.4886,-4.4256,-4.4022,-4.3882,-4.2751,-4.1985,-4.1604,-4.1256,-4.0554,-4.0121,-3.9942,-3.9788,-3.9697,-3.9697,-3.9697,-3.9697,-3.9697,-3.9697,-3.9697,-3.9697,-3.9697,-3.9697,-3.9697,-3.9697,-3.9697,-3.9697,-3.9697,-3.9697,-3.9697,-3.9697,-3.9697,-3.9697,-3.9697,-3.9697,-3.9697,-3.9697,-3.9697,-3.9697,-3.9697,-3.9697,-3.9697,-3.9697,-3.9697,-3.9697,-3.9942,-3.9942,-3.9788,-3.9839,-3.98,-3.9788,-3.9697,-3.9697,-3.9697,-3.9839,-4.0415,-4.0655,-4.1082,-4.1739,-4.2266,-4.2035,-4.1985,-4.2133,-4.1887,-4.169,-4.1555,-4.1739,-4.1838,-4.1132,-4.0605,-4.0083,-3.9697,-3.9697,-3.9839,-4.0224,-4.0121,-3.9775,-3.9839,-3.9981,-3.9697,-3.9697,-3.9697,-3.9697,-4.2119,-4.2035,-4.0794,-4.0465,-4.0743,-4.0794,-4.1802,-4.3347,-4.349,-4.3074,-4.2119,-4.1802,-4.1082,-4.0211,-3.9839,-3.9749,-3.9697,-3.9749,-3.9839,-4.0743,-4.1936,-4.293,-4.4163,-4.5494,-4.6358,-4.7062,-4.7309,-4.7309,-4.7309,-4.7309,-4.6697,-4.5928,-4.5494,-4.4116,-4.3026,-4.2509,-4.1887,-4.1319,-4.0655,-4.0503,-4.0402,-3.9942,-3.9697,-3.9697,-3.9697,-3.9697,-3.9697,-3.9697,-3.9697,-3.9697,-3.9697,-3.9697,-3.9697,-3.9697,-3.9697,-3.9697,-3.9697,-3.9697,-3.9697,-3.9697,-3.9697,-3.9697,-3.9697,-3.9697,-3.9697,-3.9697,-3.9697,-3.9697,-3.9697,-3.9697,-3.9697,-3.9697,-3.9697,-3.9697,-3.9697,-3.9697,-3.9697,-3.9697,-3.9697,-3.9697,-3.9697,-3.9697,-3.9697,-3.9697,-3.9697,-3.9697,-3.9929,-4.0554,-4.1082,-4.1419,-4.1985,-4.2558,-4.2217,-4.1936,-4.1419,-4.1082,-4.0932,-4.0831,-4.1032,-4.1082,-4.0516,-4.0032,-3.9788,-3.9697,-3.9697,-4.0326,-4.1082,-4.0642,-3.9826,-4.03,-4.0453,-4.0032,-3.9697,-3.9697,-3.9697,-4.0844,-4.0743,-4.0032,-3.9697,-3.9697,-3.9697,-4.0693,-4.1887,-4.2035,-4.1505,-4.0895,-4.0781,-4.0415,-3.989,-3.9749,-3.9697,-3.9697,-3.9697,-3.98,-4.0173,-4.1369,-4.2703,-4.3834,-4.5161,-4.655,-4.7121,-4.7309,-4.7309,-4.7309,-4.7164,-4.6682,-4.5539,-4.507,-4.3456,-4.2119,-4.1256,-4.0541,-4.0121,-3.98,-3.9697,-3.9697,-3.9697,-3.9697,-3.9697,-3.9697,-3.9697,-3.9697,-3.9697,-3.9697,-3.9697,-3.9697,-3.9697,-3.9697,-3.9697,-3.9697,-3.9697,-3.9697,-3.9697,-3.9697,-3.9697,-3.9697,-3.9697,-3.9697,-3.9697,-3.9697,-3.9697,-3.9697,-3.9697,-3.9697,-3.9697,-3.9697,-3.9697,-3.9697,-3.9697,-3.9697,-3.9697,-3.9697,-3.9697,-3.9697,-3.9697,-3.9697,-3.9697,-3.9697,-3.9697,-3.9697,-3.9697,-3.9942,-4.0465,-4.0982,-4.1505,-4.2181,-4.2834,-4.2168,-4.1555,-4.0982,-4.0503,-4.0364,-4.0262,-4.0313,-4.0224,-3.9749,-3.9697,-3.9697,-3.9697,-3.9697,-4.0326,-4.0895,-4.0364,-3.9826,-4.0351,-4.0541,-4.0032,-3.9697,-3.9697,-3.9697,-3.9749,-3.9749,-3.9697,-3.9697,-3.9697,-3.9697,-3.9788,-3.9697,-3.9942,-3.9749,-3.9788,-3.9749,-3.9788,-3.9697,-3.9697,-3.9697,-3.9697,-3.9697,-3.9697,-3.9749,-4.1306,-4.2544,-4.3646,-4.5584,-4.6121,-4.6829,-4.7266,-4.7309,-4.7251,-4.6916,-4.6166,-4.5267,-4.3929,-4.2496,-4.1269,-4.0402,-3.9929,-3.9839,-3.9697,-3.9697,-3.9697,-3.9697,-3.9697,-3.9697,-3.9697,-3.9697,-3.9697,-3.9697,-3.9697,-3.9697,-3.9697,-3.9697,-3.9697,-3.9697,-3.9697,-3.9697,-3.9697,-3.9697,-3.9697,-3.9697,-3.9697,-3.9697,-3.9697,-3.9697,-3.9697,-3.9697,-3.9697,-3.9697,-3.9697,-3.9697,-3.9697,-3.9697,-3.9697,-3.9697,-3.9697,-3.9697,-3.9697,-3.9697,-3.9697,-3.9697,-3.9697,-3.9697,-3.9697,-3.9697,-3.9697,-3.9697,-3.9839,-4.0326,-4.0655,-4.1182,-4.1838,-4.2606,-4.1703,-4.0945,-4.0743,-4.0326,-3.9942,-3.9839,-3.989,-3.9839,-3.9749,-3.9697,-3.9697,-3.9697,-3.9697,-3.9942,-4.0173,-3.9929,-3.9929,-4.0313,-4.0313,-3.989,-3.9697,-3.9697,-3.9697,-3.9697,-3.9697,-3.9697,-3.9697,-3.9697,-3.9697,-3.9697,-3.9697,-3.9697,-3.9697,-3.9697,-3.9697,-3.9697,-3.9697,-3.9697,-3.9697,-3.9697,-3.9697,-3.9697,-3.98,-4.0794,-4.1838,-4.2315,-4.4163,-4.507,-4.5958,-4.6594,-4.6975,-4.6726,-4.6166,-4.5207,-4.3975,-4.2786,-4.1604,-4.0465,-3.9736,-3.9697,-3.9697,-3.9697,-3.9697,-3.9697,-3.9697,-3.9697,-3.9697,-3.9697,-3.9697,-3.9697,-3.9697,-3.9697,-3.9697,-3.9697,-3.9697,-3.9697,-3.9697,-3.9697,-3.9697,-3.9697,-3.9697,-3.9697,-3.9697,-3.9697,-3.9697,-3.9697,-3.9697,-3.9697,-3.9697,-3.9697,-3.9697,-3.9697,-3.9697,-3.9697,-3.9697,-3.9697,-3.9697,-3.9697,-3.9697,-3.9697,-3.9697,-3.9697,-3.9697,-3.9697,-3.9697,-3.9697,-3.9697,-3.9697,-3.9697,-3.9697,-3.989,-3.9942,-4.0313,-4.0882,-4.1356,-4.0693,-4.0173,-4.0173,-4.0173,-3.9839,-3.9697,-3.98,-3.9749,-3.9697,-3.9697,-3.9697,-3.9697,-3.9749,-3.9942,-4.0032,-4.0032,-4.0121,-4.0313,-4.0173,-3.9788,-3.9697,-3.9697,-3.9697,-3.9697,-3.9697,-3.9697,-3.9697,-3.9697,-3.9697,-3.9697,-3.9697,-3.9697,-3.9697,-3.9697,-3.9697,-3.9697,-3.9697,-3.9697,-3.9697,-3.9697,-3.9697,-3.9697,-3.9749,-4.0224,-4.1082,-4.2035,-4.3218,-4.4022,-4.4964,-4.5207,-4.5448,-4.5644,-4.5024,-4.3929,-4.2786,-4.1752,-4.0932,-3.9839,-3.9697,-3.9697,-3.9697,-3.9697,-3.9697,-3.9697,-3.9697,-3.9697,-3.9697,-3.9697,-3.9697,-3.9697,-3.9697,-3.9697,-3.9697,-3.9697,-3.9697,-3.9697,-3.9697,-3.9697,-3.9697,-3.9697,-3.9697,-3.9697,-3.9697,-3.9697,-3.9697,-3.9697,-3.9697,-3.9697,-3.9697,-3.9697,-3.9697,-3.9697,-3.9697,-3.9697,-3.9697,-3.9697,-3.9697,-3.9697,-3.9697,-3.9697,-3.9697,-3.9697,-3.9697,-3.9697,-3.9697,-3.9697,-3.9697,-3.9697,-3.9697,-3.9697,-3.9697,-3.9697,-3.9697,-4.0211,-4.0402,-3.9981,-3.98,-3.989,-3.989,-3.9749,-3.9697,-3.9697,-3.9697,-3.9697,-3.9697,-3.9697,-3.9697,-3.9749,-3.989,-3.9981,-3.9929,-3.9981,-4.0032,-3.9942,-3.9697,-3.9697,-3.9697,-3.9697,-3.9697,-3.9697,-3.9697,-3.9697,-3.9697,-3.9697,-3.9697,-3.9697,-3.9697,-3.9697,-3.9697,-3.9697,-3.9697,-3.9697,-3.9697,-3.9697,-3.9697,-3.9697,-3.9697,-3.9981,-4.0642,-4.0794,-4.1752,-4.3313,-4.3646,-4.3787,-4.3929,-4.3929,-4.3929,-4.3409,-4.2738,-4.1739,-4.1219,-4.0794,-4.0032,-3.9697,-3.9697,-3.9697,-3.9697,-3.9697,-3.9697,-3.9697,-3.9697,-3.9697,-3.9697,-3.9697,-3.9697,-3.9697,-3.9697,-3.9697,-3.9697,-3.9697,-3.9697,-3.9697,-3.9697,-3.9697,-3.9697,-3.9697,-3.9697,-3.9697,-3.9697,-3.9697,-3.9697,-3.9697,-3.9697,-3.9697,-3.9697,-3.9697,-3.9697,-3.9697,-3.9697,-3.9697,-3.9697,-3.9697,-3.9697,-3.9697,-3.9697,-3.9697,-3.9697,-3.9697,-3.9697,-3.9697,-3.9697,-3.9697,-3.9697,-3.9697,-3.9697,-3.9697,-3.9697,-3.9697,-3.9929,-4.007,-3.9839,-3.9749,-3.9697,-3.9697,-3.9697,-3.9697,-3.9697,-3.9697,-3.9697,-3.9697,-3.9697,-3.9697,-3.98,-3.9839,-3.9839,-3.9788,-3.9788,-3.9839,-3.9788,-3.9697,-3.9697,-3.9697,-3.9697,-3.9697,-3.9697,-3.9697,-3.9697,-3.9697,-3.9697,-3.9697,-3.9697,-3.9697,-3.9697,-3.9697,-3.9697,-3.9697,-3.9697,-3.9697,-3.9697,-3.9697,-3.9697,-3.9697,-3.989,-4.0173,-4.0121,-4.0605,-4.1936,-4.2751,-4.3026,-4.3204,-4.3347,-4.2689,-4.2168,-4.1874,-4.1455,-4.0415,-4.0032,-3.989,-3.9697,-3.9697,-3.9697,-3.9697,-3.9697,-3.9697,-3.9697,-3.9697,-3.9697,-3.9697,-3.9697,-3.9697,-3.9697,-3.9697,-3.9697,-3.9697,-3.9697,-3.9697,-3.9697,-3.9697,-3.9697,-3.9697,-3.9697,-3.9697,-3.9697,-3.9697,-3.9697,-3.9697,-3.9697,-3.9697,-3.9697,-3.9697,-3.9697,-3.9697,-3.9697,-3.9697,-3.9697,-3.9697,-3.9697,-3.9697,-3.9697,-3.9697,-3.9697,-3.9697,-3.9697,-3.9697,-3.9697,-3.9697,-3.9697,-3.9697,-3.9697,-3.9697,-3.9697,-3.9697,-3.9697,-3.9697,-3.9697,-3.9697,-3.9697,-3.9697,-3.9697,-3.9697,-3.9697,-3.9697,-3.9697,-3.9697,-3.9697,-3.9697,-3.9697,-3.9697,-3.9749,-3.9697,-3.9697,-3.9697,-3.9749,-3.9749,-3.9697,-3.9697,-3.9697,-3.9697]}]]